<?xml version="1.0" encoding="UTF-8" standalone="no" ?>
<gpx xmlns="http://www.topografix.com/GPX/1/1" xmlns:xsi="http://www.w3.org/2001/XMLSchema-instance" xsi:schemaLocation="http://www.topografix.com/GPX/1/1 http://www.topografix.com/GPX/1/1/gpx.xsd" version="1.1" creator="VisuGPX - https://www.visugpx.com">
  <metadata>
    <name>Villeneuve Banon 21 04 2015</name>
    <desc><![CDATA[Avec Yves .....]]></desc>
  </metadata>
  <trk>
    <name><![CDATA[Actuel: 21 APR 2015 08:19]]></name>
    <trkseg>
      <trkpt lat="43.89813" lon="5.86508">
        <ele>422.43</ele>
        <time>2015-04-21T06:19:41Z</time>
      </trkpt>
      <trkpt lat="43.89816" lon="5.86513">
        <ele>422.7</ele>
        <time>2015-04-21T06:19:47Z</time>
      </trkpt>
      <trkpt lat="43.8983" lon="5.86525">
        <ele>424.05</ele>
        <time>2015-04-21T06:20:03Z</time>
      </trkpt>
      <trkpt lat="43.8985" lon="5.86548">
        <ele>425.07</ele>
        <time>2015-04-21T06:20:16Z</time>
      </trkpt>
      <trkpt lat="43.89847" lon="5.86563">
        <ele>424.81</ele>
        <time>2015-04-21T06:20:20Z</time>
      </trkpt>
      <trkpt lat="43.89824" lon="5.86607">
        <ele>420.9</ele>
        <time>2015-04-21T06:20:26Z</time>
      </trkpt>
      <trkpt lat="43.89805" lon="5.86641">
        <ele>417.75</ele>
        <time>2015-04-21T06:20:30Z</time>
      </trkpt>
      <trkpt lat="43.89791" lon="5.86664">
        <ele>414.35</ele>
        <time>2015-04-21T06:20:33Z</time>
      </trkpt>
      <trkpt lat="43.89781" lon="5.86683">
        <ele>411.07</ele>
        <time>2015-04-21T06:20:36Z</time>
      </trkpt>
      <trkpt lat="43.89766" lon="5.86699">
        <ele>406.89</ele>
        <time>2015-04-21T06:20:42Z</time>
      </trkpt>
      <trkpt lat="43.89764" lon="5.86697">
        <ele>406.62</ele>
        <time>2015-04-21T06:20:43Z</time>
      </trkpt>
      <trkpt lat="43.89761" lon="5.86695">
        <ele>406.53</ele>
        <time>2015-04-21T06:20:44Z</time>
      </trkpt>
      <trkpt lat="43.89758" lon="5.86691">
        <ele>406.31</ele>
        <time>2015-04-21T06:20:57Z</time>
      </trkpt>
      <trkpt lat="43.8976" lon="5.86691">
        <ele>406.17</ele>
        <time>2015-04-21T06:21:26Z</time>
      </trkpt>
      <trkpt lat="43.8976" lon="5.86691">
        <ele>406.05</ele>
        <time>2015-04-21T06:21:58Z</time>
      </trkpt>
      <trkpt lat="43.89745" lon="5.86681">
        <ele>405.83</ele>
        <time>2015-04-21T06:22:20Z</time>
      </trkpt>
      <trkpt lat="43.89718" lon="5.86652">
        <ele>405.55</ele>
        <time>2015-04-21T06:22:30Z</time>
      </trkpt>
      <trkpt lat="43.89676" lon="5.86594">
        <ele>405.39</ele>
        <time>2015-04-21T06:22:44Z</time>
      </trkpt>
      <trkpt lat="43.89618" lon="5.86531">
        <ele>405.45</ele>
        <time>2015-04-21T06:22:59Z</time>
      </trkpt>
      <trkpt lat="43.89589" lon="5.86504">
        <ele>405.77</ele>
        <time>2015-04-21T06:23:06Z</time>
      </trkpt>
      <trkpt lat="43.89581" lon="5.86476">
        <ele>406.3</ele>
        <time>2015-04-21T06:23:11Z</time>
      </trkpt>
      <trkpt lat="43.89583" lon="5.8645">
        <ele>405.91</ele>
        <time>2015-04-21T06:23:15Z</time>
      </trkpt>
      <trkpt lat="43.89571" lon="5.86429">
        <ele>405.05</ele>
        <time>2015-04-21T06:23:24Z</time>
      </trkpt>
      <trkpt lat="43.89568" lon="5.8644">
        <ele>404.74</ele>
        <time>2015-04-21T06:23:26Z</time>
      </trkpt>
      <trkpt lat="43.89557" lon="5.8651">
        <ele>401.22</ele>
        <time>2015-04-21T06:23:35Z</time>
      </trkpt>
      <trkpt lat="43.89547" lon="5.86574">
        <ele>397.83</ele>
        <time>2015-04-21T06:23:43Z</time>
      </trkpt>
      <trkpt lat="43.89532" lon="5.86628">
        <ele>394.48</ele>
        <time>2015-04-21T06:23:48Z</time>
      </trkpt>
      <trkpt lat="43.89528" lon="5.8664">
        <ele>394.18</ele>
        <time>2015-04-21T06:23:49Z</time>
      </trkpt>
      <trkpt lat="43.89502" lon="5.86714">
        <ele>391.15</ele>
        <time>2015-04-21T06:23:55Z</time>
      </trkpt>
      <trkpt lat="43.89484" lon="5.86764">
        <ele>388.02</ele>
        <time>2015-04-21T06:23:59Z</time>
      </trkpt>
      <trkpt lat="43.89455" lon="5.86841">
        <ele>384.53</ele>
        <time>2015-04-21T06:24:05Z</time>
      </trkpt>
      <trkpt lat="43.89448" lon="5.86867">
        <ele>383.88</ele>
        <time>2015-04-21T06:24:07Z</time>
      </trkpt>
      <trkpt lat="43.89434" lon="5.86931">
        <ele>380.48</ele>
        <time>2015-04-21T06:24:12Z</time>
      </trkpt>
      <trkpt lat="43.89428" lon="5.86967">
        <ele>377.31</ele>
        <time>2015-04-21T06:24:16Z</time>
      </trkpt>
      <trkpt lat="43.89412" lon="5.86977">
        <ele>374.78</ele>
        <time>2015-04-21T06:24:20Z</time>
      </trkpt>
      <trkpt lat="43.89325" lon="5.86898">
        <ele>374.44</ele>
        <time>2015-04-21T06:24:36Z</time>
      </trkpt>
      <trkpt lat="43.89253" lon="5.86811">
        <ele>374.33</ele>
        <time>2015-04-21T06:24:51Z</time>
      </trkpt>
      <trkpt lat="43.89189" lon="5.8672">
        <ele>374.78</ele>
        <time>2015-04-21T06:25:07Z</time>
      </trkpt>
      <trkpt lat="43.89127" lon="5.86638">
        <ele>374.4</ele>
        <time>2015-04-21T06:25:21Z</time>
      </trkpt>
      <trkpt lat="43.89113" lon="5.86612">
        <ele>374.25</ele>
        <time>2015-04-21T06:25:27Z</time>
      </trkpt>
      <trkpt lat="43.89076" lon="5.86585">
        <ele>374.99</ele>
        <time>2015-04-21T06:25:34Z</time>
      </trkpt>
      <trkpt lat="43.88997" lon="5.86508">
        <ele>374.67</ele>
        <time>2015-04-21T06:25:49Z</time>
      </trkpt>
      <trkpt lat="43.88927" lon="5.86438">
        <ele>373.48</ele>
        <time>2015-04-21T06:26:01Z</time>
      </trkpt>
      <trkpt lat="43.88856" lon="5.86373">
        <ele>372.68</ele>
        <time>2015-04-21T06:26:13Z</time>
      </trkpt>
      <trkpt lat="43.88779" lon="5.8629">
        <ele>372.18</ele>
        <time>2015-04-21T06:26:27Z</time>
      </trkpt>
      <trkpt lat="43.88729" lon="5.86227">
        <ele>371.84</ele>
        <time>2015-04-21T06:26:37Z</time>
      </trkpt>
      <trkpt lat="43.88722" lon="5.862">
        <ele>372.07</ele>
        <time>2015-04-21T06:26:41Z</time>
      </trkpt>
      <trkpt lat="43.8869" lon="5.86166">
        <ele>371.87</ele>
        <time>2015-04-21T06:26:48Z</time>
      </trkpt>
      <trkpt lat="43.88642" lon="5.86098">
        <ele>371.66</ele>
        <time>2015-04-21T06:26:58Z</time>
      </trkpt>
      <trkpt lat="43.88583" lon="5.86004">
        <ele>371.17</ele>
        <time>2015-04-21T06:27:11Z</time>
      </trkpt>
      <trkpt lat="43.88509" lon="5.85879">
        <ele>371.77</ele>
        <time>2015-04-21T06:27:29Z</time>
      </trkpt>
      <trkpt lat="43.88452" lon="5.85782">
        <ele>372.48</ele>
        <time>2015-04-21T06:27:44Z</time>
      </trkpt>
      <trkpt lat="43.884" lon="5.85678">
        <ele>373.42</ele>
        <time>2015-04-21T06:27:59Z</time>
      </trkpt>
      <trkpt lat="43.88332" lon="5.85545">
        <ele>370.43</ele>
        <time>2015-04-21T06:28:15Z</time>
      </trkpt>
      <trkpt lat="43.88304" lon="5.85519">
        <ele>367.22</ele>
        <time>2015-04-21T06:28:20Z</time>
      </trkpt>
      <trkpt lat="43.88299" lon="5.85511">
        <ele>366.3</ele>
        <time>2015-04-21T06:28:22Z</time>
      </trkpt>
      <trkpt lat="43.88306" lon="5.85495">
        <ele>366.29</ele>
        <time>2015-04-21T06:28:27Z</time>
      </trkpt>
      <trkpt lat="43.88336" lon="5.85437">
        <ele>369.7</ele>
        <time>2015-04-21T06:28:40Z</time>
      </trkpt>
      <trkpt lat="43.88337" lon="5.85376">
        <ele>368.04</ele>
        <time>2015-04-21T06:28:48Z</time>
      </trkpt>
      <trkpt lat="43.88348" lon="5.85338">
        <ele>366.71</ele>
        <time>2015-04-21T06:28:53Z</time>
      </trkpt>
      <trkpt lat="43.88368" lon="5.85311">
        <ele>362.91</ele>
        <time>2015-04-21T06:28:57Z</time>
      </trkpt>
      <trkpt lat="43.88382" lon="5.8528">
        <ele>358.61</ele>
        <time>2015-04-21T06:29:00Z</time>
      </trkpt>
      <trkpt lat="43.88401" lon="5.85235">
        <ele>355.34</ele>
        <time>2015-04-21T06:29:04Z</time>
      </trkpt>
      <trkpt lat="43.88405" lon="5.85224">
        <ele>354.8</ele>
        <time>2015-04-21T06:29:05Z</time>
      </trkpt>
      <trkpt lat="43.88433" lon="5.85137">
        <ele>350.99</ele>
        <time>2015-04-21T06:29:12Z</time>
      </trkpt>
      <trkpt lat="43.88444" lon="5.851">
        <ele>348.18</ele>
        <time>2015-04-21T06:29:16Z</time>
      </trkpt>
      <trkpt lat="43.88457" lon="5.85079">
        <ele>346.14</ele>
        <time>2015-04-21T06:29:20Z</time>
      </trkpt>
      <trkpt lat="43.88465" lon="5.85079">
        <ele>346.76</ele>
        <time>2015-04-21T06:29:22Z</time>
      </trkpt>
      <trkpt lat="43.8848" lon="5.85077">
        <ele>348.07</ele>
        <time>2015-04-21T06:29:25Z</time>
      </trkpt>
      <trkpt lat="43.88526" lon="5.85073">
        <ele>351.81</ele>
        <time>2015-04-21T06:29:37Z</time>
      </trkpt>
      <trkpt lat="43.88574" lon="5.85066">
        <ele>354.48</ele>
        <time>2015-04-21T06:29:51Z</time>
      </trkpt>
      <trkpt lat="43.88578" lon="5.85065">
        <ele>354.44</ele>
        <time>2015-04-21T06:29:52Z</time>
      </trkpt>
      <trkpt lat="43.88596" lon="5.8506">
        <ele>354.28</ele>
        <time>2015-04-21T06:29:56Z</time>
      </trkpt>
      <trkpt lat="43.88649" lon="5.85025">
        <ele>351.81</ele>
        <time>2015-04-21T06:30:06Z</time>
      </trkpt>
      <trkpt lat="43.88672" lon="5.85012">
        <ele>351.52</ele>
        <time>2015-04-21T06:30:10Z</time>
      </trkpt>
      <trkpt lat="43.88695" lon="5.85002">
        <ele>351.7</ele>
        <time>2015-04-21T06:30:15Z</time>
      </trkpt>
      <trkpt lat="43.88767" lon="5.84967">
        <ele>350.64</ele>
        <time>2015-04-21T06:30:27Z</time>
      </trkpt>
      <trkpt lat="43.8882" lon="5.84939">
        <ele>353.57</ele>
        <time>2015-04-21T06:30:39Z</time>
      </trkpt>
      <trkpt lat="43.88875" lon="5.84915">
        <ele>356.46</ele>
        <time>2015-04-21T06:30:53Z</time>
      </trkpt>
      <trkpt lat="43.88928" lon="5.84893">
        <ele>357.94</ele>
        <time>2015-04-21T06:31:07Z</time>
      </trkpt>
      <trkpt lat="43.88989" lon="5.8484">
        <ele>356.1</ele>
        <time>2015-04-21T06:31:20Z</time>
      </trkpt>
      <trkpt lat="43.8901" lon="5.84816">
        <ele>355.7</ele>
        <time>2015-04-21T06:31:25Z</time>
      </trkpt>
      <trkpt lat="43.89022" lon="5.84801">
        <ele>356.18</ele>
        <time>2015-04-21T06:31:28Z</time>
      </trkpt>
      <trkpt lat="43.89073" lon="5.8476">
        <ele>356.68</ele>
        <time>2015-04-21T06:31:41Z</time>
      </trkpt>
      <trkpt lat="43.89093" lon="5.84749">
        <ele>356.96</ele>
        <time>2015-04-21T06:31:46Z</time>
      </trkpt>
      <trkpt lat="43.89111" lon="5.84744">
        <ele>357.01</ele>
        <time>2015-04-21T06:31:51Z</time>
      </trkpt>
      <trkpt lat="43.89119" lon="5.84726">
        <ele>355.38</ele>
        <time>2015-04-21T06:31:55Z</time>
      </trkpt>
      <trkpt lat="43.89109" lon="5.84627">
        <ele>354.89</ele>
        <time>2015-04-21T06:32:08Z</time>
      </trkpt>
      <trkpt lat="43.89091" lon="5.84514">
        <ele>351.94</ele>
        <time>2015-04-21T06:32:19Z</time>
      </trkpt>
      <trkpt lat="43.8909" lon="5.84503">
        <ele>351.08</ele>
        <time>2015-04-21T06:32:20Z</time>
      </trkpt>
      <trkpt lat="43.89101" lon="5.84464">
        <ele>348</ele>
        <time>2015-04-21T06:32:26Z</time>
      </trkpt>
      <trkpt lat="43.89131" lon="5.84441">
        <ele>348.1</ele>
        <time>2015-04-21T06:32:32Z</time>
      </trkpt>
      <trkpt lat="43.89141" lon="5.84414">
        <ele>348.38</ele>
        <time>2015-04-21T06:32:38Z</time>
      </trkpt>
      <trkpt lat="43.89144" lon="5.84396">
        <ele>348.7</ele>
        <time>2015-04-21T06:32:43Z</time>
      </trkpt>
      <trkpt lat="43.89153" lon="5.84373">
        <ele>348.46</ele>
        <time>2015-04-21T06:32:47Z</time>
      </trkpt>
      <trkpt lat="43.89162" lon="5.84362">
        <ele>348.65</ele>
        <time>2015-04-21T06:32:49Z</time>
      </trkpt>
      <trkpt lat="43.89175" lon="5.84325">
        <ele>348.65</ele>
        <time>2015-04-21T06:32:53Z</time>
      </trkpt>
      <trkpt lat="43.89185" lon="5.84257">
        <ele>350.37</ele>
        <time>2015-04-21T06:33:03Z</time>
      </trkpt>
      <trkpt lat="43.892" lon="5.84214">
        <ele>351.88</ele>
        <time>2015-04-21T06:33:13Z</time>
      </trkpt>
      <trkpt lat="43.89251" lon="5.8414">
        <ele>352.82</ele>
        <time>2015-04-21T06:33:27Z</time>
      </trkpt>
      <trkpt lat="43.89321" lon="5.84046">
        <ele>353.84</ele>
        <time>2015-04-21T06:33:44Z</time>
      </trkpt>
      <trkpt lat="43.89375" lon="5.83965">
        <ele>354.66</ele>
        <time>2015-04-21T06:33:58Z</time>
      </trkpt>
      <trkpt lat="43.89389" lon="5.83936">
        <ele>354.59</ele>
        <time>2015-04-21T06:34:02Z</time>
      </trkpt>
      <trkpt lat="43.89424" lon="5.83845">
        <ele>351.56</ele>
        <time>2015-04-21T06:34:12Z</time>
      </trkpt>
      <trkpt lat="43.89437" lon="5.83819">
        <ele>350.48</ele>
        <time>2015-04-21T06:34:15Z</time>
      </trkpt>
      <trkpt lat="43.89463" lon="5.83792">
        <ele>349.9</ele>
        <time>2015-04-21T06:34:19Z</time>
      </trkpt>
      <trkpt lat="43.89477" lon="5.83783">
        <ele>349.74</ele>
        <time>2015-04-21T06:34:21Z</time>
      </trkpt>
      <trkpt lat="43.8956" lon="5.83766">
        <ele>350.06</ele>
        <time>2015-04-21T06:34:33Z</time>
      </trkpt>
      <trkpt lat="43.89635" lon="5.83762">
        <ele>350.54</ele>
        <time>2015-04-21T06:34:45Z</time>
      </trkpt>
      <trkpt lat="43.89709" lon="5.83726">
        <ele>352.1</ele>
        <time>2015-04-21T06:34:58Z</time>
      </trkpt>
      <trkpt lat="43.89714" lon="5.83721">
        <ele>352.17</ele>
        <time>2015-04-21T06:34:59Z</time>
      </trkpt>
      <trkpt lat="43.89767" lon="5.83622">
        <ele>352.77</ele>
        <time>2015-04-21T06:35:13Z</time>
      </trkpt>
      <trkpt lat="43.8978" lon="5.83522">
        <ele>353.28</ele>
        <time>2015-04-21T06:35:24Z</time>
      </trkpt>
      <trkpt lat="43.89751" lon="5.83404">
        <ele>353.96</ele>
        <time>2015-04-21T06:35:38Z</time>
      </trkpt>
      <trkpt lat="43.89698" lon="5.83261">
        <ele>354.6</ele>
        <time>2015-04-21T06:35:55Z</time>
      </trkpt>
      <trkpt lat="43.89685" lon="5.83218">
        <ele>354.68</ele>
        <time>2015-04-21T06:36:00Z</time>
      </trkpt>
      <trkpt lat="43.89685" lon="5.83096">
        <ele>355.73</ele>
        <time>2015-04-21T06:36:14Z</time>
      </trkpt>
      <trkpt lat="43.89706" lon="5.8294">
        <ele>357.95</ele>
        <time>2015-04-21T06:36:33Z</time>
      </trkpt>
      <trkpt lat="43.89748" lon="5.82824">
        <ele>358.76</ele>
        <time>2015-04-21T06:36:48Z</time>
      </trkpt>
      <trkpt lat="43.89817" lon="5.82738">
        <ele>358.57</ele>
        <time>2015-04-21T06:37:03Z</time>
      </trkpt>
      <trkpt lat="43.89873" lon="5.82675">
        <ele>361.56</ele>
        <time>2015-04-21T06:37:17Z</time>
      </trkpt>
      <trkpt lat="43.89931" lon="5.82595">
        <ele>362.23</ele>
        <time>2015-04-21T06:37:31Z</time>
      </trkpt>
      <trkpt lat="43.8996" lon="5.82488">
        <ele>362.6</ele>
        <time>2015-04-21T06:37:44Z</time>
      </trkpt>
      <trkpt lat="43.89989" lon="5.82362">
        <ele>365.33</ele>
        <time>2015-04-21T06:38:00Z</time>
      </trkpt>
      <trkpt lat="43.89995" lon="5.82243">
        <ele>367.24</ele>
        <time>2015-04-21T06:38:14Z</time>
      </trkpt>
      <trkpt lat="43.89969" lon="5.82132">
        <ele>367.57</ele>
        <time>2015-04-21T06:38:27Z</time>
      </trkpt>
      <trkpt lat="43.89934" lon="5.82022">
        <ele>366.42</ele>
        <time>2015-04-21T06:38:40Z</time>
      </trkpt>
      <trkpt lat="43.89917" lon="5.81957">
        <ele>365.51</ele>
        <time>2015-04-21T06:38:47Z</time>
      </trkpt>
      <trkpt lat="43.89937" lon="5.81862">
        <ele>364.86</ele>
        <time>2015-04-21T06:38:57Z</time>
      </trkpt>
      <trkpt lat="43.89948" lon="5.81847">
        <ele>364.89</ele>
        <time>2015-04-21T06:38:59Z</time>
      </trkpt>
      <trkpt lat="43.90028" lon="5.81753">
        <ele>364.34</ele>
        <time>2015-04-21T06:39:14Z</time>
      </trkpt>
      <trkpt lat="43.90042" lon="5.81732">
        <ele>364.39</ele>
        <time>2015-04-21T06:39:17Z</time>
      </trkpt>
      <trkpt lat="43.90097" lon="5.81595">
        <ele>365.58</ele>
        <time>2015-04-21T06:39:33Z</time>
      </trkpt>
      <trkpt lat="43.90131" lon="5.81491">
        <ele>367.23</ele>
        <time>2015-04-21T06:39:45Z</time>
      </trkpt>
      <trkpt lat="43.90145" lon="5.81358">
        <ele>367.55</ele>
        <time>2015-04-21T06:39:59Z</time>
      </trkpt>
      <trkpt lat="43.90121" lon="5.81218">
        <ele>367.02</ele>
        <time>2015-04-21T06:40:13Z</time>
      </trkpt>
      <trkpt lat="43.90087" lon="5.81142">
        <ele>367.58</ele>
        <time>2015-04-21T06:40:22Z</time>
      </trkpt>
      <trkpt lat="43.90041" lon="5.81085">
        <ele>368.36</ele>
        <time>2015-04-21T06:40:31Z</time>
      </trkpt>
      <trkpt lat="43.90025" lon="5.81059">
        <ele>368.6</ele>
        <time>2015-04-21T06:40:35Z</time>
      </trkpt>
      <trkpt lat="43.90013" lon="5.81041">
        <ele>369.42</ele>
        <time>2015-04-21T06:40:38Z</time>
      </trkpt>
      <trkpt lat="43.89996" lon="5.81028">
        <ele>370.21</ele>
        <time>2015-04-21T06:40:42Z</time>
      </trkpt>
      <trkpt lat="43.8998" lon="5.81021">
        <ele>370.99</ele>
        <time>2015-04-21T06:40:45Z</time>
      </trkpt>
      <trkpt lat="43.89957" lon="5.81013">
        <ele>371.88</ele>
        <time>2015-04-21T06:40:50Z</time>
      </trkpt>
      <trkpt lat="43.89919" lon="5.81004">
        <ele>374.07</ele>
        <time>2015-04-21T06:40:59Z</time>
      </trkpt>
      <trkpt lat="43.89889" lon="5.81003">
        <ele>375.93</ele>
        <time>2015-04-21T06:41:06Z</time>
      </trkpt>
      <trkpt lat="43.89876" lon="5.81002">
        <ele>376.41</ele>
        <time>2015-04-21T06:41:09Z</time>
      </trkpt>
      <trkpt lat="43.89862" lon="5.80969">
        <ele>377.87</ele>
        <time>2015-04-21T06:41:17Z</time>
      </trkpt>
      <trkpt lat="43.89871" lon="5.80957">
        <ele>378.16</ele>
        <time>2015-04-21T06:41:20Z</time>
      </trkpt>
      <trkpt lat="43.8988" lon="5.80948">
        <ele>378.75</ele>
        <time>2015-04-21T06:41:23Z</time>
      </trkpt>
      <trkpt lat="43.89888" lon="5.80942">
        <ele>378.95</ele>
        <time>2015-04-21T06:41:25Z</time>
      </trkpt>
      <trkpt lat="43.89947" lon="5.80893">
        <ele>382.08</ele>
        <time>2015-04-21T06:41:39Z</time>
      </trkpt>
      <trkpt lat="43.89966" lon="5.80876">
        <ele>383.2</ele>
        <time>2015-04-21T06:41:44Z</time>
      </trkpt>
      <trkpt lat="43.89977" lon="5.80862">
        <ele>383.59</ele>
        <time>2015-04-21T06:41:47Z</time>
      </trkpt>
      <trkpt lat="43.8999" lon="5.80834">
        <ele>384.2</ele>
        <time>2015-04-21T06:41:52Z</time>
      </trkpt>
      <trkpt lat="43.90014" lon="5.80729">
        <ele>382.23</ele>
        <time>2015-04-21T06:42:04Z</time>
      </trkpt>
      <trkpt lat="43.90032" lon="5.80644">
        <ele>379.06</ele>
        <time>2015-04-21T06:42:11Z</time>
      </trkpt>
      <trkpt lat="43.90038" lon="5.80618">
        <ele>378.37</ele>
        <time>2015-04-21T06:42:13Z</time>
      </trkpt>
      <trkpt lat="43.9005" lon="5.80536">
        <ele>375.32</ele>
        <time>2015-04-21T06:42:19Z</time>
      </trkpt>
      <trkpt lat="43.90056" lon="5.80395">
        <ele>373.44</ele>
        <time>2015-04-21T06:42:30Z</time>
      </trkpt>
      <trkpt lat="43.90025" lon="5.80294">
        <ele>372.61</ele>
        <time>2015-04-21T06:42:40Z</time>
      </trkpt>
      <trkpt lat="43.89989" lon="5.80192">
        <ele>374.15</ele>
        <time>2015-04-21T06:42:52Z</time>
      </trkpt>
      <trkpt lat="43.89948" lon="5.80097">
        <ele>373.5</ele>
        <time>2015-04-21T06:43:04Z</time>
      </trkpt>
      <trkpt lat="43.89918" lon="5.80005">
        <ele>374.29</ele>
        <time>2015-04-21T06:43:16Z</time>
      </trkpt>
      <trkpt lat="43.89905" lon="5.79893">
        <ele>376.32</ele>
        <time>2015-04-21T06:43:30Z</time>
      </trkpt>
      <trkpt lat="43.89899" lon="5.79761">
        <ele>376.32</ele>
        <time>2015-04-21T06:43:44Z</time>
      </trkpt>
      <trkpt lat="43.89898" lon="5.79752">
        <ele>376.31</ele>
        <time>2015-04-21T06:43:45Z</time>
      </trkpt>
      <trkpt lat="43.89876" lon="5.79674">
        <ele>376.91</ele>
        <time>2015-04-21T06:43:54Z</time>
      </trkpt>
      <trkpt lat="43.89864" lon="5.79548">
        <ele>377.23</ele>
        <time>2015-04-21T06:44:08Z</time>
      </trkpt>
      <trkpt lat="43.89878" lon="5.79494">
        <ele>378.16</ele>
        <time>2015-04-21T06:44:15Z</time>
      </trkpt>
      <trkpt lat="43.8991" lon="5.79464">
        <ele>379.26</ele>
        <time>2015-04-21T06:44:21Z</time>
      </trkpt>
      <trkpt lat="43.89944" lon="5.79447">
        <ele>379.98</ele>
        <time>2015-04-21T06:44:27Z</time>
      </trkpt>
      <trkpt lat="43.89965" lon="5.7942">
        <ele>381.04</ele>
        <time>2015-04-21T06:44:32Z</time>
      </trkpt>
      <trkpt lat="43.89998" lon="5.79357">
        <ele>382.86</ele>
        <time>2015-04-21T06:44:41Z</time>
      </trkpt>
      <trkpt lat="43.90008" lon="5.79346">
        <ele>382.99</ele>
        <time>2015-04-21T06:44:43Z</time>
      </trkpt>
      <trkpt lat="43.90074" lon="5.79296">
        <ele>383.04</ele>
        <time>2015-04-21T06:44:55Z</time>
      </trkpt>
      <trkpt lat="43.9013" lon="5.79252">
        <ele>383.07</ele>
        <time>2015-04-21T06:45:05Z</time>
      </trkpt>
      <trkpt lat="43.90197" lon="5.79194">
        <ele>382.66</ele>
        <time>2015-04-21T06:45:18Z</time>
      </trkpt>
      <trkpt lat="43.90251" lon="5.79119">
        <ele>383.02</ele>
        <time>2015-04-21T06:45:29Z</time>
      </trkpt>
      <trkpt lat="43.90268" lon="5.79108">
        <ele>383.97</ele>
        <time>2015-04-21T06:45:33Z</time>
      </trkpt>
      <trkpt lat="43.90274" lon="5.79108">
        <ele>384.31</ele>
        <time>2015-04-21T06:45:35Z</time>
      </trkpt>
      <trkpt lat="43.9029" lon="5.79065">
        <ele>383.03</ele>
        <time>2015-04-21T06:45:43Z</time>
      </trkpt>
      <trkpt lat="43.90278" lon="5.79037">
        <ele>382.14</ele>
        <time>2015-04-21T06:45:50Z</time>
      </trkpt>
      <trkpt lat="43.90254" lon="5.78994">
        <ele>381.32</ele>
        <time>2015-04-21T06:45:57Z</time>
      </trkpt>
      <trkpt lat="43.90243" lon="5.78965">
        <ele>381.44</ele>
        <time>2015-04-21T06:46:01Z</time>
      </trkpt>
      <trkpt lat="43.90248" lon="5.78906">
        <ele>381.53</ele>
        <time>2015-04-21T06:46:08Z</time>
      </trkpt>
      <trkpt lat="43.90313" lon="5.78774">
        <ele>382.19</ele>
        <time>2015-04-21T06:46:26Z</time>
      </trkpt>
      <trkpt lat="43.9034" lon="5.78724">
        <ele>383.18</ele>
        <time>2015-04-21T06:46:34Z</time>
      </trkpt>
      <trkpt lat="43.90348" lon="5.78713">
        <ele>383.58</ele>
        <time>2015-04-21T06:46:36Z</time>
      </trkpt>
      <trkpt lat="43.90362" lon="5.787">
        <ele>384.05</ele>
        <time>2015-04-21T06:46:39Z</time>
      </trkpt>
      <trkpt lat="43.90468" lon="5.78653">
        <ele>384.18</ele>
        <time>2015-04-21T06:46:57Z</time>
      </trkpt>
      <trkpt lat="43.90522" lon="5.7863">
        <ele>385.52</ele>
        <time>2015-04-21T06:47:07Z</time>
      </trkpt>
      <trkpt lat="43.90604" lon="5.7857">
        <ele>386.78</ele>
        <time>2015-04-21T06:47:23Z</time>
      </trkpt>
      <trkpt lat="43.90614" lon="5.78563">
        <ele>387.31</ele>
        <time>2015-04-21T06:47:25Z</time>
      </trkpt>
      <trkpt lat="43.9063" lon="5.78553">
        <ele>387.65</ele>
        <time>2015-04-21T06:47:29Z</time>
      </trkpt>
      <trkpt lat="43.90637" lon="5.78546">
        <ele>387.58</ele>
        <time>2015-04-21T06:47:31Z</time>
      </trkpt>
      <trkpt lat="43.90646" lon="5.78522">
        <ele>387.57</ele>
        <time>2015-04-21T06:47:35Z</time>
      </trkpt>
      <trkpt lat="43.90659" lon="5.78401">
        <ele>388.58</ele>
        <time>2015-04-21T06:47:51Z</time>
      </trkpt>
      <trkpt lat="43.90653" lon="5.78293">
        <ele>389.81</ele>
        <time>2015-04-21T06:48:06Z</time>
      </trkpt>
      <trkpt lat="43.90647" lon="5.782">
        <ele>390.59</ele>
        <time>2015-04-21T06:48:18Z</time>
      </trkpt>
      <trkpt lat="43.90635" lon="5.78076">
        <ele>391.45</ele>
        <time>2015-04-21T06:48:33Z</time>
      </trkpt>
      <trkpt lat="43.90601" lon="5.77969">
        <ele>392.53</ele>
        <time>2015-04-21T06:48:48Z</time>
      </trkpt>
      <trkpt lat="43.906" lon="5.77965">
        <ele>392.52</ele>
        <time>2015-04-21T06:48:49Z</time>
      </trkpt>
      <trkpt lat="43.90561" lon="5.77883">
        <ele>393.36</ele>
        <time>2015-04-21T06:49:01Z</time>
      </trkpt>
      <trkpt lat="43.90508" lon="5.77773">
        <ele>394.47</ele>
        <time>2015-04-21T06:49:16Z</time>
      </trkpt>
      <trkpt lat="43.90437" lon="5.77623">
        <ele>395.63</ele>
        <time>2015-04-21T06:49:37Z</time>
      </trkpt>
      <trkpt lat="43.90349" lon="5.77434">
        <ele>397.38</ele>
        <time>2015-04-21T06:50:01Z</time>
      </trkpt>
      <trkpt lat="43.90277" lon="5.77318">
        <ele>397.63</ele>
        <time>2015-04-21T06:50:17Z</time>
      </trkpt>
      <trkpt lat="43.90238" lon="5.77282">
        <ele>397.4</ele>
        <time>2015-04-21T06:50:24Z</time>
      </trkpt>
      <trkpt lat="43.90171" lon="5.77247">
        <ele>396.88</ele>
        <time>2015-04-21T06:50:36Z</time>
      </trkpt>
      <trkpt lat="43.90073" lon="5.77242">
        <ele>395.6</ele>
        <time>2015-04-21T06:50:49Z</time>
      </trkpt>
      <trkpt lat="43.89994" lon="5.77245">
        <ele>393.83</ele>
        <time>2015-04-21T06:50:59Z</time>
      </trkpt>
      <trkpt lat="43.89877" lon="5.77248">
        <ele>392.03</ele>
        <time>2015-04-21T06:51:14Z</time>
      </trkpt>
      <trkpt lat="43.89836" lon="5.7725">
        <ele>391.73</ele>
        <time>2015-04-21T06:51:20Z</time>
      </trkpt>
      <trkpt lat="43.89826" lon="5.77233">
        <ele>390.61</ele>
        <time>2015-04-21T06:51:25Z</time>
      </trkpt>
      <trkpt lat="43.89826" lon="5.77199">
        <ele>391.03</ele>
        <time>2015-04-21T06:51:30Z</time>
      </trkpt>
      <trkpt lat="43.89834" lon="5.77145">
        <ele>391.79</ele>
        <time>2015-04-21T06:51:38Z</time>
      </trkpt>
      <trkpt lat="43.8986" lon="5.77076">
        <ele>395.08</ele>
        <time>2015-04-21T06:51:51Z</time>
      </trkpt>
      <trkpt lat="43.89867" lon="5.77024">
        <ele>398.3</ele>
        <time>2015-04-21T06:52:01Z</time>
      </trkpt>
      <trkpt lat="43.89876" lon="5.76988">
        <ele>400.35</ele>
        <time>2015-04-21T06:52:08Z</time>
      </trkpt>
      <trkpt lat="43.89927" lon="5.7693">
        <ele>401.99</ele>
        <time>2015-04-21T06:52:20Z</time>
      </trkpt>
      <trkpt lat="43.90001" lon="5.76841">
        <ele>404.43</ele>
        <time>2015-04-21T06:52:38Z</time>
      </trkpt>
      <trkpt lat="43.90023" lon="5.76792">
        <ele>404.95</ele>
        <time>2015-04-21T06:52:46Z</time>
      </trkpt>
      <trkpt lat="43.90065" lon="5.76691">
        <ele>406.74</ele>
        <time>2015-04-21T06:53:02Z</time>
      </trkpt>
      <trkpt lat="43.90103" lon="5.76594">
        <ele>409.34</ele>
        <time>2015-04-21T06:53:18Z</time>
      </trkpt>
      <trkpt lat="43.90122" lon="5.76519">
        <ele>410.7</ele>
        <time>2015-04-21T06:53:30Z</time>
      </trkpt>
      <trkpt lat="43.90128" lon="5.76387">
        <ele>413.01</ele>
        <time>2015-04-21T06:53:49Z</time>
      </trkpt>
      <trkpt lat="43.90131" lon="5.763">
        <ele>416.33</ele>
        <time>2015-04-21T06:54:02Z</time>
      </trkpt>
      <trkpt lat="43.9013" lon="5.76215">
        <ele>419.44</ele>
        <time>2015-04-21T06:54:15Z</time>
      </trkpt>
      <trkpt lat="43.90152" lon="5.76113">
        <ele>421.65</ele>
        <time>2015-04-21T06:54:30Z</time>
      </trkpt>
      <trkpt lat="43.9016" lon="5.76079">
        <ele>421.91</ele>
        <time>2015-04-21T06:54:35Z</time>
      </trkpt>
      <trkpt lat="43.90188" lon="5.75985">
        <ele>425.05</ele>
        <time>2015-04-21T06:54:50Z</time>
      </trkpt>
      <trkpt lat="43.90215" lon="5.75899">
        <ele>428.26</ele>
        <time>2015-04-21T06:55:05Z</time>
      </trkpt>
      <trkpt lat="43.90217" lon="5.75893">
        <ele>428.52</ele>
        <time>2015-04-21T06:55:06Z</time>
      </trkpt>
      <trkpt lat="43.90244" lon="5.75812">
        <ele>431.82</ele>
        <time>2015-04-21T06:55:20Z</time>
      </trkpt>
      <trkpt lat="43.90278" lon="5.757">
        <ele>434.73</ele>
        <time>2015-04-21T06:55:38Z</time>
      </trkpt>
      <trkpt lat="43.90308" lon="5.7557">
        <ele>437.55</ele>
        <time>2015-04-21T06:55:58Z</time>
      </trkpt>
      <trkpt lat="43.90328" lon="5.7548">
        <ele>440.66</ele>
        <time>2015-04-21T06:56:13Z</time>
      </trkpt>
      <trkpt lat="43.90342" lon="5.75409">
        <ele>443.75</ele>
        <time>2015-04-21T06:56:25Z</time>
      </trkpt>
      <trkpt lat="43.9036" lon="5.75319">
        <ele>446.85</ele>
        <time>2015-04-21T06:56:40Z</time>
      </trkpt>
      <trkpt lat="43.90384" lon="5.75215">
        <ele>449.94</ele>
        <time>2015-04-21T06:56:57Z</time>
      </trkpt>
      <trkpt lat="43.90416" lon="5.75079">
        <ele>450.67</ele>
        <time>2015-04-21T06:57:16Z</time>
      </trkpt>
      <trkpt lat="43.90438" lon="5.74942">
        <ele>448.65</ele>
        <time>2015-04-21T06:57:30Z</time>
      </trkpt>
      <trkpt lat="43.90437" lon="5.74905">
        <ele>449.36</ele>
        <time>2015-04-21T06:57:35Z</time>
      </trkpt>
      <trkpt lat="43.90433" lon="5.74881">
        <ele>450.58</ele>
        <time>2015-04-21T06:57:39Z</time>
      </trkpt>
      <trkpt lat="43.90422" lon="5.74841">
        <ele>452.07</ele>
        <time>2015-04-21T06:57:46Z</time>
      </trkpt>
      <trkpt lat="43.90425" lon="5.74765">
        <ele>455.46</ele>
        <time>2015-04-21T06:57:58Z</time>
      </trkpt>
      <trkpt lat="43.90432" lon="5.7467">
        <ele>458.64</ele>
        <time>2015-04-21T06:58:13Z</time>
      </trkpt>
      <trkpt lat="43.90445" lon="5.74547">
        <ele>460.53</ele>
        <time>2015-04-21T06:58:34Z</time>
      </trkpt>
      <trkpt lat="43.90446" lon="5.74544">
        <ele>460.63</ele>
        <time>2015-04-21T06:58:35Z</time>
      </trkpt>
      <trkpt lat="43.90439" lon="5.74519">
        <ele>461.2</ele>
        <time>2015-04-21T06:58:41Z</time>
      </trkpt>
      <trkpt lat="43.90378" lon="5.74455">
        <ele>462.2</ele>
        <time>2015-04-21T06:58:56Z</time>
      </trkpt>
      <trkpt lat="43.90303" lon="5.74406">
        <ele>464.45</ele>
        <time>2015-04-21T06:59:13Z</time>
      </trkpt>
      <trkpt lat="43.9029" lon="5.74397">
        <ele>464.96</ele>
        <time>2015-04-21T06:59:16Z</time>
      </trkpt>
      <trkpt lat="43.90273" lon="5.74363">
        <ele>465.91</ele>
        <time>2015-04-21T06:59:23Z</time>
      </trkpt>
      <trkpt lat="43.90266" lon="5.74295">
        <ele>468.19</ele>
        <time>2015-04-21T06:59:34Z</time>
      </trkpt>
      <trkpt lat="43.90262" lon="5.74226">
        <ele>471.41</ele>
        <time>2015-04-21T06:59:47Z</time>
      </trkpt>
      <trkpt lat="43.90255" lon="5.74155">
        <ele>474.35</ele>
        <time>2015-04-21T07:00:01Z</time>
      </trkpt>
      <trkpt lat="43.90246" lon="5.74067">
        <ele>477.07</ele>
        <time>2015-04-21T07:00:15Z</time>
      </trkpt>
      <trkpt lat="43.90237" lon="5.73969">
        <ele>480.23</ele>
        <time>2015-04-21T07:00:31Z</time>
      </trkpt>
      <trkpt lat="43.9023" lon="5.73891">
        <ele>483.29</ele>
        <time>2015-04-21T07:00:45Z</time>
      </trkpt>
      <trkpt lat="43.90223" lon="5.73822">
        <ele>486.58</ele>
        <time>2015-04-21T07:00:57Z</time>
      </trkpt>
      <trkpt lat="43.90219" lon="5.73746">
        <ele>489.67</ele>
        <time>2015-04-21T07:01:10Z</time>
      </trkpt>
      <trkpt lat="43.9022" lon="5.73728">
        <ele>490.2</ele>
        <time>2015-04-21T07:01:13Z</time>
      </trkpt>
      <trkpt lat="43.90244" lon="5.73641">
        <ele>493.33</ele>
        <time>2015-04-21T07:01:28Z</time>
      </trkpt>
      <trkpt lat="43.90271" lon="5.73565">
        <ele>495.94</ele>
        <time>2015-04-21T07:01:41Z</time>
      </trkpt>
      <trkpt lat="43.90298" lon="5.7349">
        <ele>497.99</ele>
        <time>2015-04-21T07:01:54Z</time>
      </trkpt>
      <trkpt lat="43.90332" lon="5.73398">
        <ele>500.64</ele>
        <time>2015-04-21T07:02:10Z</time>
      </trkpt>
      <trkpt lat="43.90337" lon="5.73318">
        <ele>503.75</ele>
        <time>2015-04-21T07:02:23Z</time>
      </trkpt>
      <trkpt lat="43.90323" lon="5.73253">
        <ele>506.14</ele>
        <time>2015-04-21T07:02:34Z</time>
      </trkpt>
      <trkpt lat="43.90281" lon="5.73161">
        <ele>508.76</ele>
        <time>2015-04-21T07:02:50Z</time>
      </trkpt>
      <trkpt lat="43.90238" lon="5.73062">
        <ele>511.88</ele>
        <time>2015-04-21T07:03:06Z</time>
      </trkpt>
      <trkpt lat="43.90214" lon="5.72957">
        <ele>514.74</ele>
        <time>2015-04-21T07:03:21Z</time>
      </trkpt>
      <trkpt lat="43.90198" lon="5.72853">
        <ele>514.9</ele>
        <time>2015-04-21T07:03:34Z</time>
      </trkpt>
      <trkpt lat="43.90184" lon="5.72696">
        <ele>513.67</ele>
        <time>2015-04-21T07:03:50Z</time>
      </trkpt>
      <trkpt lat="43.90197" lon="5.72614">
        <ele>512.6</ele>
        <time>2015-04-21T07:03:58Z</time>
      </trkpt>
      <trkpt lat="43.90228" lon="5.72567">
        <ele>512.24</ele>
        <time>2015-04-21T07:04:04Z</time>
      </trkpt>
      <trkpt lat="43.90297" lon="5.72514">
        <ele>511.94</ele>
        <time>2015-04-21T07:04:15Z</time>
      </trkpt>
      <trkpt lat="43.90313" lon="5.72499">
        <ele>512.35</ele>
        <time>2015-04-21T07:04:18Z</time>
      </trkpt>
      <trkpt lat="43.9033" lon="5.72472">
        <ele>512.73</ele>
        <time>2015-04-21T07:04:22Z</time>
      </trkpt>
      <trkpt lat="43.90392" lon="5.72331">
        <ele>514.86</ele>
        <time>2015-04-21T07:04:39Z</time>
      </trkpt>
      <trkpt lat="43.90456" lon="5.72223">
        <ele>517.97</ele>
        <time>2015-04-21T07:04:54Z</time>
      </trkpt>
      <trkpt lat="43.90502" lon="5.72177">
        <ele>521.15</ele>
        <time>2015-04-21T07:05:04Z</time>
      </trkpt>
      <trkpt lat="43.90542" lon="5.72137">
        <ele>524.38</ele>
        <time>2015-04-21T07:05:15Z</time>
      </trkpt>
      <trkpt lat="43.9056" lon="5.72119">
        <ele>525.93</ele>
        <time>2015-04-21T07:05:20Z</time>
      </trkpt>
      <trkpt lat="43.90598" lon="5.72083">
        <ele>529.36</ele>
        <time>2015-04-21T07:05:31Z</time>
      </trkpt>
      <trkpt lat="43.90635" lon="5.72049">
        <ele>532.47</ele>
        <time>2015-04-21T07:05:42Z</time>
      </trkpt>
      <trkpt lat="43.90666" lon="5.72018">
        <ele>535.74</ele>
        <time>2015-04-21T07:05:52Z</time>
      </trkpt>
      <trkpt lat="43.907" lon="5.71981">
        <ele>538.84</ele>
        <time>2015-04-21T07:06:03Z</time>
      </trkpt>
      <trkpt lat="43.90741" lon="5.71932">
        <ele>542.18</ele>
        <time>2015-04-21T07:06:16Z</time>
      </trkpt>
      <trkpt lat="43.90772" lon="5.71899">
        <ele>545.33</ele>
        <time>2015-04-21T07:06:26Z</time>
      </trkpt>
      <trkpt lat="43.90795" lon="5.71851">
        <ele>548.48</ele>
        <time>2015-04-21T07:06:37Z</time>
      </trkpt>
      <trkpt lat="43.90802" lon="5.7182">
        <ele>550.34</ele>
        <time>2015-04-21T07:06:43Z</time>
      </trkpt>
      <trkpt lat="43.90805" lon="5.71803">
        <ele>551.37</ele>
        <time>2015-04-21T07:06:46Z</time>
      </trkpt>
      <trkpt lat="43.90813" lon="5.71749">
        <ele>554.5</ele>
        <time>2015-04-21T07:06:57Z</time>
      </trkpt>
      <trkpt lat="43.90802" lon="5.71734">
        <ele>553.72</ele>
        <time>2015-04-21T07:07:09Z</time>
      </trkpt>
      <trkpt lat="43.90805" lon="5.71734">
        <ele>553.63</ele>
        <time>2015-04-21T07:07:39Z</time>
      </trkpt>
      <trkpt lat="43.90804" lon="5.71738">
        <ele>553.55</ele>
        <time>2015-04-21T07:08:13Z</time>
      </trkpt>
      <trkpt lat="43.90804" lon="5.71736">
        <ele>553.79</ele>
        <time>2015-04-21T07:08:38Z</time>
      </trkpt>
      <trkpt lat="43.90804" lon="5.71735">
        <ele>553.66</ele>
        <time>2015-04-21T07:09:09Z</time>
      </trkpt>
      <trkpt lat="43.90801" lon="5.71736">
        <ele>553.66</ele>
        <time>2015-04-21T07:09:27Z</time>
      </trkpt>
      <trkpt lat="43.90787" lon="5.71706">
        <ele>552.41</ele>
        <time>2015-04-21T07:09:35Z</time>
      </trkpt>
      <trkpt lat="43.90787" lon="5.71626">
        <ele>549.9</ele>
        <time>2015-04-21T07:09:44Z</time>
      </trkpt>
      <trkpt lat="43.90761" lon="5.71574">
        <ele>547.67</ele>
        <time>2015-04-21T07:09:50Z</time>
      </trkpt>
      <trkpt lat="43.90669" lon="5.715">
        <ele>544.41</ele>
        <time>2015-04-21T07:10:01Z</time>
      </trkpt>
      <trkpt lat="43.90603" lon="5.71427">
        <ele>543.71</ele>
        <time>2015-04-21T07:10:12Z</time>
      </trkpt>
      <trkpt lat="43.90598" lon="5.71423">
        <ele>543.95</ele>
        <time>2015-04-21T07:10:13Z</time>
      </trkpt>
      <trkpt lat="43.90547" lon="5.71397">
        <ele>545.97</ele>
        <time>2015-04-21T07:10:23Z</time>
      </trkpt>
      <trkpt lat="43.90488" lon="5.71378">
        <ele>549.15</ele>
        <time>2015-04-21T07:10:36Z</time>
      </trkpt>
      <trkpt lat="43.90475" lon="5.71376">
        <ele>550.15</ele>
        <time>2015-04-21T07:10:39Z</time>
      </trkpt>
      <trkpt lat="43.9045" lon="5.7137">
        <ele>551.6</ele>
        <time>2015-04-21T07:10:45Z</time>
      </trkpt>
      <trkpt lat="43.9037" lon="5.7132">
        <ele>551.33</ele>
        <time>2015-04-21T07:11:00Z</time>
      </trkpt>
      <trkpt lat="43.90344" lon="5.71304">
        <ele>551</ele>
        <time>2015-04-21T07:11:04Z</time>
      </trkpt>
      <trkpt lat="43.9022" lon="5.7125">
        <ele>550.19</ele>
        <time>2015-04-21T07:11:23Z</time>
      </trkpt>
      <trkpt lat="43.90112" lon="5.71198">
        <ele>552.29</ele>
        <time>2015-04-21T07:11:42Z</time>
      </trkpt>
      <trkpt lat="43.9005" lon="5.71149">
        <ele>553.34</ele>
        <time>2015-04-21T07:11:55Z</time>
      </trkpt>
      <trkpt lat="43.90042" lon="5.71138">
        <ele>553.82</ele>
        <time>2015-04-21T07:11:57Z</time>
      </trkpt>
      <trkpt lat="43.89977" lon="5.71039">
        <ele>554.16</ele>
        <time>2015-04-21T07:12:13Z</time>
      </trkpt>
      <trkpt lat="43.8991" lon="5.70978">
        <ele>554.5</ele>
        <time>2015-04-21T07:12:26Z</time>
      </trkpt>
      <trkpt lat="43.89833" lon="5.7089">
        <ele>554.8</ele>
        <time>2015-04-21T07:12:42Z</time>
      </trkpt>
      <trkpt lat="43.89776" lon="5.70791">
        <ele>558.07</ele>
        <time>2015-04-21T07:12:58Z</time>
      </trkpt>
      <trkpt lat="43.89719" lon="5.70732">
        <ele>559.15</ele>
        <time>2015-04-21T07:13:12Z</time>
      </trkpt>
      <trkpt lat="43.89639" lon="5.70669">
        <ele>556.12</ele>
        <time>2015-04-21T07:13:24Z</time>
      </trkpt>
      <trkpt lat="43.89602" lon="5.70641">
        <ele>556.9</ele>
        <time>2015-04-21T07:13:30Z</time>
      </trkpt>
      <trkpt lat="43.89535" lon="5.7062">
        <ele>559.09</ele>
        <time>2015-04-21T07:13:43Z</time>
      </trkpt>
      <trkpt lat="43.89458" lon="5.70607">
        <ele>558.73</ele>
        <time>2015-04-21T07:13:56Z</time>
      </trkpt>
      <trkpt lat="43.89437" lon="5.70604">
        <ele>558.99</ele>
        <time>2015-04-21T07:13:59Z</time>
      </trkpt>
      <trkpt lat="43.89345" lon="5.7061">
        <ele>559.87</ele>
        <time>2015-04-21T07:14:13Z</time>
      </trkpt>
      <trkpt lat="43.89315" lon="5.70596">
        <ele>559.75</ele>
        <time>2015-04-21T07:14:18Z</time>
      </trkpt>
      <trkpt lat="43.89244" lon="5.70585">
        <ele>561.34</ele>
        <time>2015-04-21T07:14:30Z</time>
      </trkpt>
      <trkpt lat="43.89149" lon="5.70618">
        <ele>564.06</ele>
        <time>2015-04-21T07:14:48Z</time>
      </trkpt>
      <trkpt lat="43.89074" lon="5.70624">
        <ele>567.31</ele>
        <time>2015-04-21T07:15:03Z</time>
      </trkpt>
      <trkpt lat="43.89039" lon="5.70636">
        <ele>569.83</ele>
        <time>2015-04-21T07:15:12Z</time>
      </trkpt>
      <trkpt lat="43.89018" lon="5.70645">
        <ele>571.36</ele>
        <time>2015-04-21T07:15:17Z</time>
      </trkpt>
      <trkpt lat="43.88977" lon="5.70663">
        <ele>573.22</ele>
        <time>2015-04-21T07:15:29Z</time>
      </trkpt>
      <trkpt lat="43.88952" lon="5.70735">
        <ele>571.86</ele>
        <time>2015-04-21T07:15:40Z</time>
      </trkpt>
      <trkpt lat="43.88943" lon="5.70758">
        <ele>571.62</ele>
        <time>2015-04-21T07:15:43Z</time>
      </trkpt>
      <trkpt lat="43.88905" lon="5.70799">
        <ele>569.7</ele>
        <time>2015-04-21T07:15:49Z</time>
      </trkpt>
      <trkpt lat="43.88855" lon="5.70817">
        <ele>564.99</ele>
        <time>2015-04-21T07:15:54Z</time>
      </trkpt>
      <trkpt lat="43.88844" lon="5.70821">
        <ele>563.87</ele>
        <time>2015-04-21T07:15:55Z</time>
      </trkpt>
      <trkpt lat="43.88798" lon="5.70828">
        <ele>559.6</ele>
        <time>2015-04-21T07:15:59Z</time>
      </trkpt>
      <trkpt lat="43.88763" lon="5.70837">
        <ele>555.86</ele>
        <time>2015-04-21T07:16:02Z</time>
      </trkpt>
      <trkpt lat="43.88752" lon="5.7084">
        <ele>554.5</ele>
        <time>2015-04-21T07:16:03Z</time>
      </trkpt>
      <trkpt lat="43.88708" lon="5.70842">
        <ele>549.99</ele>
        <time>2015-04-21T07:16:07Z</time>
      </trkpt>
      <trkpt lat="43.88663" lon="5.70874">
        <ele>545.68</ele>
        <time>2015-04-21T07:16:12Z</time>
      </trkpt>
      <trkpt lat="43.88639" lon="5.70924">
        <ele>539.64</ele>
        <time>2015-04-21T07:16:17Z</time>
      </trkpt>
      <trkpt lat="43.88641" lon="5.70949">
        <ele>538.79</ele>
        <time>2015-04-21T07:16:19Z</time>
      </trkpt>
      <trkpt lat="43.88644" lon="5.71022">
        <ele>534.84</ele>
        <time>2015-04-21T07:16:24Z</time>
      </trkpt>
      <trkpt lat="43.88648" lon="5.71076">
        <ele>530.88</ele>
        <time>2015-04-21T07:16:27Z</time>
      </trkpt>
      <trkpt lat="43.88649" lon="5.71092">
        <ele>529.39</ele>
        <time>2015-04-21T07:16:28Z</time>
      </trkpt>
      <trkpt lat="43.8864" lon="5.71168">
        <ele>524.94</ele>
        <time>2015-04-21T07:16:32Z</time>
      </trkpt>
      <trkpt lat="43.88628" lon="5.71226">
        <ele>521.16</ele>
        <time>2015-04-21T07:16:35Z</time>
      </trkpt>
      <trkpt lat="43.88622" lon="5.71263">
        <ele>517.59</ele>
        <time>2015-04-21T07:16:37Z</time>
      </trkpt>
      <trkpt lat="43.88617" lon="5.7128">
        <ele>515.38</ele>
        <time>2015-04-21T07:16:38Z</time>
      </trkpt>
      <trkpt lat="43.88597" lon="5.71325">
        <ele>509.77</ele>
        <time>2015-04-21T07:16:41Z</time>
      </trkpt>
      <trkpt lat="43.88577" lon="5.71365">
        <ele>506.41</ele>
        <time>2015-04-21T07:16:44Z</time>
      </trkpt>
      <trkpt lat="43.88562" lon="5.71413">
        <ele>503.3</ele>
        <time>2015-04-21T07:16:47Z</time>
      </trkpt>
      <trkpt lat="43.88558" lon="5.71448">
        <ele>501.78</ele>
        <time>2015-04-21T07:16:49Z</time>
      </trkpt>
      <trkpt lat="43.88553" lon="5.7152">
        <ele>497.02</ele>
        <time>2015-04-21T07:16:53Z</time>
      </trkpt>
      <trkpt lat="43.88551" lon="5.71536">
        <ele>496.21</ele>
        <time>2015-04-21T07:16:54Z</time>
      </trkpt>
      <trkpt lat="43.88547" lon="5.71567">
        <ele>494.2</ele>
        <time>2015-04-21T07:16:56Z</time>
      </trkpt>
      <trkpt lat="43.88537" lon="5.71599">
        <ele>489.54</ele>
        <time>2015-04-21T07:16:59Z</time>
      </trkpt>
      <trkpt lat="43.88531" lon="5.71617">
        <ele>485.53</ele>
        <time>2015-04-21T07:17:02Z</time>
      </trkpt>
      <trkpt lat="43.88526" lon="5.71629">
        <ele>484.09</ele>
        <time>2015-04-21T07:17:05Z</time>
      </trkpt>
      <trkpt lat="43.88523" lon="5.71634">
        <ele>484.01</ele>
        <time>2015-04-21T07:17:06Z</time>
      </trkpt>
      <trkpt lat="43.8849" lon="5.71712">
        <ele>482.42</ele>
        <time>2015-04-21T07:17:17Z</time>
      </trkpt>
      <trkpt lat="43.88447" lon="5.71803">
        <ele>479.86</ele>
        <time>2015-04-21T07:17:29Z</time>
      </trkpt>
      <trkpt lat="43.88435" lon="5.71872">
        <ele>479.74</ele>
        <time>2015-04-21T07:17:37Z</time>
      </trkpt>
      <trkpt lat="43.88423" lon="5.71913">
        <ele>478.8</ele>
        <time>2015-04-21T07:17:42Z</time>
      </trkpt>
      <trkpt lat="43.88401" lon="5.71978">
        <ele>478.06</ele>
        <time>2015-04-21T07:17:49Z</time>
      </trkpt>
      <trkpt lat="43.8837" lon="5.72039">
        <ele>473.18</ele>
        <time>2015-04-21T07:17:55Z</time>
      </trkpt>
      <trkpt lat="43.88326" lon="5.72044">
        <ele>469.54</ele>
        <time>2015-04-21T07:18:01Z</time>
      </trkpt>
      <trkpt lat="43.88307" lon="5.72016">
        <ele>468.09</ele>
        <time>2015-04-21T07:18:04Z</time>
      </trkpt>
      <trkpt lat="43.88293" lon="5.71996">
        <ele>467.5</ele>
        <time>2015-04-21T07:18:06Z</time>
      </trkpt>
      <trkpt lat="43.88266" lon="5.71973">
        <ele>466.27</ele>
        <time>2015-04-21T07:18:09Z</time>
      </trkpt>
      <trkpt lat="43.8821" lon="5.71964">
        <ele>462.9</ele>
        <time>2015-04-21T07:18:14Z</time>
      </trkpt>
      <trkpt lat="43.88187" lon="5.71966">
        <ele>461.2</ele>
        <time>2015-04-21T07:18:16Z</time>
      </trkpt>
      <trkpt lat="43.88112" lon="5.71938">
        <ele>457.56</ele>
        <time>2015-04-21T07:18:23Z</time>
      </trkpt>
      <trkpt lat="43.88071" lon="5.71925">
        <ele>454.34</ele>
        <time>2015-04-21T07:18:27Z</time>
      </trkpt>
      <trkpt lat="43.88061" lon="5.71921">
        <ele>453.41</ele>
        <time>2015-04-21T07:18:28Z</time>
      </trkpt>
      <trkpt lat="43.88028" lon="5.719">
        <ele>449.17</ele>
        <time>2015-04-21T07:18:32Z</time>
      </trkpt>
      <trkpt lat="43.8801" lon="5.71905">
        <ele>447.12</ele>
        <time>2015-04-21T07:18:36Z</time>
      </trkpt>
      <trkpt lat="43.88025" lon="5.71928">
        <ele>446.45</ele>
        <time>2015-04-21T07:18:40Z</time>
      </trkpt>
      <trkpt lat="43.88037" lon="5.71937">
        <ele>445.54</ele>
        <time>2015-04-21T07:18:42Z</time>
      </trkpt>
      <trkpt lat="43.88051" lon="5.71946">
        <ele>444.83</ele>
        <time>2015-04-21T07:18:44Z</time>
      </trkpt>
      <trkpt lat="43.88079" lon="5.71969">
        <ele>442.7</ele>
        <time>2015-04-21T07:18:48Z</time>
      </trkpt>
      <trkpt lat="43.88095" lon="5.71998">
        <ele>441.33</ele>
        <time>2015-04-21T07:18:51Z</time>
      </trkpt>
      <trkpt lat="43.88107" lon="5.72047">
        <ele>439.61</ele>
        <time>2015-04-21T07:18:55Z</time>
      </trkpt>
      <trkpt lat="43.88129" lon="5.72115">
        <ele>436.06</ele>
        <time>2015-04-21T07:19:00Z</time>
      </trkpt>
      <trkpt lat="43.8814" lon="5.72152">
        <ele>434.31</ele>
        <time>2015-04-21T07:19:03Z</time>
      </trkpt>
      <trkpt lat="43.88121" lon="5.72194">
        <ele>431.88</ele>
        <time>2015-04-21T07:19:08Z</time>
      </trkpt>
      <trkpt lat="43.88113" lon="5.72197">
        <ele>431.72</ele>
        <time>2015-04-21T07:19:09Z</time>
      </trkpt>
      <trkpt lat="43.88078" lon="5.72218">
        <ele>431.76</ele>
        <time>2015-04-21T07:19:14Z</time>
      </trkpt>
      <trkpt lat="43.88056" lon="5.72277">
        <ele>431.43</ele>
        <time>2015-04-21T07:19:21Z</time>
      </trkpt>
      <trkpt lat="43.88049" lon="5.72411">
        <ele>430.24</ele>
        <time>2015-04-21T07:19:35Z</time>
      </trkpt>
      <trkpt lat="43.88044" lon="5.72438">
        <ele>430.01</ele>
        <time>2015-04-21T07:19:38Z</time>
      </trkpt>
      <trkpt lat="43.8802" lon="5.72481">
        <ele>430.52</ele>
        <time>2015-04-21T07:19:44Z</time>
      </trkpt>
      <trkpt lat="43.87934" lon="5.72537">
        <ele>431.29</ele>
        <time>2015-04-21T07:19:58Z</time>
      </trkpt>
      <trkpt lat="43.87857" lon="5.72564">
        <ele>433</ele>
        <time>2015-04-21T07:20:12Z</time>
      </trkpt>
      <trkpt lat="43.87848" lon="5.72568">
        <ele>433.51</ele>
        <time>2015-04-21T07:20:14Z</time>
      </trkpt>
      <trkpt lat="43.87829" lon="5.7257">
        <ele>434.28</ele>
        <time>2015-04-21T07:20:18Z</time>
      </trkpt>
      <trkpt lat="43.87806" lon="5.72564">
        <ele>435.06</ele>
        <time>2015-04-21T07:20:23Z</time>
      </trkpt>
      <trkpt lat="43.87792" lon="5.72556">
        <ele>435.52</ele>
        <time>2015-04-21T07:20:26Z</time>
      </trkpt>
      <trkpt lat="43.87779" lon="5.72551">
        <ele>436.49</ele>
        <time>2015-04-21T07:20:29Z</time>
      </trkpt>
      <trkpt lat="43.87724" lon="5.72567">
        <ele>438.34</ele>
        <time>2015-04-21T07:20:41Z</time>
      </trkpt>
      <trkpt lat="43.87657" lon="5.72591">
        <ele>441.48</ele>
        <time>2015-04-21T07:20:57Z</time>
      </trkpt>
      <trkpt lat="43.87602" lon="5.72611">
        <ele>444.53</ele>
        <time>2015-04-21T07:21:11Z</time>
      </trkpt>
      <trkpt lat="43.87534" lon="5.72641">
        <ele>446.27</ele>
        <time>2015-04-21T07:21:26Z</time>
      </trkpt>
      <trkpt lat="43.8752" lon="5.72646">
        <ele>446.77</ele>
        <time>2015-04-21T07:21:29Z</time>
      </trkpt>
      <trkpt lat="43.8751" lon="5.72646">
        <ele>446.92</ele>
        <time>2015-04-21T07:21:31Z</time>
      </trkpt>
      <trkpt lat="43.87491" lon="5.72641">
        <ele>447.11</ele>
        <time>2015-04-21T07:21:35Z</time>
      </trkpt>
      <trkpt lat="43.87479" lon="5.72637">
        <ele>447.64</ele>
        <time>2015-04-21T07:21:38Z</time>
      </trkpt>
      <trkpt lat="43.87432" lon="5.72645">
        <ele>450.86</ele>
        <time>2015-04-21T07:21:51Z</time>
      </trkpt>
      <trkpt lat="43.87424" lon="5.7265">
        <ele>451.16</ele>
        <time>2015-04-21T07:21:53Z</time>
      </trkpt>
      <trkpt lat="43.87373" lon="5.72688">
        <ele>454.01</ele>
        <time>2015-04-21T07:22:07Z</time>
      </trkpt>
      <trkpt lat="43.87343" lon="5.72727">
        <ele>457.2</ele>
        <time>2015-04-21T07:22:19Z</time>
      </trkpt>
      <trkpt lat="43.87297" lon="5.72765">
        <ele>460.4</ele>
        <time>2015-04-21T07:22:32Z</time>
      </trkpt>
      <trkpt lat="43.87244" lon="5.72812">
        <ele>463.51</ele>
        <time>2015-04-21T07:22:48Z</time>
      </trkpt>
      <trkpt lat="43.87215" lon="5.72875">
        <ele>466.43</ele>
        <time>2015-04-21T07:23:03Z</time>
      </trkpt>
      <trkpt lat="43.87199" lon="5.72939">
        <ele>468.8</ele>
        <time>2015-04-21T07:23:17Z</time>
      </trkpt>
      <trkpt lat="43.87169" lon="5.72949">
        <ele>471.43</ele>
        <time>2015-04-21T07:23:26Z</time>
      </trkpt>
      <trkpt lat="43.87154" lon="5.72915">
        <ele>474.55</ele>
        <time>2015-04-21T07:23:34Z</time>
      </trkpt>
      <trkpt lat="43.8715" lon="5.72905">
        <ele>475.11</ele>
        <time>2015-04-21T07:23:36Z</time>
      </trkpt>
      <trkpt lat="43.87133" lon="5.72881">
        <ele>476.38</ele>
        <time>2015-04-21T07:23:42Z</time>
      </trkpt>
      <trkpt lat="43.8708" lon="5.72858">
        <ele>479.59</ele>
        <time>2015-04-21T07:23:56Z</time>
      </trkpt>
      <trkpt lat="43.87012" lon="5.72842">
        <ele>482.22</ele>
        <time>2015-04-21T07:24:12Z</time>
      </trkpt>
      <trkpt lat="43.86999" lon="5.72839">
        <ele>482.63</ele>
        <time>2015-04-21T07:24:15Z</time>
      </trkpt>
      <trkpt lat="43.86991" lon="5.72839">
        <ele>482.9</ele>
        <time>2015-04-21T07:24:17Z</time>
      </trkpt>
      <trkpt lat="43.86957" lon="5.72836">
        <ele>484.37</ele>
        <time>2015-04-21T07:24:25Z</time>
      </trkpt>
      <trkpt lat="43.86906" lon="5.72816">
        <ele>487.68</ele>
        <time>2015-04-21T07:24:38Z</time>
      </trkpt>
      <trkpt lat="43.86891" lon="5.72811">
        <ele>488.81</ele>
        <time>2015-04-21T07:24:42Z</time>
      </trkpt>
      <trkpt lat="43.86878" lon="5.72812">
        <ele>489.56</ele>
        <time>2015-04-21T07:24:45Z</time>
      </trkpt>
      <trkpt lat="43.86821" lon="5.72818">
        <ele>493.1</ele>
        <time>2015-04-21T07:25:00Z</time>
      </trkpt>
      <trkpt lat="43.86758" lon="5.72786">
        <ele>496.2</ele>
        <time>2015-04-21T07:25:16Z</time>
      </trkpt>
      <trkpt lat="43.86704" lon="5.72774">
        <ele>499.27</ele>
        <time>2015-04-21T07:25:30Z</time>
      </trkpt>
      <trkpt lat="43.86669" lon="5.72791">
        <ele>501.6</ele>
        <time>2015-04-21T07:25:40Z</time>
      </trkpt>
      <trkpt lat="43.86676" lon="5.7284">
        <ele>504.55</ele>
        <time>2015-04-21T07:25:50Z</time>
      </trkpt>
      <trkpt lat="43.8671" lon="5.72898">
        <ele>508</ele>
        <time>2015-04-21T07:26:04Z</time>
      </trkpt>
      <trkpt lat="43.86715" lon="5.7292">
        <ele>509</ele>
        <time>2015-04-21T07:26:09Z</time>
      </trkpt>
      <trkpt lat="43.86706" lon="5.72933">
        <ele>509.51</ele>
        <time>2015-04-21T07:26:13Z</time>
      </trkpt>
      <trkpt lat="43.86668" lon="5.72944">
        <ele>512.83</ele>
        <time>2015-04-21T07:26:24Z</time>
      </trkpt>
      <trkpt lat="43.86657" lon="5.7293">
        <ele>514.63</ele>
        <time>2015-04-21T07:26:28Z</time>
      </trkpt>
      <trkpt lat="43.86646" lon="5.72913">
        <ele>515.49</ele>
        <time>2015-04-21T07:26:32Z</time>
      </trkpt>
      <trkpt lat="43.86617" lon="5.7289">
        <ele>516.78</ele>
        <time>2015-04-21T07:26:40Z</time>
      </trkpt>
      <trkpt lat="43.8656" lon="5.72888">
        <ele>520.17</ele>
        <time>2015-04-21T07:26:53Z</time>
      </trkpt>
      <trkpt lat="43.86476" lon="5.72899">
        <ele>523.23</ele>
        <time>2015-04-21T07:27:10Z</time>
      </trkpt>
      <trkpt lat="43.86405" lon="5.72904">
        <ele>523.4</ele>
        <time>2015-04-21T07:27:22Z</time>
      </trkpt>
      <trkpt lat="43.86368" lon="5.72893">
        <ele>523.52</ele>
        <time>2015-04-21T07:27:28Z</time>
      </trkpt>
      <trkpt lat="43.86308" lon="5.7284">
        <ele>526.29</ele>
        <time>2015-04-21T07:27:43Z</time>
      </trkpt>
      <trkpt lat="43.86265" lon="5.72802">
        <ele>529.12</ele>
        <time>2015-04-21T07:27:55Z</time>
      </trkpt>
      <trkpt lat="43.86255" lon="5.72791">
        <ele>529.96</ele>
        <time>2015-04-21T07:27:58Z</time>
      </trkpt>
      <trkpt lat="43.86232" lon="5.72777">
        <ele>531.54</ele>
        <time>2015-04-21T07:28:04Z</time>
      </trkpt>
      <trkpt lat="43.862" lon="5.72768">
        <ele>533.21</ele>
        <time>2015-04-21T07:28:11Z</time>
      </trkpt>
      <trkpt lat="43.86183" lon="5.72757">
        <ele>534.22</ele>
        <time>2015-04-21T07:28:15Z</time>
      </trkpt>
      <trkpt lat="43.86155" lon="5.72754">
        <ele>535.86</ele>
        <time>2015-04-21T07:28:21Z</time>
      </trkpt>
      <trkpt lat="43.86098" lon="5.72774">
        <ele>539.37</ele>
        <time>2015-04-21T07:28:34Z</time>
      </trkpt>
      <trkpt lat="43.86048" lon="5.72773">
        <ele>542.49</ele>
        <time>2015-04-21T07:28:46Z</time>
      </trkpt>
      <trkpt lat="43.85985" lon="5.72781">
        <ele>545.96</ele>
        <time>2015-04-21T07:29:01Z</time>
      </trkpt>
      <trkpt lat="43.8593" lon="5.72798">
        <ele>549.14</ele>
        <time>2015-04-21T07:29:15Z</time>
      </trkpt>
      <trkpt lat="43.85926" lon="5.728">
        <ele>549.33</ele>
        <time>2015-04-21T07:29:16Z</time>
      </trkpt>
      <trkpt lat="43.85865" lon="5.72805">
        <ele>552.86</ele>
        <time>2015-04-21T07:29:29Z</time>
      </trkpt>
      <trkpt lat="43.85803" lon="5.72798">
        <ele>556.06</ele>
        <time>2015-04-21T07:29:44Z</time>
      </trkpt>
      <trkpt lat="43.85752" lon="5.72799">
        <ele>559.15</ele>
        <time>2015-04-21T07:29:56Z</time>
      </trkpt>
      <trkpt lat="43.85711" lon="5.72793">
        <ele>561.75</ele>
        <time>2015-04-21T07:30:06Z</time>
      </trkpt>
      <trkpt lat="43.85649" lon="5.72798">
        <ele>565.07</ele>
        <time>2015-04-21T07:30:21Z</time>
      </trkpt>
      <trkpt lat="43.856" lon="5.72805">
        <ele>567.75</ele>
        <time>2015-04-21T07:30:33Z</time>
      </trkpt>
      <trkpt lat="43.85578" lon="5.72811">
        <ele>569.34</ele>
        <time>2015-04-21T07:30:38Z</time>
      </trkpt>
      <trkpt lat="43.8551" lon="5.72814">
        <ele>572.55</ele>
        <time>2015-04-21T07:30:53Z</time>
      </trkpt>
      <trkpt lat="43.85451" lon="5.72838">
        <ele>575.66</ele>
        <time>2015-04-21T07:31:07Z</time>
      </trkpt>
      <trkpt lat="43.85391" lon="5.72849">
        <ele>578.81</ele>
        <time>2015-04-21T07:31:18Z</time>
      </trkpt>
      <trkpt lat="43.8531" lon="5.72855">
        <ele>580.48</ele>
        <time>2015-04-21T07:31:35Z</time>
      </trkpt>
      <trkpt lat="43.8529" lon="5.72857">
        <ele>580.4</ele>
        <time>2015-04-21T07:31:39Z</time>
      </trkpt>
      <trkpt lat="43.85277" lon="5.72829">
        <ele>580.33</ele>
        <time>2015-04-21T07:31:45Z</time>
      </trkpt>
      <trkpt lat="43.85279" lon="5.72822">
        <ele>580.39</ele>
        <time>2015-04-21T07:31:46Z</time>
      </trkpt>
      <trkpt lat="43.85296" lon="5.72755">
        <ele>581.02</ele>
        <time>2015-04-21T07:31:56Z</time>
      </trkpt>
      <trkpt lat="43.85284" lon="5.72695">
        <ele>582.84</ele>
        <time>2015-04-21T07:32:07Z</time>
      </trkpt>
      <trkpt lat="43.8524" lon="5.72646">
        <ele>586.33</ele>
        <time>2015-04-21T07:32:21Z</time>
      </trkpt>
      <trkpt lat="43.85242" lon="5.72613">
        <ele>588.87</ele>
        <time>2015-04-21T07:32:29Z</time>
      </trkpt>
      <trkpt lat="43.85277" lon="5.72612">
        <ele>591.95</ele>
        <time>2015-04-21T07:32:39Z</time>
      </trkpt>
      <trkpt lat="43.85294" lon="5.7257">
        <ele>594.39</ele>
        <time>2015-04-21T07:32:49Z</time>
      </trkpt>
      <trkpt lat="43.85292" lon="5.72554">
        <ele>594.57</ele>
        <time>2015-04-21T07:32:52Z</time>
      </trkpt>
      <trkpt lat="43.85271" lon="5.72525">
        <ele>596.44</ele>
        <time>2015-04-21T07:32:59Z</time>
      </trkpt>
      <trkpt lat="43.85225" lon="5.72501">
        <ele>598.36</ele>
        <time>2015-04-21T07:33:10Z</time>
      </trkpt>
      <trkpt lat="43.85215" lon="5.7249">
        <ele>599.04</ele>
        <time>2015-04-21T07:33:13Z</time>
      </trkpt>
      <trkpt lat="43.85194" lon="5.72423">
        <ele>601.15</ele>
        <time>2015-04-21T07:33:26Z</time>
      </trkpt>
      <trkpt lat="43.85189" lon="5.72391">
        <ele>601.96</ele>
        <time>2015-04-21T07:33:32Z</time>
      </trkpt>
      <trkpt lat="43.8521" lon="5.72343">
        <ele>604.65</ele>
        <time>2015-04-21T07:33:43Z</time>
      </trkpt>
      <trkpt lat="43.85219" lon="5.7234">
        <ele>605.7</ele>
        <time>2015-04-21T07:33:46Z</time>
      </trkpt>
      <trkpt lat="43.8526" lon="5.72354">
        <ele>609.23</ele>
        <time>2015-04-21T07:33:58Z</time>
      </trkpt>
      <trkpt lat="43.85312" lon="5.72366">
        <ele>611.7</ele>
        <time>2015-04-21T07:34:13Z</time>
      </trkpt>
      <trkpt lat="43.8537" lon="5.7235">
        <ele>614.79</ele>
        <time>2015-04-21T07:34:29Z</time>
      </trkpt>
      <trkpt lat="43.85409" lon="5.72313">
        <ele>616.53</ele>
        <time>2015-04-21T07:34:41Z</time>
      </trkpt>
      <trkpt lat="43.85442" lon="5.72272">
        <ele>619.59</ele>
        <time>2015-04-21T07:34:52Z</time>
      </trkpt>
      <trkpt lat="43.85478" lon="5.72227">
        <ele>622.65</ele>
        <time>2015-04-21T07:35:05Z</time>
      </trkpt>
      <trkpt lat="43.8552" lon="5.72196">
        <ele>625.74</ele>
        <time>2015-04-21T07:35:18Z</time>
      </trkpt>
      <trkpt lat="43.85546" lon="5.72146">
        <ele>627.47</ele>
        <time>2015-04-21T07:35:30Z</time>
      </trkpt>
      <trkpt lat="43.85568" lon="5.72066">
        <ele>630.49</ele>
        <time>2015-04-21T07:35:46Z</time>
      </trkpt>
      <trkpt lat="43.85569" lon="5.72061">
        <ele>630.71</ele>
        <time>2015-04-21T07:35:47Z</time>
      </trkpt>
      <trkpt lat="43.85567" lon="5.71994">
        <ele>633.44</ele>
        <time>2015-04-21T07:36:00Z</time>
      </trkpt>
      <trkpt lat="43.85603" lon="5.71955">
        <ele>636.2</ele>
        <time>2015-04-21T07:36:12Z</time>
      </trkpt>
      <trkpt lat="43.85622" lon="5.71934">
        <ele>637.9</ele>
        <time>2015-04-21T07:36:18Z</time>
      </trkpt>
      <trkpt lat="43.85635" lon="5.71914">
        <ele>639.47</ele>
        <time>2015-04-21T07:36:22Z</time>
      </trkpt>
      <trkpt lat="43.85665" lon="5.71836">
        <ele>642.25</ele>
        <time>2015-04-21T07:36:37Z</time>
      </trkpt>
      <trkpt lat="43.85697" lon="5.71774">
        <ele>645.3</ele>
        <time>2015-04-21T07:36:51Z</time>
      </trkpt>
      <trkpt lat="43.85735" lon="5.71704">
        <ele>648.5</ele>
        <time>2015-04-21T07:37:07Z</time>
      </trkpt>
      <trkpt lat="43.85755" lon="5.71635">
        <ele>651.66</ele>
        <time>2015-04-21T07:37:21Z</time>
      </trkpt>
      <trkpt lat="43.85767" lon="5.71563">
        <ele>654.68</ele>
        <time>2015-04-21T07:37:35Z</time>
      </trkpt>
      <trkpt lat="43.85781" lon="5.71493">
        <ele>657.09</ele>
        <time>2015-04-21T07:37:48Z</time>
      </trkpt>
      <trkpt lat="43.85784" lon="5.71481">
        <ele>657.49</ele>
        <time>2015-04-21T07:37:50Z</time>
      </trkpt>
      <trkpt lat="43.85823" lon="5.71406">
        <ele>659.81</ele>
        <time>2015-04-21T07:38:04Z</time>
      </trkpt>
      <trkpt lat="43.85826" lon="5.71401">
        <ele>660.02</ele>
        <time>2015-04-21T07:38:05Z</time>
      </trkpt>
      <trkpt lat="43.85841" lon="5.71387">
        <ele>660.78</ele>
        <time>2015-04-21T07:38:09Z</time>
      </trkpt>
      <trkpt lat="43.85894" lon="5.7136">
        <ele>660.13</ele>
        <time>2015-04-21T07:38:20Z</time>
      </trkpt>
      <trkpt lat="43.85905" lon="5.71321">
        <ele>659.61</ele>
        <time>2015-04-21T07:38:27Z</time>
      </trkpt>
      <trkpt lat="43.85899" lon="5.71309">
        <ele>659.21</ele>
        <time>2015-04-21T07:38:30Z</time>
      </trkpt>
      <trkpt lat="43.85878" lon="5.71294">
        <ele>656.36</ele>
        <time>2015-04-21T07:38:40Z</time>
      </trkpt>
      <trkpt lat="43.85878" lon="5.71297">
        <ele>656.13</ele>
        <time>2015-04-21T07:39:11Z</time>
      </trkpt>
      <trkpt lat="43.85875" lon="5.71295">
        <ele>655.92</ele>
        <time>2015-04-21T07:39:42Z</time>
      </trkpt>
      <trkpt lat="43.85874" lon="5.713">
        <ele>655.14</ele>
        <time>2015-04-21T07:40:00Z</time>
      </trkpt>
      <trkpt lat="43.85873" lon="5.71294">
        <ele>656.05</ele>
        <time>2015-04-21T07:40:50Z</time>
      </trkpt>
      <trkpt lat="43.85866" lon="5.71287">
        <ele>655.42</ele>
        <time>2015-04-21T07:40:54Z</time>
      </trkpt>
      <trkpt lat="43.85806" lon="5.71254">
        <ele>652.61</ele>
        <time>2015-04-21T07:41:04Z</time>
      </trkpt>
      <trkpt lat="43.85773" lon="5.71177">
        <ele>648.62</ele>
        <time>2015-04-21T07:41:11Z</time>
      </trkpt>
      <trkpt lat="43.85768" lon="5.71057">
        <ele>644.78</ele>
        <time>2015-04-21T07:41:19Z</time>
      </trkpt>
      <trkpt lat="43.85767" lon="5.7102">
        <ele>643.38</ele>
        <time>2015-04-21T07:41:22Z</time>
      </trkpt>
      <trkpt lat="43.85732" lon="5.7097">
        <ele>642.2</ele>
        <time>2015-04-21T07:41:28Z</time>
      </trkpt>
      <trkpt lat="43.85714" lon="5.70958">
        <ele>641.12</ele>
        <time>2015-04-21T07:41:30Z</time>
      </trkpt>
      <trkpt lat="43.85672" lon="5.70946">
        <ele>638.83</ele>
        <time>2015-04-21T07:41:34Z</time>
      </trkpt>
      <trkpt lat="43.85638" lon="5.70947">
        <ele>637.17</ele>
        <time>2015-04-21T07:41:37Z</time>
      </trkpt>
      <trkpt lat="43.856" lon="5.70932">
        <ele>632.37</ele>
        <time>2015-04-21T07:41:41Z</time>
      </trkpt>
      <trkpt lat="43.85588" lon="5.70882">
        <ele>629.43</ele>
        <time>2015-04-21T07:41:45Z</time>
      </trkpt>
      <trkpt lat="43.85558" lon="5.70853">
        <ele>627.02</ele>
        <time>2015-04-21T07:41:49Z</time>
      </trkpt>
      <trkpt lat="43.85508" lon="5.70843">
        <ele>623.19</ele>
        <time>2015-04-21T07:41:54Z</time>
      </trkpt>
      <trkpt lat="43.85492" lon="5.70809">
        <ele>620.93</ele>
        <time>2015-04-21T07:41:57Z</time>
      </trkpt>
      <trkpt lat="43.8546" lon="5.70722">
        <ele>616.53</ele>
        <time>2015-04-21T07:42:03Z</time>
      </trkpt>
      <trkpt lat="43.85449" lon="5.7069">
        <ele>614.78</ele>
        <time>2015-04-21T07:42:05Z</time>
      </trkpt>
      <trkpt lat="43.85418" lon="5.70644">
        <ele>610.06</ele>
        <time>2015-04-21T07:42:09Z</time>
      </trkpt>
      <trkpt lat="43.85404" lon="5.70622">
        <ele>606.65</ele>
        <time>2015-04-21T07:42:12Z</time>
      </trkpt>
      <trkpt lat="43.85426" lon="5.70604">
        <ele>604.34</ele>
        <time>2015-04-21T07:42:16Z</time>
      </trkpt>
      <trkpt lat="43.85435" lon="5.70604">
        <ele>603.78</ele>
        <time>2015-04-21T07:42:17Z</time>
      </trkpt>
      <trkpt lat="43.85497" lon="5.7061">
        <ele>600.21</ele>
        <time>2015-04-21T07:42:23Z</time>
      </trkpt>
      <trkpt lat="43.85543" lon="5.70614">
        <ele>597.29</ele>
        <time>2015-04-21T07:42:27Z</time>
      </trkpt>
      <trkpt lat="43.85591" lon="5.70578">
        <ele>592.92</ele>
        <time>2015-04-21T07:42:32Z</time>
      </trkpt>
      <trkpt lat="43.85615" lon="5.70543">
        <ele>590.92</ele>
        <time>2015-04-21T07:42:35Z</time>
      </trkpt>
      <trkpt lat="43.85645" lon="5.70497">
        <ele>587.74</ele>
        <time>2015-04-21T07:42:39Z</time>
      </trkpt>
      <trkpt lat="43.85674" lon="5.70452">
        <ele>584.23</ele>
        <time>2015-04-21T07:42:43Z</time>
      </trkpt>
      <trkpt lat="43.85711" lon="5.70406">
        <ele>580.98</ele>
        <time>2015-04-21T07:42:48Z</time>
      </trkpt>
      <trkpt lat="43.8575" lon="5.70366">
        <ele>577.91</ele>
        <time>2015-04-21T07:42:54Z</time>
      </trkpt>
      <trkpt lat="43.85756" lon="5.7036">
        <ele>577.54</ele>
        <time>2015-04-21T07:42:55Z</time>
      </trkpt>
      <trkpt lat="43.85805" lon="5.70257">
        <ele>573.93</ele>
        <time>2015-04-21T07:43:06Z</time>
      </trkpt>
      <trkpt lat="43.85817" lon="5.70221">
        <ele>572.34</ele>
        <time>2015-04-21T07:43:09Z</time>
      </trkpt>
      <trkpt lat="43.85819" lon="5.7014">
        <ele>568.97</ele>
        <time>2015-04-21T07:43:17Z</time>
      </trkpt>
      <trkpt lat="43.85834" lon="5.70096">
        <ele>569.01</ele>
        <time>2015-04-21T07:43:23Z</time>
      </trkpt>
      <trkpt lat="43.8586" lon="5.70073">
        <ele>571.65</ele>
        <time>2015-04-21T07:43:34Z</time>
      </trkpt>
      <trkpt lat="43.85895" lon="5.70069">
        <ele>573.46</ele>
        <time>2015-04-21T07:43:46Z</time>
      </trkpt>
      <trkpt lat="43.85903" lon="5.7008">
        <ele>573.94</ele>
        <time>2015-04-21T07:43:50Z</time>
      </trkpt>
      <trkpt lat="43.85913" lon="5.70088">
        <ele>574.01</ele>
        <time>2015-04-21T07:43:53Z</time>
      </trkpt>
      <trkpt lat="43.85926" lon="5.70065">
        <ele>573.19</ele>
        <time>2015-04-21T07:44:00Z</time>
      </trkpt>
      <trkpt lat="43.85928" lon="5.7005">
        <ele>572.8</ele>
        <time>2015-04-21T07:44:03Z</time>
      </trkpt>
      <trkpt lat="43.85917" lon="5.69963">
        <ele>570.07</ele>
        <time>2015-04-21T07:44:14Z</time>
      </trkpt>
      <trkpt lat="43.85895" lon="5.69891">
        <ele>566.97</ele>
        <time>2015-04-21T07:44:20Z</time>
      </trkpt>
      <trkpt lat="43.85888" lon="5.69833">
        <ele>563.82</ele>
        <time>2015-04-21T07:44:24Z</time>
      </trkpt>
      <trkpt lat="43.85882" lon="5.69754">
        <ele>560.21</ele>
        <time>2015-04-21T07:44:29Z</time>
      </trkpt>
      <trkpt lat="43.85871" lon="5.69687">
        <ele>556.68</ele>
        <time>2015-04-21T07:44:33Z</time>
      </trkpt>
      <trkpt lat="43.85862" lon="5.69634">
        <ele>553.62</ele>
        <time>2015-04-21T07:44:36Z</time>
      </trkpt>
      <trkpt lat="43.85849" lon="5.69549">
        <ele>550.54</ele>
        <time>2015-04-21T07:44:41Z</time>
      </trkpt>
      <trkpt lat="43.85848" lon="5.69532">
        <ele>549.91</ele>
        <time>2015-04-21T07:44:42Z</time>
      </trkpt>
      <trkpt lat="43.85853" lon="5.6946">
        <ele>545.8</ele>
        <time>2015-04-21T07:44:46Z</time>
      </trkpt>
      <trkpt lat="43.85856" lon="5.69422">
        <ele>542.71</ele>
        <time>2015-04-21T07:44:48Z</time>
      </trkpt>
      <trkpt lat="43.85859" lon="5.69363">
        <ele>539.02</ele>
        <time>2015-04-21T07:44:51Z</time>
      </trkpt>
      <trkpt lat="43.85856" lon="5.69302">
        <ele>533.24</ele>
        <time>2015-04-21T07:44:54Z</time>
      </trkpt>
      <trkpt lat="43.85856" lon="5.69284">
        <ele>530.85</ele>
        <time>2015-04-21T07:44:55Z</time>
      </trkpt>
      <trkpt lat="43.85869" lon="5.69219">
        <ele>525.43</ele>
        <time>2015-04-21T07:44:59Z</time>
      </trkpt>
      <trkpt lat="43.85882" lon="5.6919">
        <ele>524.63</ele>
        <time>2015-04-21T07:45:01Z</time>
      </trkpt>
      <trkpt lat="43.85907" lon="5.69129">
        <ele>520.6</ele>
        <time>2015-04-21T07:45:05Z</time>
      </trkpt>
      <trkpt lat="43.85926" lon="5.6908">
        <ele>517.02</ele>
        <time>2015-04-21T07:45:08Z</time>
      </trkpt>
      <trkpt lat="43.85952" lon="5.69013">
        <ele>513.62</ele>
        <time>2015-04-21T07:45:12Z</time>
      </trkpt>
      <trkpt lat="43.85979" lon="5.68943">
        <ele>510.25</ele>
        <time>2015-04-21T07:45:16Z</time>
      </trkpt>
      <trkpt lat="43.85999" lon="5.68891">
        <ele>508.63</ele>
        <time>2015-04-21T07:45:19Z</time>
      </trkpt>
      <trkpt lat="43.86031" lon="5.68809">
        <ele>505.49</ele>
        <time>2015-04-21T07:45:24Z</time>
      </trkpt>
      <trkpt lat="43.86051" lon="5.68762">
        <ele>504.13</ele>
        <time>2015-04-21T07:45:27Z</time>
      </trkpt>
      <trkpt lat="43.86092" lon="5.6866">
        <ele>500.79</ele>
        <time>2015-04-21T07:45:34Z</time>
      </trkpt>
      <trkpt lat="43.86103" lon="5.68632">
        <ele>499.92</ele>
        <time>2015-04-21T07:45:36Z</time>
      </trkpt>
      <trkpt lat="43.86185" lon="5.68455">
        <ele>497.91</ele>
        <time>2015-04-21T07:45:51Z</time>
      </trkpt>
      <trkpt lat="43.8622" lon="5.68404">
        <ele>495.94</ele>
        <time>2015-04-21T07:45:58Z</time>
      </trkpt>
      <trkpt lat="43.86224" lon="5.68399">
        <ele>495.68</ele>
        <time>2015-04-21T07:45:59Z</time>
      </trkpt>
      <trkpt lat="43.86283" lon="5.68332">
        <ele>494.93</ele>
        <time>2015-04-21T07:46:11Z</time>
      </trkpt>
      <trkpt lat="43.86343" lon="5.68192">
        <ele>494.4</ele>
        <time>2015-04-21T07:46:28Z</time>
      </trkpt>
      <trkpt lat="43.86401" lon="5.68043">
        <ele>492</ele>
        <time>2015-04-21T07:46:43Z</time>
      </trkpt>
      <trkpt lat="43.86423" lon="5.6801">
        <ele>490.72</ele>
        <time>2015-04-21T07:46:49Z</time>
      </trkpt>
      <trkpt lat="43.86431" lon="5.67987">
        <ele>490.28</ele>
        <time>2015-04-21T07:46:53Z</time>
      </trkpt>
      <trkpt lat="43.86479" lon="5.67886">
        <ele>493.04</ele>
        <time>2015-04-21T07:47:08Z</time>
      </trkpt>
      <trkpt lat="43.86544" lon="5.67813">
        <ele>495.94</ele>
        <time>2015-04-21T07:47:25Z</time>
      </trkpt>
      <trkpt lat="43.86623" lon="5.67739">
        <ele>498.27</ele>
        <time>2015-04-21T07:47:43Z</time>
      </trkpt>
      <trkpt lat="43.86697" lon="5.67656">
        <ele>501.38</ele>
        <time>2015-04-21T07:48:01Z</time>
      </trkpt>
      <trkpt lat="43.8677" lon="5.67576">
        <ele>504.15</ele>
        <time>2015-04-21T07:48:18Z</time>
      </trkpt>
      <trkpt lat="43.86863" lon="5.6754">
        <ele>507.2</ele>
        <time>2015-04-21T07:48:36Z</time>
      </trkpt>
      <trkpt lat="43.86957" lon="5.67505">
        <ele>509.66</ele>
        <time>2015-04-21T07:48:55Z</time>
      </trkpt>
      <trkpt lat="43.87052" lon="5.67464">
        <ele>512.5</ele>
        <time>2015-04-21T07:49:14Z</time>
      </trkpt>
      <trkpt lat="43.87128" lon="5.67398">
        <ele>513.14</ele>
        <time>2015-04-21T07:49:29Z</time>
      </trkpt>
      <trkpt lat="43.8714" lon="5.6739">
        <ele>513.16</ele>
        <time>2015-04-21T07:49:31Z</time>
      </trkpt>
      <trkpt lat="43.87234" lon="5.67379">
        <ele>511.59</ele>
        <time>2015-04-21T07:49:44Z</time>
      </trkpt>
      <trkpt lat="43.87272" lon="5.67348">
        <ele>511.68</ele>
        <time>2015-04-21T07:49:51Z</time>
      </trkpt>
      <trkpt lat="43.87313" lon="5.67279">
        <ele>513.56</ele>
        <time>2015-04-21T07:50:04Z</time>
      </trkpt>
      <trkpt lat="43.87321" lon="5.67268">
        <ele>514.21</ele>
        <time>2015-04-21T07:50:06Z</time>
      </trkpt>
      <trkpt lat="43.8739" lon="5.67219">
        <ele>517.17</ele>
        <time>2015-04-21T07:50:22Z</time>
      </trkpt>
      <trkpt lat="43.87435" lon="5.67179">
        <ele>520.31</ele>
        <time>2015-04-21T07:50:35Z</time>
      </trkpt>
      <trkpt lat="43.87478" lon="5.67157">
        <ele>523.61</ele>
        <time>2015-04-21T07:50:47Z</time>
      </trkpt>
      <trkpt lat="43.87518" lon="5.67138">
        <ele>526.45</ele>
        <time>2015-04-21T07:50:58Z</time>
      </trkpt>
      <trkpt lat="43.87531" lon="5.67084">
        <ele>528.48</ele>
        <time>2015-04-21T07:51:08Z</time>
      </trkpt>
      <trkpt lat="43.87522" lon="5.6698">
        <ele>529.36</ele>
        <time>2015-04-21T07:51:23Z</time>
      </trkpt>
      <trkpt lat="43.87547" lon="5.66942">
        <ele>530.21</ele>
        <time>2015-04-21T07:51:30Z</time>
      </trkpt>
      <trkpt lat="43.87553" lon="5.66942">
        <ele>530.3</ele>
        <time>2015-04-21T07:51:31Z</time>
      </trkpt>
      <trkpt lat="43.87587" lon="5.66943">
        <ele>531.87</ele>
        <time>2015-04-21T07:51:38Z</time>
      </trkpt>
      <trkpt lat="43.87608" lon="5.66925">
        <ele>533.26</ele>
        <time>2015-04-21T07:51:44Z</time>
      </trkpt>
      <trkpt lat="43.87624" lon="5.66859">
        <ele>535.94</ele>
        <time>2015-04-21T07:51:56Z</time>
      </trkpt>
      <trkpt lat="43.87635" lon="5.66841">
        <ele>537.09</ele>
        <time>2015-04-21T07:52:00Z</time>
      </trkpt>
      <trkpt lat="43.87675" lon="5.66814">
        <ele>540.6</ele>
        <time>2015-04-21T07:52:11Z</time>
      </trkpt>
      <trkpt lat="43.87689" lon="5.66799">
        <ele>541.44</ele>
        <time>2015-04-21T07:52:15Z</time>
      </trkpt>
      <trkpt lat="43.87752" lon="5.66734">
        <ele>543.9</ele>
        <time>2015-04-21T07:52:31Z</time>
      </trkpt>
      <trkpt lat="43.87802" lon="5.66667">
        <ele>546.96</ele>
        <time>2015-04-21T07:52:46Z</time>
      </trkpt>
      <trkpt lat="43.87828" lon="5.66637">
        <ele>547.6</ele>
        <time>2015-04-21T07:52:53Z</time>
      </trkpt>
      <trkpt lat="43.87892" lon="5.66618">
        <ele>549.92</ele>
        <time>2015-04-21T07:53:06Z</time>
      </trkpt>
      <trkpt lat="43.87945" lon="5.66589">
        <ele>549.2</ele>
        <time>2015-04-21T07:53:18Z</time>
      </trkpt>
      <trkpt lat="43.87976" lon="5.6655">
        <ele>549.09</ele>
        <time>2015-04-21T07:53:26Z</time>
      </trkpt>
      <trkpt lat="43.88007" lon="5.66467">
        <ele>547.91</ele>
        <time>2015-04-21T07:53:36Z</time>
      </trkpt>
      <trkpt lat="43.88013" lon="5.66437">
        <ele>546.83</ele>
        <time>2015-04-21T07:53:39Z</time>
      </trkpt>
      <trkpt lat="43.87999" lon="5.66328">
        <ele>545.73</ele>
        <time>2015-04-21T07:53:50Z</time>
      </trkpt>
      <trkpt lat="43.87996" lon="5.66298">
        <ele>545.67</ele>
        <time>2015-04-21T07:53:53Z</time>
      </trkpt>
      <trkpt lat="43.87996" lon="5.66279">
        <ele>545.7</ele>
        <time>2015-04-21T07:53:55Z</time>
      </trkpt>
      <trkpt lat="43.88003" lon="5.66247">
        <ele>546.25</ele>
        <time>2015-04-21T07:53:59Z</time>
      </trkpt>
      <trkpt lat="43.88025" lon="5.66206">
        <ele>546.48</ele>
        <time>2015-04-21T07:54:05Z</time>
      </trkpt>
      <trkpt lat="43.8805" lon="5.66164">
        <ele>545.17</ele>
        <time>2015-04-21T07:54:11Z</time>
      </trkpt>
      <trkpt lat="43.88034" lon="5.66114">
        <ele>543.76</ele>
        <time>2015-04-21T07:54:19Z</time>
      </trkpt>
      <trkpt lat="43.88028" lon="5.66112">
        <ele>543.69</ele>
        <time>2015-04-21T07:54:20Z</time>
      </trkpt>
      <trkpt lat="43.87997" lon="5.66094">
        <ele>544.4</ele>
        <time>2015-04-21T07:54:26Z</time>
      </trkpt>
      <trkpt lat="43.87967" lon="5.66059">
        <ele>544.9</ele>
        <time>2015-04-21T07:54:33Z</time>
      </trkpt>
      <trkpt lat="43.87956" lon="5.6604">
        <ele>545.07</ele>
        <time>2015-04-21T07:54:36Z</time>
      </trkpt>
      <trkpt lat="43.87929" lon="5.65977">
        <ele>547.28</ele>
        <time>2015-04-21T07:54:47Z</time>
      </trkpt>
      <trkpt lat="43.87905" lon="5.65915">
        <ele>550.69</ele>
        <time>2015-04-21T07:54:58Z</time>
      </trkpt>
      <trkpt lat="43.87904" lon="5.6591">
        <ele>551.08</ele>
        <time>2015-04-21T07:54:59Z</time>
      </trkpt>
      <trkpt lat="43.87913" lon="5.65898">
        <ele>552.74</ele>
        <time>2015-04-21T07:55:05Z</time>
      </trkpt>
      <trkpt lat="43.87956" lon="5.65895">
        <ele>554.17</ele>
        <time>2015-04-21T07:55:16Z</time>
      </trkpt>
      <trkpt lat="43.88012" lon="5.65892">
        <ele>555.9</ele>
        <time>2015-04-21T07:55:30Z</time>
      </trkpt>
      <trkpt lat="43.88068" lon="5.65895">
        <ele>558.97</ele>
        <time>2015-04-21T07:55:45Z</time>
      </trkpt>
      <trkpt lat="43.88104" lon="5.65913">
        <ele>561.81</ele>
        <time>2015-04-21T07:55:56Z</time>
      </trkpt>
      <trkpt lat="43.88108" lon="5.65917">
        <ele>562.07</ele>
        <time>2015-04-21T07:55:57Z</time>
      </trkpt>
      <trkpt lat="43.88159" lon="5.65982">
        <ele>565.07</ele>
        <time>2015-04-21T07:56:13Z</time>
      </trkpt>
      <trkpt lat="43.88177" lon="5.65996">
        <ele>566.4</ele>
        <time>2015-04-21T07:56:18Z</time>
      </trkpt>
      <trkpt lat="43.88193" lon="5.66">
        <ele>566.8</ele>
        <time>2015-04-21T07:56:22Z</time>
      </trkpt>
      <trkpt lat="43.88216" lon="5.65997">
        <ele>567.65</ele>
        <time>2015-04-21T07:56:28Z</time>
      </trkpt>
      <trkpt lat="43.88262" lon="5.65977">
        <ele>570.12</ele>
        <time>2015-04-21T07:56:41Z</time>
      </trkpt>
      <trkpt lat="43.88276" lon="5.66008">
        <ele>571.83</ele>
        <time>2015-04-21T07:56:48Z</time>
      </trkpt>
      <trkpt lat="43.88273" lon="5.66027">
        <ele>572.37</ele>
        <time>2015-04-21T07:56:51Z</time>
      </trkpt>
      <trkpt lat="43.88276" lon="5.66054">
        <ele>573.61</ele>
        <time>2015-04-21T07:56:56Z</time>
      </trkpt>
      <trkpt lat="43.88302" lon="5.66121">
        <ele>576.66</ele>
        <time>2015-04-21T07:57:10Z</time>
      </trkpt>
      <trkpt lat="43.88341" lon="5.66153">
        <ele>579.07</ele>
        <time>2015-04-21T07:57:23Z</time>
      </trkpt>
      <trkpt lat="43.88369" lon="5.66204">
        <ele>582.11</ele>
        <time>2015-04-21T07:57:35Z</time>
      </trkpt>
      <trkpt lat="43.88393" lon="5.66268">
        <ele>584.99</ele>
        <time>2015-04-21T07:57:49Z</time>
      </trkpt>
      <trkpt lat="43.88423" lon="5.66349">
        <ele>588.17</ele>
        <time>2015-04-21T07:58:05Z</time>
      </trkpt>
      <trkpt lat="43.88455" lon="5.66417">
        <ele>590.48</ele>
        <time>2015-04-21T07:58:19Z</time>
      </trkpt>
      <trkpt lat="43.885" lon="5.66453">
        <ele>593.3</ele>
        <time>2015-04-21T07:58:33Z</time>
      </trkpt>
      <trkpt lat="43.88543" lon="5.66481">
        <ele>596.46</ele>
        <time>2015-04-21T07:58:47Z</time>
      </trkpt>
      <trkpt lat="43.88585" lon="5.66507">
        <ele>599.64</ele>
        <time>2015-04-21T07:59:00Z</time>
      </trkpt>
      <trkpt lat="43.88631" lon="5.66536">
        <ele>602.83</ele>
        <time>2015-04-21T07:59:14Z</time>
      </trkpt>
      <trkpt lat="43.88683" lon="5.66538">
        <ele>605.76</ele>
        <time>2015-04-21T07:59:27Z</time>
      </trkpt>
      <trkpt lat="43.88727" lon="5.66529">
        <ele>608.85</ele>
        <time>2015-04-21T07:59:39Z</time>
      </trkpt>
      <trkpt lat="43.8879" lon="5.66508">
        <ele>611.5</ele>
        <time>2015-04-21T07:59:55Z</time>
      </trkpt>
      <trkpt lat="43.88835" lon="5.66471">
        <ele>613.15</ele>
        <time>2015-04-21T08:00:08Z</time>
      </trkpt>
      <trkpt lat="43.88863" lon="5.66424">
        <ele>615.38</ele>
        <time>2015-04-21T08:00:19Z</time>
      </trkpt>
      <trkpt lat="43.889" lon="5.66364">
        <ele>618.64</ele>
        <time>2015-04-21T08:00:34Z</time>
      </trkpt>
      <trkpt lat="43.88927" lon="5.66314">
        <ele>621.83</ele>
        <time>2015-04-21T08:00:47Z</time>
      </trkpt>
      <trkpt lat="43.88958" lon="5.66262">
        <ele>624.84</ele>
        <time>2015-04-21T08:01:00Z</time>
      </trkpt>
      <trkpt lat="43.88989" lon="5.66211">
        <ele>627.92</ele>
        <time>2015-04-21T08:01:13Z</time>
      </trkpt>
      <trkpt lat="43.89018" lon="5.66161">
        <ele>630.99</ele>
        <time>2015-04-21T08:01:26Z</time>
      </trkpt>
      <trkpt lat="43.89051" lon="5.66112">
        <ele>634.11</ele>
        <time>2015-04-21T08:01:39Z</time>
      </trkpt>
      <trkpt lat="43.89086" lon="5.66055">
        <ele>637.18</ele>
        <time>2015-04-21T08:01:53Z</time>
      </trkpt>
      <trkpt lat="43.8912" lon="5.66">
        <ele>640.35</ele>
        <time>2015-04-21T08:02:07Z</time>
      </trkpt>
      <trkpt lat="43.89164" lon="5.65966">
        <ele>643.48</ele>
        <time>2015-04-21T08:02:21Z</time>
      </trkpt>
      <trkpt lat="43.89207" lon="5.6594">
        <ele>646.69</ele>
        <time>2015-04-21T08:02:35Z</time>
      </trkpt>
      <trkpt lat="43.8925" lon="5.65909">
        <ele>649.57</ele>
        <time>2015-04-21T08:02:48Z</time>
      </trkpt>
      <trkpt lat="43.89284" lon="5.65855">
        <ele>652.64</ele>
        <time>2015-04-21T08:03:02Z</time>
      </trkpt>
      <trkpt lat="43.89322" lon="5.65791">
        <ele>655.72</ele>
        <time>2015-04-21T08:03:16Z</time>
      </trkpt>
      <trkpt lat="43.89359" lon="5.65729">
        <ele>658.85</ele>
        <time>2015-04-21T08:03:30Z</time>
      </trkpt>
      <trkpt lat="43.89397" lon="5.65663">
        <ele>662.06</ele>
        <time>2015-04-21T08:03:45Z</time>
      </trkpt>
      <trkpt lat="43.89432" lon="5.65603">
        <ele>665.15</ele>
        <time>2015-04-21T08:03:59Z</time>
      </trkpt>
      <trkpt lat="43.89434" lon="5.65599">
        <ele>665.36</ele>
        <time>2015-04-21T08:04:00Z</time>
      </trkpt>
      <trkpt lat="43.8945" lon="5.65513">
        <ele>668.57</ele>
        <time>2015-04-21T08:04:15Z</time>
      </trkpt>
      <trkpt lat="43.89455" lon="5.65465">
        <ele>670.09</ele>
        <time>2015-04-21T08:04:24Z</time>
      </trkpt>
      <trkpt lat="43.89489" lon="5.65436">
        <ele>671.82</ele>
        <time>2015-04-21T08:04:34Z</time>
      </trkpt>
      <trkpt lat="43.89499" lon="5.65442">
        <ele>672.43</ele>
        <time>2015-04-21T08:04:37Z</time>
      </trkpt>
      <trkpt lat="43.89538" lon="5.65485">
        <ele>675.39</ele>
        <time>2015-04-21T08:04:51Z</time>
      </trkpt>
      <trkpt lat="43.89548" lon="5.65504">
        <ele>676.42</ele>
        <time>2015-04-21T08:04:56Z</time>
      </trkpt>
      <trkpt lat="43.8957" lon="5.65518">
        <ele>677.66</ele>
        <time>2015-04-21T08:05:02Z</time>
      </trkpt>
      <trkpt lat="43.89629" lon="5.65519">
        <ele>680.86</ele>
        <time>2015-04-21T08:05:17Z</time>
      </trkpt>
      <trkpt lat="43.89684" lon="5.65501">
        <ele>683.93</ele>
        <time>2015-04-21T08:05:32Z</time>
      </trkpt>
      <trkpt lat="43.89728" lon="5.65471">
        <ele>686.73</ele>
        <time>2015-04-21T08:05:45Z</time>
      </trkpt>
      <trkpt lat="43.89779" lon="5.65436">
        <ele>689.95</ele>
        <time>2015-04-21T08:05:59Z</time>
      </trkpt>
      <trkpt lat="43.89796" lon="5.65425">
        <ele>691.39</ele>
        <time>2015-04-21T08:06:03Z</time>
      </trkpt>
      <trkpt lat="43.89805" lon="5.65421">
        <ele>691.71</ele>
        <time>2015-04-21T08:06:05Z</time>
      </trkpt>
      <trkpt lat="43.89821" lon="5.65443">
        <ele>692.96</ele>
        <time>2015-04-21T08:06:11Z</time>
      </trkpt>
      <trkpt lat="43.8983" lon="5.65528">
        <ele>696.44</ele>
        <time>2015-04-21T08:06:27Z</time>
      </trkpt>
      <trkpt lat="43.89856" lon="5.65593">
        <ele>698.48</ele>
        <time>2015-04-21T08:06:41Z</time>
      </trkpt>
      <trkpt lat="43.89874" lon="5.65636">
        <ele>700.5</ele>
        <time>2015-04-21T08:06:50Z</time>
      </trkpt>
      <trkpt lat="43.8992" lon="5.65686">
        <ele>702.78</ele>
        <time>2015-04-21T08:07:04Z</time>
      </trkpt>
      <trkpt lat="43.89965" lon="5.65729">
        <ele>705.52</ele>
        <time>2015-04-21T08:07:18Z</time>
      </trkpt>
      <trkpt lat="43.90025" lon="5.65744">
        <ele>708.47</ele>
        <time>2015-04-21T08:07:31Z</time>
      </trkpt>
      <trkpt lat="43.90092" lon="5.6575">
        <ele>711.15</ele>
        <time>2015-04-21T08:07:47Z</time>
      </trkpt>
      <trkpt lat="43.90152" lon="5.65746">
        <ele>714.32</ele>
        <time>2015-04-21T08:08:02Z</time>
      </trkpt>
      <trkpt lat="43.90164" lon="5.65742">
        <ele>714.9</ele>
        <time>2015-04-21T08:08:05Z</time>
      </trkpt>
      <trkpt lat="43.90176" lon="5.65736">
        <ele>715.52</ele>
        <time>2015-04-21T08:08:08Z</time>
      </trkpt>
      <trkpt lat="43.90229" lon="5.65692">
        <ele>718.91</ele>
        <time>2015-04-21T08:08:22Z</time>
      </trkpt>
      <trkpt lat="43.90279" lon="5.6565">
        <ele>722.06</ele>
        <time>2015-04-21T08:08:36Z</time>
      </trkpt>
      <trkpt lat="43.90326" lon="5.6561">
        <ele>724.99</ele>
        <time>2015-04-21T08:08:49Z</time>
      </trkpt>
      <trkpt lat="43.90375" lon="5.65582">
        <ele>727.94</ele>
        <time>2015-04-21T08:09:02Z</time>
      </trkpt>
      <trkpt lat="43.90432" lon="5.6557">
        <ele>731.07</ele>
        <time>2015-04-21T08:09:16Z</time>
      </trkpt>
      <trkpt lat="43.90473" lon="5.65561">
        <ele>732.87</ele>
        <time>2015-04-21T08:09:26Z</time>
      </trkpt>
      <trkpt lat="43.9049" lon="5.65556">
        <ele>733.7</ele>
        <time>2015-04-21T08:09:30Z</time>
      </trkpt>
      <trkpt lat="43.90539" lon="5.65544">
        <ele>736.41</ele>
        <time>2015-04-21T08:09:41Z</time>
      </trkpt>
      <trkpt lat="43.90556" lon="5.65543">
        <ele>737.4</ele>
        <time>2015-04-21T08:09:45Z</time>
      </trkpt>
      <trkpt lat="43.90574" lon="5.65551">
        <ele>738.32</ele>
        <time>2015-04-21T08:09:49Z</time>
      </trkpt>
      <trkpt lat="43.90621" lon="5.65587">
        <ele>741.14</ele>
        <time>2015-04-21T08:10:02Z</time>
      </trkpt>
      <trkpt lat="43.90662" lon="5.65595">
        <ele>742.71</ele>
        <time>2015-04-21T08:10:11Z</time>
      </trkpt>
      <trkpt lat="43.90681" lon="5.6559">
        <ele>743.67</ele>
        <time>2015-04-21T08:10:15Z</time>
      </trkpt>
      <trkpt lat="43.90739" lon="5.65553">
        <ele>745.93</ele>
        <time>2015-04-21T08:10:29Z</time>
      </trkpt>
      <trkpt lat="43.90804" lon="5.65509">
        <ele>748.78</ele>
        <time>2015-04-21T08:10:45Z</time>
      </trkpt>
      <trkpt lat="43.90826" lon="5.65493">
        <ele>749.78</ele>
        <time>2015-04-21T08:10:51Z</time>
      </trkpt>
      <trkpt lat="43.9088" lon="5.65453">
        <ele>751.6</ele>
        <time>2015-04-21T08:11:03Z</time>
      </trkpt>
      <trkpt lat="43.90948" lon="5.65426">
        <ele>753.71</ele>
        <time>2015-04-21T08:11:18Z</time>
      </trkpt>
      <trkpt lat="43.91028" lon="5.65401">
        <ele>756.34</ele>
        <time>2015-04-21T08:11:36Z</time>
      </trkpt>
      <trkpt lat="43.91093" lon="5.6538">
        <ele>758.81</ele>
        <time>2015-04-21T08:11:51Z</time>
      </trkpt>
      <trkpt lat="43.9112" lon="5.65372">
        <ele>759.69</ele>
        <time>2015-04-21T08:11:57Z</time>
      </trkpt>
      <trkpt lat="43.91172" lon="5.65354">
        <ele>760.4</ele>
        <time>2015-04-21T08:12:08Z</time>
      </trkpt>
      <trkpt lat="43.91198" lon="5.65377">
        <ele>759.38</ele>
        <time>2015-04-21T08:12:14Z</time>
      </trkpt>
      <trkpt lat="43.91189" lon="5.65399">
        <ele>759.74</ele>
        <time>2015-04-21T08:12:17Z</time>
      </trkpt>
      <trkpt lat="43.91107" lon="5.65515">
        <ele>760.97</ele>
        <time>2015-04-21T08:12:36Z</time>
      </trkpt>
      <trkpt lat="43.91069" lon="5.65567">
        <ele>761.69</ele>
        <time>2015-04-21T08:12:45Z</time>
      </trkpt>
      <trkpt lat="43.91069" lon="5.65617">
        <ele>762.37</ele>
        <time>2015-04-21T08:12:52Z</time>
      </trkpt>
      <trkpt lat="43.91073" lon="5.65621">
        <ele>762.21</ele>
        <time>2015-04-21T08:12:53Z</time>
      </trkpt>
      <trkpt lat="43.91086" lon="5.65631">
        <ele>761.92</ele>
        <time>2015-04-21T08:12:56Z</time>
      </trkpt>
      <trkpt lat="43.91157" lon="5.65673">
        <ele>762.37</ele>
        <time>2015-04-21T08:13:12Z</time>
      </trkpt>
      <trkpt lat="43.9123" lon="5.65716">
        <ele>763.59</ele>
        <time>2015-04-21T08:13:27Z</time>
      </trkpt>
      <trkpt lat="43.91319" lon="5.65738">
        <ele>765.56</ele>
        <time>2015-04-21T08:13:42Z</time>
      </trkpt>
      <trkpt lat="43.91401" lon="5.65755">
        <ele>767.1</ele>
        <time>2015-04-21T08:13:57Z</time>
      </trkpt>
      <trkpt lat="43.91483" lon="5.6577">
        <ele>769.17</ele>
        <time>2015-04-21T08:14:12Z</time>
      </trkpt>
      <trkpt lat="43.9152" lon="5.6578">
        <ele>770.28</ele>
        <time>2015-04-21T08:14:19Z</time>
      </trkpt>
      <trkpt lat="43.91586" lon="5.6582">
        <ele>773.69</ele>
        <time>2015-04-21T08:14:33Z</time>
      </trkpt>
      <trkpt lat="43.91667" lon="5.65872">
        <ele>775.98</ele>
        <time>2015-04-21T08:14:48Z</time>
      </trkpt>
      <trkpt lat="43.91757" lon="5.65916">
        <ele>777.15</ele>
        <time>2015-04-21T08:15:04Z</time>
      </trkpt>
      <trkpt lat="43.91763" lon="5.65917">
        <ele>777.2</ele>
        <time>2015-04-21T08:15:05Z</time>
      </trkpt>
      <trkpt lat="43.91787" lon="5.65914">
        <ele>777.66</ele>
        <time>2015-04-21T08:15:09Z</time>
      </trkpt>
      <trkpt lat="43.91856" lon="5.65868">
        <ele>776.51</ele>
        <time>2015-04-21T08:15:21Z</time>
      </trkpt>
      <trkpt lat="43.91886" lon="5.65856">
        <ele>775.21</ele>
        <time>2015-04-21T08:15:25Z</time>
      </trkpt>
      <trkpt lat="43.9191" lon="5.65854">
        <ele>774.76</ele>
        <time>2015-04-21T08:15:28Z</time>
      </trkpt>
      <trkpt lat="43.91961" lon="5.65798">
        <ele>772.67</ele>
        <time>2015-04-21T08:15:35Z</time>
      </trkpt>
      <trkpt lat="43.91995" lon="5.65706">
        <ele>769.05</ele>
        <time>2015-04-21T08:15:42Z</time>
      </trkpt>
      <trkpt lat="43.92018" lon="5.65616">
        <ele>765.7</ele>
        <time>2015-04-21T08:15:48Z</time>
      </trkpt>
      <trkpt lat="43.9203" lon="5.65551">
        <ele>762.41</ele>
        <time>2015-04-21T08:15:52Z</time>
      </trkpt>
      <trkpt lat="43.92032" lon="5.65534">
        <ele>761.55</ele>
        <time>2015-04-21T08:15:53Z</time>
      </trkpt>
      <trkpt lat="43.92059" lon="5.65476">
        <ele>758.14</ele>
        <time>2015-04-21T08:15:57Z</time>
      </trkpt>
      <trkpt lat="43.92086" lon="5.65439">
        <ele>756.52</ele>
        <time>2015-04-21T08:16:00Z</time>
      </trkpt>
      <trkpt lat="43.92119" lon="5.65368">
        <ele>752.49</ele>
        <time>2015-04-21T08:16:05Z</time>
      </trkpt>
      <trkpt lat="43.92137" lon="5.65323">
        <ele>750.55</ele>
        <time>2015-04-21T08:16:08Z</time>
      </trkpt>
      <trkpt lat="43.92148" lon="5.65258">
        <ele>747.59</ele>
        <time>2015-04-21T08:16:12Z</time>
      </trkpt>
      <trkpt lat="43.92147" lon="5.65188">
        <ele>743.92</ele>
        <time>2015-04-21T08:16:16Z</time>
      </trkpt>
      <trkpt lat="43.92152" lon="5.65114">
        <ele>740.35</ele>
        <time>2015-04-21T08:16:20Z</time>
      </trkpt>
      <trkpt lat="43.92159" lon="5.6508">
        <ele>738.25</ele>
        <time>2015-04-21T08:16:22Z</time>
      </trkpt>
      <trkpt lat="43.92142" lon="5.65004">
        <ele>733.44</ele>
        <time>2015-04-21T08:16:27Z</time>
      </trkpt>
      <trkpt lat="43.92122" lon="5.64984">
        <ele>732.21</ele>
        <time>2015-04-21T08:16:29Z</time>
      </trkpt>
      <trkpt lat="43.92093" lon="5.64904">
        <ele>727.16</ele>
        <time>2015-04-21T08:16:35Z</time>
      </trkpt>
      <trkpt lat="43.92097" lon="5.64889">
        <ele>726.33</ele>
        <time>2015-04-21T08:16:36Z</time>
      </trkpt>
      <trkpt lat="43.92119" lon="5.64805">
        <ele>722.48</ele>
        <time>2015-04-21T08:16:41Z</time>
      </trkpt>
      <trkpt lat="43.9214" lon="5.6472">
        <ele>719.14</ele>
        <time>2015-04-21T08:16:46Z</time>
      </trkpt>
      <trkpt lat="43.92193" lon="5.64661">
        <ele>714.9</ele>
        <time>2015-04-21T08:16:52Z</time>
      </trkpt>
      <trkpt lat="43.92213" lon="5.64667">
        <ele>714.06</ele>
        <time>2015-04-21T08:16:54Z</time>
      </trkpt>
      <trkpt lat="43.92274" lon="5.64658">
        <ele>710.42</ele>
        <time>2015-04-21T08:17:00Z</time>
      </trkpt>
      <trkpt lat="43.92311" lon="5.64624">
        <ele>708.05</ele>
        <time>2015-04-21T08:17:04Z</time>
      </trkpt>
      <trkpt lat="43.92365" lon="5.64627">
        <ele>707.42</ele>
        <time>2015-04-21T08:17:10Z</time>
      </trkpt>
      <trkpt lat="43.92432" lon="5.64669">
        <ele>710.27</ele>
        <time>2015-04-21T08:17:23Z</time>
      </trkpt>
      <trkpt lat="43.92445" lon="5.64678">
        <ele>710.82</ele>
        <time>2015-04-21T08:17:26Z</time>
      </trkpt>
      <trkpt lat="43.92455" lon="5.64697">
        <ele>711.89</ele>
        <time>2015-04-21T08:17:30Z</time>
      </trkpt>
      <trkpt lat="43.92458" lon="5.64708">
        <ele>712.44</ele>
        <time>2015-04-21T08:17:32Z</time>
      </trkpt>
      <trkpt lat="43.92473" lon="5.6474">
        <ele>714.18</ele>
        <time>2015-04-21T08:17:37Z</time>
      </trkpt>
      <trkpt lat="43.92483" lon="5.6476">
        <ele>715.02</ele>
        <time>2015-04-21T08:17:40Z</time>
      </trkpt>
      <trkpt lat="43.92528" lon="5.64778">
        <ele>717.29</ele>
        <time>2015-04-21T08:17:49Z</time>
      </trkpt>
      <trkpt lat="43.92533" lon="5.64777">
        <ele>717.46</ele>
        <time>2015-04-21T08:17:50Z</time>
      </trkpt>
      <trkpt lat="43.92605" lon="5.64764">
        <ele>720.64</ele>
        <time>2015-04-21T08:18:05Z</time>
      </trkpt>
      <trkpt lat="43.92618" lon="5.64766">
        <ele>721.14</ele>
        <time>2015-04-21T08:18:08Z</time>
      </trkpt>
      <trkpt lat="43.92637" lon="5.64773">
        <ele>721.69</ele>
        <time>2015-04-21T08:18:12Z</time>
      </trkpt>
      <trkpt lat="43.92682" lon="5.64813">
        <ele>723.24</ele>
        <time>2015-04-21T08:18:23Z</time>
      </trkpt>
      <trkpt lat="43.92687" lon="5.64817">
        <ele>723.42</ele>
        <time>2015-04-21T08:18:24Z</time>
      </trkpt>
      <trkpt lat="43.92757" lon="5.64872">
        <ele>726.11</ele>
        <time>2015-04-21T08:18:40Z</time>
      </trkpt>
      <trkpt lat="43.92816" lon="5.64905">
        <ele>727.85</ele>
        <time>2015-04-21T08:18:53Z</time>
      </trkpt>
      <trkpt lat="43.9284" lon="5.64917">
        <ele>728.16</ele>
        <time>2015-04-21T08:18:58Z</time>
      </trkpt>
      <trkpt lat="43.92913" lon="5.64952">
        <ele>730.34</ele>
        <time>2015-04-21T08:19:11Z</time>
      </trkpt>
      <trkpt lat="43.9295" lon="5.64931">
        <ele>731.36</ele>
        <time>2015-04-21T08:19:19Z</time>
      </trkpt>
      <trkpt lat="43.92953" lon="5.64915">
        <ele>731.35</ele>
        <time>2015-04-21T08:19:21Z</time>
      </trkpt>
      <trkpt lat="43.92974" lon="5.64803">
        <ele>734.29</ele>
        <time>2015-04-21T08:19:37Z</time>
      </trkpt>
      <trkpt lat="43.92994" lon="5.64702">
        <ele>736.47</ele>
        <time>2015-04-21T08:19:53Z</time>
      </trkpt>
      <trkpt lat="43.93022" lon="5.64614">
        <ele>739.68</ele>
        <time>2015-04-21T08:20:09Z</time>
      </trkpt>
      <trkpt lat="43.93027" lon="5.64603">
        <ele>740.06</ele>
        <time>2015-04-21T08:20:11Z</time>
      </trkpt>
      <trkpt lat="43.93043" lon="5.6456">
        <ele>741.39</ele>
        <time>2015-04-21T08:20:19Z</time>
      </trkpt>
      <trkpt lat="43.93076" lon="5.64471">
        <ele>744.2</ele>
        <time>2015-04-21T08:20:35Z</time>
      </trkpt>
      <trkpt lat="43.9311" lon="5.64374">
        <ele>746.6</ele>
        <time>2015-04-21T08:20:51Z</time>
      </trkpt>
      <trkpt lat="43.93128" lon="5.64327">
        <ele>747.61</ele>
        <time>2015-04-21T08:20:59Z</time>
      </trkpt>
      <trkpt lat="43.93163" lon="5.64272">
        <ele>749.81</ele>
        <time>2015-04-21T08:21:11Z</time>
      </trkpt>
      <trkpt lat="43.93177" lon="5.64253">
        <ele>750.85</ele>
        <time>2015-04-21T08:21:15Z</time>
      </trkpt>
      <trkpt lat="43.93219" lon="5.64164">
        <ele>753.3</ele>
        <time>2015-04-21T08:21:31Z</time>
      </trkpt>
      <trkpt lat="43.93249" lon="5.64101">
        <ele>756.57</ele>
        <time>2015-04-21T08:21:44Z</time>
      </trkpt>
      <trkpt lat="43.93285" lon="5.64038">
        <ele>758.48</ele>
        <time>2015-04-21T08:21:56Z</time>
      </trkpt>
      <trkpt lat="43.93345" lon="5.63969">
        <ele>761.74</ele>
        <time>2015-04-21T08:22:12Z</time>
      </trkpt>
      <trkpt lat="43.9343" lon="5.63904">
        <ele>764.01</ele>
        <time>2015-04-21T08:22:28Z</time>
      </trkpt>
      <trkpt lat="43.93508" lon="5.63873">
        <ele>766.28</ele>
        <time>2015-04-21T08:22:42Z</time>
      </trkpt>
      <trkpt lat="43.93605" lon="5.63839">
        <ele>767.61</ele>
        <time>2015-04-21T08:22:59Z</time>
      </trkpt>
      <trkpt lat="43.93616" lon="5.63835">
        <ele>767.81</ele>
        <time>2015-04-21T08:23:01Z</time>
      </trkpt>
      <trkpt lat="43.93713" lon="5.63828">
        <ele>764.72</ele>
        <time>2015-04-21T08:23:13Z</time>
      </trkpt>
      <trkpt lat="43.93722" lon="5.63828">
        <ele>764.07</ele>
        <time>2015-04-21T08:23:14Z</time>
      </trkpt>
      <trkpt lat="43.93769" lon="5.63851">
        <ele>761.66</ele>
        <time>2015-04-21T08:23:19Z</time>
      </trkpt>
      <trkpt lat="43.93851" lon="5.63873">
        <ele>757.82</ele>
        <time>2015-04-21T08:23:27Z</time>
      </trkpt>
      <trkpt lat="43.93872" lon="5.63877">
        <ele>757.05</ele>
        <time>2015-04-21T08:23:29Z</time>
      </trkpt>
      <trkpt lat="43.93893" lon="5.63879">
        <ele>756.92</ele>
        <time>2015-04-21T08:23:31Z</time>
      </trkpt>
      <trkpt lat="43.93938" lon="5.63856">
        <ele>756.41</ele>
        <time>2015-04-21T08:23:36Z</time>
      </trkpt>
      <trkpt lat="43.93953" lon="5.6384">
        <ele>756.06</ele>
        <time>2015-04-21T08:23:38Z</time>
      </trkpt>
      <trkpt lat="43.93986" lon="5.63818">
        <ele>755.55</ele>
        <time>2015-04-21T08:23:42Z</time>
      </trkpt>
      <trkpt lat="43.94115" lon="5.63786">
        <ele>753.89</ele>
        <time>2015-04-21T08:23:57Z</time>
      </trkpt>
      <trkpt lat="43.94243" lon="5.63782">
        <ele>754.09</ele>
        <time>2015-04-21T08:24:14Z</time>
      </trkpt>
      <trkpt lat="43.94365" lon="5.6377">
        <ele>755.04</ele>
        <time>2015-04-21T08:24:31Z</time>
      </trkpt>
      <trkpt lat="43.94486" lon="5.63802">
        <ele>757.13</ele>
        <time>2015-04-21T08:24:50Z</time>
      </trkpt>
      <trkpt lat="43.94567" lon="5.63823">
        <ele>759.78</ele>
        <time>2015-04-21T08:25:06Z</time>
      </trkpt>
      <trkpt lat="43.94631" lon="5.63829">
        <ele>762.91</ele>
        <time>2015-04-21T08:25:19Z</time>
      </trkpt>
      <trkpt lat="43.94701" lon="5.63834">
        <ele>765.59</ele>
        <time>2015-04-21T08:25:33Z</time>
      </trkpt>
      <trkpt lat="43.94778" lon="5.63844">
        <ele>768.53</ele>
        <time>2015-04-21T08:25:48Z</time>
      </trkpt>
      <trkpt lat="43.9485" lon="5.63864">
        <ele>771.58</ele>
        <time>2015-04-21T08:26:02Z</time>
      </trkpt>
      <trkpt lat="43.94932" lon="5.63884">
        <ele>774.81</ele>
        <time>2015-04-21T08:26:17Z</time>
      </trkpt>
      <trkpt lat="43.95003" lon="5.63898">
        <ele>778</ele>
        <time>2015-04-21T08:26:30Z</time>
      </trkpt>
      <trkpt lat="43.95094" lon="5.63912">
        <ele>781.02</ele>
        <time>2015-04-21T08:26:48Z</time>
      </trkpt>
      <trkpt lat="43.95199" lon="5.63928">
        <ele>783.77</ele>
        <time>2015-04-21T08:27:07Z</time>
      </trkpt>
      <trkpt lat="43.95315" lon="5.63953">
        <ele>786.05</ele>
        <time>2015-04-21T08:27:26Z</time>
      </trkpt>
      <trkpt lat="43.95429" lon="5.63975">
        <ele>788.2</ele>
        <time>2015-04-21T08:27:46Z</time>
      </trkpt>
      <trkpt lat="43.95537" lon="5.63999">
        <ele>790.71</ele>
        <time>2015-04-21T08:28:06Z</time>
      </trkpt>
      <trkpt lat="43.95645" lon="5.64046">
        <ele>793.17</ele>
        <time>2015-04-21T08:28:25Z</time>
      </trkpt>
      <trkpt lat="43.95755" lon="5.64095">
        <ele>794.7</ele>
        <time>2015-04-21T08:28:45Z</time>
      </trkpt>
      <trkpt lat="43.95844" lon="5.64125">
        <ele>796.09</ele>
        <time>2015-04-21T08:29:01Z</time>
      </trkpt>
      <trkpt lat="43.95903" lon="5.64164">
        <ele>798.36</ele>
        <time>2015-04-21T08:29:13Z</time>
      </trkpt>
      <trkpt lat="43.95912" lon="5.6417">
        <ele>799.32</ele>
        <time>2015-04-21T08:29:15Z</time>
      </trkpt>
      <trkpt lat="43.95989" lon="5.64205">
        <ele>800.55</ele>
        <time>2015-04-21T08:29:29Z</time>
      </trkpt>
      <trkpt lat="43.9607" lon="5.64245">
        <ele>800.92</ele>
        <time>2015-04-21T08:29:42Z</time>
      </trkpt>
      <trkpt lat="43.96154" lon="5.64288">
        <ele>800.98</ele>
        <time>2015-04-21T08:29:55Z</time>
      </trkpt>
      <trkpt lat="43.96248" lon="5.64321">
        <ele>802.5</ele>
        <time>2015-04-21T08:30:09Z</time>
      </trkpt>
      <trkpt lat="43.96253" lon="5.64323">
        <ele>802.5</ele>
        <time>2015-04-21T08:30:10Z</time>
      </trkpt>
      <trkpt lat="43.96334" lon="5.6437">
        <ele>800.52</ele>
        <time>2015-04-21T08:30:22Z</time>
      </trkpt>
      <trkpt lat="43.9635" lon="5.64379">
        <ele>799.66</ele>
        <time>2015-04-21T08:30:24Z</time>
      </trkpt>
      <trkpt lat="43.96388" lon="5.64352">
        <ele>796.27</ele>
        <time>2015-04-21T08:30:30Z</time>
      </trkpt>
      <trkpt lat="43.96419" lon="5.6431">
        <ele>793.23</ele>
        <time>2015-04-21T08:30:35Z</time>
      </trkpt>
      <trkpt lat="43.96441" lon="5.64321">
        <ele>791.57</ele>
        <time>2015-04-21T08:30:38Z</time>
      </trkpt>
      <trkpt lat="43.96448" lon="5.64342">
        <ele>791.37</ele>
        <time>2015-04-21T08:30:40Z</time>
      </trkpt>
      <trkpt lat="43.96456" lon="5.64365">
        <ele>790.63</ele>
        <time>2015-04-21T08:30:42Z</time>
      </trkpt>
      <trkpt lat="43.96503" lon="5.64403">
        <ele>786.89</ele>
        <time>2015-04-21T08:30:48Z</time>
      </trkpt>
      <trkpt lat="43.96542" lon="5.64358">
        <ele>783.29</ele>
        <time>2015-04-21T08:30:53Z</time>
      </trkpt>
      <trkpt lat="43.96585" lon="5.64257">
        <ele>779.09</ele>
        <time>2015-04-21T08:31:00Z</time>
      </trkpt>
      <trkpt lat="43.96599" lon="5.64229">
        <ele>777.81</ele>
        <time>2015-04-21T08:31:02Z</time>
      </trkpt>
      <trkpt lat="43.96634" lon="5.64195">
        <ele>773.69</ele>
        <time>2015-04-21T08:31:06Z</time>
      </trkpt>
      <trkpt lat="43.96656" lon="5.64195">
        <ele>772.72</ele>
        <time>2015-04-21T08:31:08Z</time>
      </trkpt>
      <trkpt lat="43.96697" lon="5.64198">
        <ele>770.02</ele>
        <time>2015-04-21T08:31:12Z</time>
      </trkpt>
      <trkpt lat="43.96736" lon="5.64213">
        <ele>767.17</ele>
        <time>2015-04-21T08:31:16Z</time>
      </trkpt>
      <trkpt lat="43.96798" lon="5.64206">
        <ele>762.77</ele>
        <time>2015-04-21T08:31:23Z</time>
      </trkpt>
      <trkpt lat="43.96802" lon="5.64193">
        <ele>762.48</ele>
        <time>2015-04-21T08:31:24Z</time>
      </trkpt>
      <trkpt lat="43.96831" lon="5.64139">
        <ele>758.87</ele>
        <time>2015-04-21T08:31:29Z</time>
      </trkpt>
      <trkpt lat="43.9686" lon="5.6411">
        <ele>755.32</ele>
        <time>2015-04-21T08:31:33Z</time>
      </trkpt>
      <trkpt lat="43.96884" lon="5.64065">
        <ele>752.33</ele>
        <time>2015-04-21T08:31:38Z</time>
      </trkpt>
      <trkpt lat="43.96923" lon="5.64063">
        <ele>751.18</ele>
        <time>2015-04-21T08:31:42Z</time>
      </trkpt>
      <trkpt lat="43.96966" lon="5.6407">
        <ele>748.85</ele>
        <time>2015-04-21T08:31:46Z</time>
      </trkpt>
      <trkpt lat="43.97015" lon="5.64095">
        <ele>747.13</ele>
        <time>2015-04-21T08:31:51Z</time>
      </trkpt>
      <trkpt lat="43.97073" lon="5.64094">
        <ele>743.31</ele>
        <time>2015-04-21T08:31:57Z</time>
      </trkpt>
      <trkpt lat="43.97111" lon="5.64075">
        <ele>739.61</ele>
        <time>2015-04-21T08:32:01Z</time>
      </trkpt>
      <trkpt lat="43.97129" lon="5.64084">
        <ele>737.87</ele>
        <time>2015-04-21T08:32:03Z</time>
      </trkpt>
      <trkpt lat="43.97197" lon="5.64111">
        <ele>734.08</ele>
        <time>2015-04-21T08:32:10Z</time>
      </trkpt>
      <trkpt lat="43.97236" lon="5.64109">
        <ele>731.67</ele>
        <time>2015-04-21T08:32:15Z</time>
      </trkpt>
      <trkpt lat="43.97254" lon="5.64047">
        <ele>729.9</ele>
        <time>2015-04-21T08:32:21Z</time>
      </trkpt>
      <trkpt lat="43.97297" lon="5.64044">
        <ele>728.68</ele>
        <time>2015-04-21T08:32:26Z</time>
      </trkpt>
      <trkpt lat="43.9739" lon="5.64117">
        <ele>725.05</ele>
        <time>2015-04-21T08:32:36Z</time>
      </trkpt>
      <trkpt lat="43.97408" lon="5.64134">
        <ele>723.99</ele>
        <time>2015-04-21T08:32:38Z</time>
      </trkpt>
      <trkpt lat="43.97448" lon="5.64186">
        <ele>721.02</ele>
        <time>2015-04-21T08:32:43Z</time>
      </trkpt>
      <trkpt lat="43.97509" lon="5.64216">
        <ele>716.95</ele>
        <time>2015-04-21T08:32:49Z</time>
      </trkpt>
      <trkpt lat="43.97552" lon="5.64225">
        <ele>713.77</ele>
        <time>2015-04-21T08:32:53Z</time>
      </trkpt>
      <trkpt lat="43.97616" lon="5.64248">
        <ele>710.54</ele>
        <time>2015-04-21T08:32:59Z</time>
      </trkpt>
      <trkpt lat="43.97683" lon="5.64299">
        <ele>707.15</ele>
        <time>2015-04-21T08:33:06Z</time>
      </trkpt>
      <trkpt lat="43.9774" lon="5.64362">
        <ele>704.04</ele>
        <time>2015-04-21T08:33:13Z</time>
      </trkpt>
      <trkpt lat="43.97753" lon="5.64382">
        <ele>703.46</ele>
        <time>2015-04-21T08:33:15Z</time>
      </trkpt>
      <trkpt lat="43.97789" lon="5.64466">
        <ele>701.18</ele>
        <time>2015-04-21T08:33:22Z</time>
      </trkpt>
      <trkpt lat="43.97843" lon="5.64506">
        <ele>698.65</ele>
        <time>2015-04-21T08:33:29Z</time>
      </trkpt>
      <trkpt lat="43.97853" lon="5.64506">
        <ele>698.27</ele>
        <time>2015-04-21T08:33:30Z</time>
      </trkpt>
      <trkpt lat="43.97932" lon="5.64495">
        <ele>694.42</ele>
        <time>2015-04-21T08:33:38Z</time>
      </trkpt>
      <trkpt lat="43.98009" lon="5.64469">
        <ele>691.3</ele>
        <time>2015-04-21T08:33:45Z</time>
      </trkpt>
      <trkpt lat="43.98032" lon="5.64459">
        <ele>689.94</ele>
        <time>2015-04-21T08:33:47Z</time>
      </trkpt>
      <trkpt lat="43.98098" lon="5.64476">
        <ele>685.72</ele>
        <time>2015-04-21T08:33:53Z</time>
      </trkpt>
      <trkpt lat="43.98115" lon="5.64498">
        <ele>685.09</ele>
        <time>2015-04-21T08:33:55Z</time>
      </trkpt>
      <trkpt lat="43.98133" lon="5.64554">
        <ele>681.65</ele>
        <time>2015-04-21T08:33:59Z</time>
      </trkpt>
      <trkpt lat="43.98138" lon="5.64583">
        <ele>680.05</ele>
        <time>2015-04-21T08:34:01Z</time>
      </trkpt>
      <trkpt lat="43.98171" lon="5.6462">
        <ele>676.34</ele>
        <time>2015-04-21T08:34:06Z</time>
      </trkpt>
      <trkpt lat="43.9818" lon="5.64619">
        <ele>675.83</ele>
        <time>2015-04-21T08:34:07Z</time>
      </trkpt>
      <trkpt lat="43.98264" lon="5.64611">
        <ele>671.85</ele>
        <time>2015-04-21T08:34:15Z</time>
      </trkpt>
      <trkpt lat="43.98309" lon="5.64621">
        <ele>668.69</ele>
        <time>2015-04-21T08:34:19Z</time>
      </trkpt>
      <trkpt lat="43.98357" lon="5.64639">
        <ele>664.8</ele>
        <time>2015-04-21T08:34:23Z</time>
      </trkpt>
      <trkpt lat="43.98392" lon="5.64654">
        <ele>661.89</ele>
        <time>2015-04-21T08:34:26Z</time>
      </trkpt>
      <trkpt lat="43.98423" lon="5.64678">
        <ele>660.26</ele>
        <time>2015-04-21T08:34:29Z</time>
      </trkpt>
      <trkpt lat="43.98439" lon="5.64701">
        <ele>658.19</ele>
        <time>2015-04-21T08:34:31Z</time>
      </trkpt>
      <trkpt lat="43.98453" lon="5.64725">
        <ele>657.55</ele>
        <time>2015-04-21T08:34:33Z</time>
      </trkpt>
      <trkpt lat="43.98471" lon="5.64764">
        <ele>656.43</ele>
        <time>2015-04-21T08:34:36Z</time>
      </trkpt>
      <trkpt lat="43.98512" lon="5.64892">
        <ele>652.59</ele>
        <time>2015-04-21T08:34:46Z</time>
      </trkpt>
      <trkpt lat="43.98532" lon="5.64956">
        <ele>649.26</ele>
        <time>2015-04-21T08:34:51Z</time>
      </trkpt>
      <trkpt lat="43.9855" lon="5.65021">
        <ele>645.76</ele>
        <time>2015-04-21T08:34:57Z</time>
      </trkpt>
      <trkpt lat="43.98553" lon="5.65033">
        <ele>645.01</ele>
        <time>2015-04-21T08:34:59Z</time>
      </trkpt>
      <trkpt lat="43.98555" lon="5.65037">
        <ele>644.78</ele>
        <time>2015-04-21T08:35:00Z</time>
      </trkpt>
      <trkpt lat="43.98569" lon="5.6504">
        <ele>643.83</ele>
        <time>2015-04-21T08:35:04Z</time>
      </trkpt>
      <trkpt lat="43.9865" lon="5.65017">
        <ele>641.74</ele>
        <time>2015-04-21T08:35:18Z</time>
      </trkpt>
      <trkpt lat="43.9875" lon="5.64991">
        <ele>639.02</ele>
        <time>2015-04-21T08:35:29Z</time>
      </trkpt>
      <trkpt lat="43.98827" lon="5.64947">
        <ele>635.59</ele>
        <time>2015-04-21T08:35:36Z</time>
      </trkpt>
      <trkpt lat="43.98859" lon="5.6492">
        <ele>632.43</ele>
        <time>2015-04-21T08:35:39Z</time>
      </trkpt>
      <trkpt lat="43.98904" lon="5.64884">
        <ele>629.06</ele>
        <time>2015-04-21T08:35:43Z</time>
      </trkpt>
      <trkpt lat="43.99017" lon="5.64789">
        <ele>626.04</ele>
        <time>2015-04-21T08:35:54Z</time>
      </trkpt>
      <trkpt lat="43.99133" lon="5.64723">
        <ele>624.94</ele>
        <time>2015-04-21T08:36:06Z</time>
      </trkpt>
      <trkpt lat="43.99227" lon="5.64753">
        <ele>624.43</ele>
        <time>2015-04-21T08:36:16Z</time>
      </trkpt>
      <trkpt lat="43.99262" lon="5.64753">
        <ele>623.87</ele>
        <time>2015-04-21T08:36:20Z</time>
      </trkpt>
      <trkpt lat="43.99384" lon="5.64703">
        <ele>622.5</ele>
        <time>2015-04-21T08:36:35Z</time>
      </trkpt>
      <trkpt lat="43.99476" lon="5.64642">
        <ele>623.02</ele>
        <time>2015-04-21T08:36:47Z</time>
      </trkpt>
      <trkpt lat="43.99567" lon="5.64615">
        <ele>623.64</ele>
        <time>2015-04-21T08:36:59Z</time>
      </trkpt>
      <trkpt lat="43.99664" lon="5.64621">
        <ele>621.65</ele>
        <time>2015-04-21T08:37:10Z</time>
      </trkpt>
      <trkpt lat="43.99784" lon="5.64597">
        <ele>619.18</ele>
        <time>2015-04-21T08:37:22Z</time>
      </trkpt>
      <trkpt lat="43.99944" lon="5.64555">
        <ele>616.42</ele>
        <time>2015-04-21T08:37:39Z</time>
      </trkpt>
      <trkpt lat="44.00085" lon="5.64561">
        <ele>613.76</ele>
        <time>2015-04-21T08:37:54Z</time>
      </trkpt>
      <trkpt lat="44.00207" lon="5.64579">
        <ele>613.87</ele>
        <time>2015-04-21T08:38:07Z</time>
      </trkpt>
      <trkpt lat="44.00312" lon="5.64551">
        <ele>615.38</ele>
        <time>2015-04-21T08:38:20Z</time>
      </trkpt>
      <trkpt lat="44.00412" lon="5.64504">
        <ele>616.9</ele>
        <time>2015-04-21T08:38:35Z</time>
      </trkpt>
      <trkpt lat="44.00495" lon="5.64495">
        <ele>618.78</ele>
        <time>2015-04-21T08:38:49Z</time>
      </trkpt>
      <trkpt lat="44.00529" lon="5.64502">
        <ele>619.41</ele>
        <time>2015-04-21T08:38:55Z</time>
      </trkpt>
      <trkpt lat="44.00545" lon="5.6451">
        <ele>619.87</ele>
        <time>2015-04-21T08:38:58Z</time>
      </trkpt>
      <trkpt lat="44.00635" lon="5.6455">
        <ele>620.82</ele>
        <time>2015-04-21T08:39:14Z</time>
      </trkpt>
      <trkpt lat="44.00717" lon="5.6456">
        <ele>622.94</ele>
        <time>2015-04-21T08:39:29Z</time>
      </trkpt>
      <trkpt lat="44.00773" lon="5.64567">
        <ele>626</ele>
        <time>2015-04-21T08:39:41Z</time>
      </trkpt>
      <trkpt lat="44.00836" lon="5.64574">
        <ele>628.97</ele>
        <time>2015-04-21T08:39:54Z</time>
      </trkpt>
      <trkpt lat="44.00905" lon="5.64582">
        <ele>631.62</ele>
        <time>2015-04-21T08:40:09Z</time>
      </trkpt>
      <trkpt lat="44.00966" lon="5.64591">
        <ele>634.7</ele>
        <time>2015-04-21T08:40:22Z</time>
      </trkpt>
      <trkpt lat="44.01038" lon="5.646">
        <ele>638</ele>
        <time>2015-04-21T08:40:37Z</time>
      </trkpt>
      <trkpt lat="44.01114" lon="5.6461">
        <ele>641.28</ele>
        <time>2015-04-21T08:40:53Z</time>
      </trkpt>
      <trkpt lat="44.01175" lon="5.64618">
        <ele>644.08</ele>
        <time>2015-04-21T08:41:07Z</time>
      </trkpt>
      <trkpt lat="44.01194" lon="5.64619">
        <ele>644.86</ele>
        <time>2015-04-21T08:41:11Z</time>
      </trkpt>
      <trkpt lat="44.01275" lon="5.64632">
        <ele>648.31</ele>
        <time>2015-04-21T08:41:28Z</time>
      </trkpt>
      <trkpt lat="44.01349" lon="5.64643">
        <ele>651.17</ele>
        <time>2015-04-21T08:41:43Z</time>
      </trkpt>
      <trkpt lat="44.01435" lon="5.64653">
        <ele>654.14</ele>
        <time>2015-04-21T08:42:00Z</time>
      </trkpt>
      <trkpt lat="44.01509" lon="5.64662">
        <ele>656.86</ele>
        <time>2015-04-21T08:42:15Z</time>
      </trkpt>
      <trkpt lat="44.01534" lon="5.64662">
        <ele>657.48</ele>
        <time>2015-04-21T08:42:20Z</time>
      </trkpt>
      <trkpt lat="44.01596" lon="5.64643">
        <ele>658.83</ele>
        <time>2015-04-21T08:42:32Z</time>
      </trkpt>
      <trkpt lat="44.01657" lon="5.64586">
        <ele>660.91</ele>
        <time>2015-04-21T08:42:46Z</time>
      </trkpt>
      <trkpt lat="44.01717" lon="5.64537">
        <ele>663.35</ele>
        <time>2015-04-21T08:43:01Z</time>
      </trkpt>
      <trkpt lat="44.01766" lon="5.64492">
        <ele>665.9</ele>
        <time>2015-04-21T08:43:13Z</time>
      </trkpt>
      <trkpt lat="44.01809" lon="5.64421">
        <ele>668.29</ele>
        <time>2015-04-21T08:43:26Z</time>
      </trkpt>
      <trkpt lat="44.01819" lon="5.64406">
        <ele>668.88</ele>
        <time>2015-04-21T08:43:29Z</time>
      </trkpt>
      <trkpt lat="44.01837" lon="5.64386">
        <ele>669.67</ele>
        <time>2015-04-21T08:43:34Z</time>
      </trkpt>
      <trkpt lat="44.01874" lon="5.64366">
        <ele>671.63</ele>
        <time>2015-04-21T08:43:43Z</time>
      </trkpt>
      <trkpt lat="44.01946" lon="5.6431">
        <ele>674.35</ele>
        <time>2015-04-21T08:43:59Z</time>
      </trkpt>
      <trkpt lat="44.02018" lon="5.64245">
        <ele>676.94</ele>
        <time>2015-04-21T08:44:15Z</time>
      </trkpt>
      <trkpt lat="44.02051" lon="5.64229">
        <ele>678.3</ele>
        <time>2015-04-21T08:44:22Z</time>
      </trkpt>
      <trkpt lat="44.02122" lon="5.64202">
        <ele>680.04</ele>
        <time>2015-04-21T08:44:36Z</time>
      </trkpt>
      <trkpt lat="44.02143" lon="5.64187">
        <ele>680.79</ele>
        <time>2015-04-21T08:44:41Z</time>
      </trkpt>
      <trkpt lat="44.02154" lon="5.64175">
        <ele>681.39</ele>
        <time>2015-04-21T08:44:44Z</time>
      </trkpt>
      <trkpt lat="44.02185" lon="5.64132">
        <ele>683.45</ele>
        <time>2015-04-21T08:44:53Z</time>
      </trkpt>
      <trkpt lat="44.02257" lon="5.6407">
        <ele>686.89</ele>
        <time>2015-04-21T08:45:08Z</time>
      </trkpt>
      <trkpt lat="44.02325" lon="5.64049">
        <ele>688.08</ele>
        <time>2015-04-21T08:45:20Z</time>
      </trkpt>
      <trkpt lat="44.02425" lon="5.64045">
        <ele>689.96</ele>
        <time>2015-04-21T08:45:37Z</time>
      </trkpt>
      <trkpt lat="44.02485" lon="5.64008">
        <ele>691.76</ele>
        <time>2015-04-21T08:45:50Z</time>
      </trkpt>
      <trkpt lat="44.0256" lon="5.6392">
        <ele>694.63</ele>
        <time>2015-04-21T08:46:09Z</time>
      </trkpt>
      <trkpt lat="44.02615" lon="5.63856">
        <ele>697.11</ele>
        <time>2015-04-21T08:46:25Z</time>
      </trkpt>
      <trkpt lat="44.02665" lon="5.63796">
        <ele>700.24</ele>
        <time>2015-04-21T08:46:41Z</time>
      </trkpt>
      <trkpt lat="44.02713" lon="5.63739">
        <ele>703.31</ele>
        <time>2015-04-21T08:46:55Z</time>
      </trkpt>
      <trkpt lat="44.02764" lon="5.63682">
        <ele>706.37</ele>
        <time>2015-04-21T08:47:10Z</time>
      </trkpt>
      <trkpt lat="44.02809" lon="5.63631">
        <ele>709.46</ele>
        <time>2015-04-21T08:47:24Z</time>
      </trkpt>
      <trkpt lat="44.02846" lon="5.63586">
        <ele>712.31</ele>
        <time>2015-04-21T08:47:37Z</time>
      </trkpt>
      <trkpt lat="44.02867" lon="5.63561">
        <ele>714.06</ele>
        <time>2015-04-21T08:47:44Z</time>
      </trkpt>
      <trkpt lat="44.02873" lon="5.63554">
        <ele>714.36</ele>
        <time>2015-04-21T08:47:46Z</time>
      </trkpt>
      <trkpt lat="44.02924" lon="5.63493">
        <ele>717.69</ele>
        <time>2015-04-21T08:48:02Z</time>
      </trkpt>
      <trkpt lat="44.02967" lon="5.63444">
        <ele>721.03</ele>
        <time>2015-04-21T08:48:15Z</time>
      </trkpt>
      <trkpt lat="44.0302" lon="5.63384">
        <ele>724.09</ele>
        <time>2015-04-21T08:48:31Z</time>
      </trkpt>
      <trkpt lat="44.03068" lon="5.63329">
        <ele>727.18</ele>
        <time>2015-04-21T08:48:46Z</time>
      </trkpt>
      <trkpt lat="44.0311" lon="5.63278">
        <ele>730.29</ele>
        <time>2015-04-21T08:49:00Z</time>
      </trkpt>
      <trkpt lat="44.03149" lon="5.63229">
        <ele>733.32</ele>
        <time>2015-04-21T08:49:13Z</time>
      </trkpt>
      <trkpt lat="44.03196" lon="5.63176">
        <ele>736.41</ele>
        <time>2015-04-21T08:49:27Z</time>
      </trkpt>
      <trkpt lat="44.03242" lon="5.63129">
        <ele>739.46</ele>
        <time>2015-04-21T08:49:42Z</time>
      </trkpt>
      <trkpt lat="44.03293" lon="5.63088">
        <ele>742.6</ele>
        <time>2015-04-21T08:49:56Z</time>
      </trkpt>
      <trkpt lat="44.0334" lon="5.6305">
        <ele>745.61</ele>
        <time>2015-04-21T08:50:10Z</time>
      </trkpt>
      <trkpt lat="44.03401" lon="5.63">
        <ele>748.76</ele>
        <time>2015-04-21T08:50:27Z</time>
      </trkpt>
      <trkpt lat="44.03447" lon="5.62955">
        <ele>751.31</ele>
        <time>2015-04-21T08:50:41Z</time>
      </trkpt>
      <trkpt lat="44.03497" lon="5.62886">
        <ele>754.26</ele>
        <time>2015-04-21T08:50:58Z</time>
      </trkpt>
      <trkpt lat="44.03525" lon="5.62845">
        <ele>756.17</ele>
        <time>2015-04-21T08:51:09Z</time>
      </trkpt>
      <trkpt lat="44.03563" lon="5.62804">
        <ele>759.37</ele>
        <time>2015-04-21T08:51:23Z</time>
      </trkpt>
      <trkpt lat="44.03608" lon="5.62818">
        <ele>762.48</ele>
        <time>2015-04-21T08:51:37Z</time>
      </trkpt>
      <trkpt lat="44.03649" lon="5.62833">
        <ele>765.56</ele>
        <time>2015-04-21T08:51:51Z</time>
      </trkpt>
      <trkpt lat="44.03678" lon="5.62841">
        <ele>768.25</ele>
        <time>2015-04-21T08:52:02Z</time>
      </trkpt>
      <trkpt lat="44.03709" lon="5.62851">
        <ele>771.41</ele>
        <time>2015-04-21T08:52:15Z</time>
      </trkpt>
      <trkpt lat="44.03739" lon="5.6286">
        <ele>774.56</ele>
        <time>2015-04-21T08:52:27Z</time>
      </trkpt>
      <trkpt lat="44.03765" lon="5.62869">
        <ele>777.22</ele>
        <time>2015-04-21T08:52:38Z</time>
      </trkpt>
      <trkpt lat="44.03797" lon="5.62874">
        <ele>780.23</ele>
        <time>2015-04-21T08:52:50Z</time>
      </trkpt>
      <trkpt lat="44.03832" lon="5.62872">
        <ele>783.27</ele>
        <time>2015-04-21T08:53:03Z</time>
      </trkpt>
      <trkpt lat="44.03859" lon="5.62871">
        <ele>785.52</ele>
        <time>2015-04-21T08:53:14Z</time>
      </trkpt>
      <trkpt lat="44.03866" lon="5.62868">
        <ele>786.19</ele>
        <time>2015-04-21T08:53:26Z</time>
      </trkpt>
      <trkpt lat="44.03869" lon="5.62869">
        <ele>786.1</ele>
        <time>2015-04-21T08:53:57Z</time>
      </trkpt>
      <trkpt lat="44.03867" lon="5.62865">
        <ele>786.06</ele>
        <time>2015-04-21T08:54:11Z</time>
      </trkpt>
      <trkpt lat="44.03862" lon="5.6286">
        <ele>786.26</ele>
        <time>2015-04-21T08:54:15Z</time>
      </trkpt>
      <trkpt lat="44.03858" lon="5.62851">
        <ele>786.11</ele>
        <time>2015-04-21T08:54:40Z</time>
      </trkpt>
      <trkpt lat="44.03856" lon="5.62853">
        <ele>786.15</ele>
        <time>2015-04-21T08:55:08Z</time>
      </trkpt>
      <trkpt lat="44.03859" lon="5.62852">
        <ele>786.13</ele>
        <time>2015-04-21T08:55:37Z</time>
      </trkpt>
      <trkpt lat="44.03861" lon="5.6285">
        <ele>786.03</ele>
        <time>2015-04-21T08:56:07Z</time>
      </trkpt>
      <trkpt lat="44.0386" lon="5.62848">
        <ele>786.18</ele>
        <time>2015-04-21T08:56:38Z</time>
      </trkpt>
      <trkpt lat="44.03857" lon="5.62849">
        <ele>786.11</ele>
        <time>2015-04-21T08:57:07Z</time>
      </trkpt>
      <trkpt lat="44.03856" lon="5.6285">
        <ele>786.19</ele>
        <time>2015-04-21T08:57:35Z</time>
      </trkpt>
      <trkpt lat="44.03857" lon="5.62852">
        <ele>786.08</ele>
        <time>2015-04-21T08:58:05Z</time>
      </trkpt>
      <trkpt lat="44.03855" lon="5.62857">
        <ele>786.06</ele>
        <time>2015-04-21T08:58:37Z</time>
      </trkpt>
      <trkpt lat="44.03857" lon="5.62856">
        <ele>785.86</ele>
        <time>2015-04-21T08:59:12Z</time>
      </trkpt>
      <trkpt lat="44.03856" lon="5.62857">
        <ele>785.88</ele>
        <time>2015-04-21T08:59:42Z</time>
      </trkpt>
      <trkpt lat="44.03856" lon="5.62855">
        <ele>785.95</ele>
        <time>2015-04-21T09:00:17Z</time>
      </trkpt>
      <trkpt lat="44.03855" lon="5.62862">
        <ele>785.68</ele>
        <time>2015-04-21T09:00:43Z</time>
      </trkpt>
      <trkpt lat="44.03857" lon="5.62863">
        <ele>785.76</ele>
        <time>2015-04-21T09:00:45Z</time>
      </trkpt>
      <trkpt lat="44.03884" lon="5.62878">
        <ele>785.57</ele>
        <time>2015-04-21T09:01:00Z</time>
      </trkpt>
      <trkpt lat="44.03918" lon="5.62889">
        <ele>784.36</ele>
        <time>2015-04-21T09:01:13Z</time>
      </trkpt>
      <trkpt lat="44.03938" lon="5.62884">
        <ele>783.55</ele>
        <time>2015-04-21T09:01:19Z</time>
      </trkpt>
      <trkpt lat="44.03958" lon="5.62908">
        <ele>782.17</ele>
        <time>2015-04-21T09:01:28Z</time>
      </trkpt>
      <trkpt lat="44.03945" lon="5.62918">
        <ele>782.05</ele>
        <time>2015-04-21T09:01:35Z</time>
      </trkpt>
      <trkpt lat="44.03938" lon="5.62921">
        <ele>782.07</ele>
        <time>2015-04-21T09:01:37Z</time>
      </trkpt>
      <trkpt lat="44.03905" lon="5.6295">
        <ele>780.55</ele>
        <time>2015-04-21T09:01:49Z</time>
      </trkpt>
      <trkpt lat="44.03902" lon="5.62949">
        <ele>780.3</ele>
        <time>2015-04-21T09:02:00Z</time>
      </trkpt>
      <trkpt lat="44.03899" lon="5.62954">
        <ele>780.05</ele>
        <time>2015-04-21T09:03:17Z</time>
      </trkpt>
      <trkpt lat="44.03898" lon="5.62956">
        <ele>780.19</ele>
        <time>2015-04-21T09:04:08Z</time>
      </trkpt>
      <trkpt lat="44.03901" lon="5.62954">
        <ele>780.09</ele>
        <time>2015-04-21T09:04:11Z</time>
      </trkpt>
      <trkpt lat="44.03921" lon="5.62935">
        <ele>781.09</ele>
        <time>2015-04-21T09:04:22Z</time>
      </trkpt>
      <trkpt lat="44.03959" lon="5.62926">
        <ele>781.43</ele>
        <time>2015-04-21T09:04:34Z</time>
      </trkpt>
      <trkpt lat="44.03972" lon="5.62929">
        <ele>781.19</ele>
        <time>2015-04-21T09:04:45Z</time>
      </trkpt>
      <trkpt lat="44.03971" lon="5.62931">
        <ele>780.64</ele>
        <time>2015-04-21T09:05:03Z</time>
      </trkpt>
      <trkpt lat="44.03974" lon="5.62928">
        <ele>780.55</ele>
        <time>2015-04-21T09:06:07Z</time>
      </trkpt>
      <trkpt lat="44.03975" lon="5.62932">
        <ele>780.45</ele>
        <time>2015-04-21T09:07:49Z</time>
      </trkpt>
      <trkpt lat="44.03973" lon="5.62926">
        <ele>780.22</ele>
        <time>2015-04-21T09:09:24Z</time>
      </trkpt>
      <trkpt lat="44.03972" lon="5.62928">
        <ele>780.27</ele>
        <time>2015-04-21T09:10:50Z</time>
      </trkpt>
      <trkpt lat="44.03973" lon="5.62927">
        <ele>780.42</ele>
        <time>2015-04-21T09:12:59Z</time>
      </trkpt>
      <trkpt lat="44.03976" lon="5.62927">
        <ele>780.13</ele>
        <time>2015-04-21T09:14:50Z</time>
      </trkpt>
      <trkpt lat="44.03974" lon="5.6293">
        <ele>780.18</ele>
        <time>2015-04-21T09:16:46Z</time>
      </trkpt>
      <trkpt lat="44.03973" lon="5.62926">
        <ele>780.12</ele>
        <time>2015-04-21T09:18:22Z</time>
      </trkpt>
      <trkpt lat="44.03973" lon="5.6293">
        <ele>779.99</ele>
        <time>2015-04-21T09:19:44Z</time>
      </trkpt>
      <trkpt lat="44.03978" lon="5.6293">
        <ele>780.04</ele>
        <time>2015-04-21T09:20:59Z</time>
      </trkpt>
      <trkpt lat="44.03983" lon="5.62929">
        <ele>779.79</ele>
        <time>2015-04-21T09:21:03Z</time>
      </trkpt>
      <trkpt lat="44.04017" lon="5.62946">
        <ele>779.41</ele>
        <time>2015-04-21T09:21:14Z</time>
      </trkpt>
      <trkpt lat="44.04028" lon="5.62955">
        <ele>779.11</ele>
        <time>2015-04-21T09:21:17Z</time>
      </trkpt>
      <trkpt lat="44.04094" lon="5.63003">
        <ele>777.11</ele>
        <time>2015-04-21T09:21:31Z</time>
      </trkpt>
      <trkpt lat="44.04172" lon="5.63056">
        <ele>775.01</ele>
        <time>2015-04-21T09:21:45Z</time>
      </trkpt>
      <trkpt lat="44.04193" lon="5.63076">
        <ele>774</ele>
        <time>2015-04-21T09:21:49Z</time>
      </trkpt>
      <trkpt lat="44.04223" lon="5.63119">
        <ele>773.09</ele>
        <time>2015-04-21T09:21:56Z</time>
      </trkpt>
      <trkpt lat="44.04259" lon="5.63178">
        <ele>771.57</ele>
        <time>2015-04-21T09:22:05Z</time>
      </trkpt>
      <trkpt lat="44.04329" lon="5.63277">
        <ele>768.92</ele>
        <time>2015-04-21T09:22:19Z</time>
      </trkpt>
      <trkpt lat="44.04387" lon="5.63349">
        <ele>766.2</ele>
        <time>2015-04-21T09:22:29Z</time>
      </trkpt>
      <trkpt lat="44.04396" lon="5.63429">
        <ele>763.52</ele>
        <time>2015-04-21T09:22:36Z</time>
      </trkpt>
      <trkpt lat="44.04392" lon="5.63441">
        <ele>763.19</ele>
        <time>2015-04-21T09:22:37Z</time>
      </trkpt>
      <trkpt lat="44.04379" lon="5.63478">
        <ele>762.04</ele>
        <time>2015-04-21T09:22:40Z</time>
      </trkpt>
      <trkpt lat="44.04377" lon="5.63574">
        <ele>758.28</ele>
        <time>2015-04-21T09:22:47Z</time>
      </trkpt>
      <trkpt lat="44.04393" lon="5.63609">
        <ele>756.78</ele>
        <time>2015-04-21T09:22:50Z</time>
      </trkpt>
      <trkpt lat="44.04414" lon="5.63689">
        <ele>753.83</ele>
        <time>2015-04-21T09:22:56Z</time>
      </trkpt>
      <trkpt lat="44.04432" lon="5.63805">
        <ele>749.7</ele>
        <time>2015-04-21T09:23:04Z</time>
      </trkpt>
      <trkpt lat="44.04443" lon="5.6388">
        <ele>746.48</ele>
        <time>2015-04-21T09:23:09Z</time>
      </trkpt>
      <trkpt lat="44.04449" lon="5.63971">
        <ele>743.03</ele>
        <time>2015-04-21T09:23:15Z</time>
      </trkpt>
      <trkpt lat="44.04445" lon="5.64063">
        <ele>740.25</ele>
        <time>2015-04-21T09:23:21Z</time>
      </trkpt>
      <trkpt lat="44.04455" lon="5.64135">
        <ele>736.65</ele>
        <time>2015-04-21T09:23:26Z</time>
      </trkpt>
      <trkpt lat="44.04462" lon="5.64166">
        <ele>734.29</ele>
        <time>2015-04-21T09:23:29Z</time>
      </trkpt>
      <trkpt lat="44.04475" lon="5.64214">
        <ele>730.76</ele>
        <time>2015-04-21T09:23:37Z</time>
      </trkpt>
      <trkpt lat="44.04482" lon="5.64223">
        <ele>730.46</ele>
        <time>2015-04-21T09:23:39Z</time>
      </trkpt>
      <trkpt lat="44.04512" lon="5.64275">
        <ele>729.59</ele>
        <time>2015-04-21T09:23:47Z</time>
      </trkpt>
      <trkpt lat="44.04518" lon="5.64304">
        <ele>729.2</ele>
        <time>2015-04-21T09:23:50Z</time>
      </trkpt>
      <trkpt lat="44.04523" lon="5.64435">
        <ele>725.62</ele>
        <time>2015-04-21T09:24:00Z</time>
      </trkpt>
      <trkpt lat="44.04524" lon="5.64542">
        <ele>722.2</ele>
        <time>2015-04-21T09:24:07Z</time>
      </trkpt>
      <trkpt lat="44.04526" lon="5.64588">
        <ele>720.14</ele>
        <time>2015-04-21T09:24:10Z</time>
      </trkpt>
      <trkpt lat="44.04531" lon="5.64778">
        <ele>717.09</ele>
        <time>2015-04-21T09:24:23Z</time>
      </trkpt>
      <trkpt lat="44.04534" lon="5.64949">
        <ele>715.04</ele>
        <time>2015-04-21T09:24:37Z</time>
      </trkpt>
      <trkpt lat="44.04536" lon="5.64994">
        <ele>715.25</ele>
        <time>2015-04-21T09:24:41Z</time>
      </trkpt>
      <trkpt lat="44.04569" lon="5.65115">
        <ele>714.72</ele>
        <time>2015-04-21T09:24:53Z</time>
      </trkpt>
      <trkpt lat="44.04619" lon="5.6526">
        <ele>712.66</ele>
        <time>2015-04-21T09:25:07Z</time>
      </trkpt>
      <trkpt lat="44.04662" lon="5.65376">
        <ele>711.61</ele>
        <time>2015-04-21T09:25:18Z</time>
      </trkpt>
      <trkpt lat="44.04698" lon="5.65443">
        <ele>710.88</ele>
        <time>2015-04-21T09:25:25Z</time>
      </trkpt>
      <trkpt lat="44.04707" lon="5.65488">
        <ele>710.6</ele>
        <time>2015-04-21T09:25:29Z</time>
      </trkpt>
      <trkpt lat="44.04691" lon="5.65628">
        <ele>709.52</ele>
        <time>2015-04-21T09:25:42Z</time>
      </trkpt>
      <trkpt lat="44.04655" lon="5.65756">
        <ele>708.1</ele>
        <time>2015-04-21T09:25:54Z</time>
      </trkpt>
      <trkpt lat="44.04617" lon="5.65867">
        <ele>704.74</ele>
        <time>2015-04-21T09:26:04Z</time>
      </trkpt>
      <trkpt lat="44.04584" lon="5.65939">
        <ele>702.28</ele>
        <time>2015-04-21T09:26:11Z</time>
      </trkpt>
      <trkpt lat="44.04501" lon="5.66049">
        <ele>700.74</ele>
        <time>2015-04-21T09:26:24Z</time>
      </trkpt>
      <trkpt lat="44.04485" lon="5.66076">
        <ele>700.4</ele>
        <time>2015-04-21T09:26:27Z</time>
      </trkpt>
      <trkpt lat="44.0447" lon="5.66121">
        <ele>700.01</ele>
        <time>2015-04-21T09:26:31Z</time>
      </trkpt>
      <trkpt lat="44.04452" lon="5.66191">
        <ele>698.81</ele>
        <time>2015-04-21T09:26:37Z</time>
      </trkpt>
      <trkpt lat="44.0442" lon="5.66249">
        <ele>695.8</ele>
        <time>2015-04-21T09:26:43Z</time>
      </trkpt>
      <trkpt lat="44.04412" lon="5.66271">
        <ele>696.29</ele>
        <time>2015-04-21T09:26:45Z</time>
      </trkpt>
      <trkpt lat="44.04406" lon="5.66305">
        <ele>695.81</ele>
        <time>2015-04-21T09:26:48Z</time>
      </trkpt>
      <trkpt lat="44.04409" lon="5.66354">
        <ele>694.64</ele>
        <time>2015-04-21T09:26:52Z</time>
      </trkpt>
      <trkpt lat="44.0442" lon="5.66403">
        <ele>695.71</ele>
        <time>2015-04-21T09:26:56Z</time>
      </trkpt>
      <trkpt lat="44.04429" lon="5.66453">
        <ele>693.76</ele>
        <time>2015-04-21T09:27:00Z</time>
      </trkpt>
      <trkpt lat="44.04454" lon="5.66572">
        <ele>691.85</ele>
        <time>2015-04-21T09:27:10Z</time>
      </trkpt>
      <trkpt lat="44.04465" lon="5.66621">
        <ele>691.91</ele>
        <time>2015-04-21T09:27:14Z</time>
      </trkpt>
      <trkpt lat="44.04458" lon="5.6675">
        <ele>690.03</ele>
        <time>2015-04-21T09:27:25Z</time>
      </trkpt>
      <trkpt lat="44.04411" lon="5.66853">
        <ele>688.33</ele>
        <time>2015-04-21T09:27:35Z</time>
      </trkpt>
      <trkpt lat="44.04353" lon="5.66895">
        <ele>687.04</ele>
        <time>2015-04-21T09:27:42Z</time>
      </trkpt>
      <trkpt lat="44.04253" lon="5.66888">
        <ele>685.43</ele>
        <time>2015-04-21T09:27:53Z</time>
      </trkpt>
      <trkpt lat="44.04139" lon="5.66868">
        <ele>683.48</ele>
        <time>2015-04-21T09:28:06Z</time>
      </trkpt>
      <trkpt lat="44.04039" lon="5.66874">
        <ele>681.95</ele>
        <time>2015-04-21T09:28:17Z</time>
      </trkpt>
      <trkpt lat="44.03988" lon="5.66899">
        <ele>681.47</ele>
        <time>2015-04-21T09:28:23Z</time>
      </trkpt>
      <trkpt lat="44.03889" lon="5.6697">
        <ele>679.27</ele>
        <time>2015-04-21T09:28:35Z</time>
      </trkpt>
      <trkpt lat="44.0383" lon="5.67003">
        <ele>678.63</ele>
        <time>2015-04-21T09:28:42Z</time>
      </trkpt>
      <trkpt lat="44.03742" lon="5.66991">
        <ele>677.3</ele>
        <time>2015-04-21T09:28:52Z</time>
      </trkpt>
      <trkpt lat="44.03717" lon="5.66987">
        <ele>676.28</ele>
        <time>2015-04-21T09:28:55Z</time>
      </trkpt>
      <trkpt lat="44.0366" lon="5.6701">
        <ele>675.62</ele>
        <time>2015-04-21T09:29:02Z</time>
      </trkpt>
      <trkpt lat="44.03577" lon="5.67099">
        <ele>672.73</ele>
        <time>2015-04-21T09:29:14Z</time>
      </trkpt>
      <trkpt lat="44.03558" lon="5.67139">
        <ele>673.05</ele>
        <time>2015-04-21T09:29:18Z</time>
      </trkpt>
      <trkpt lat="44.03521" lon="5.67287">
        <ele>670.02</ele>
        <time>2015-04-21T09:29:32Z</time>
      </trkpt>
      <trkpt lat="44.03494" lon="5.67331">
        <ele>668.95</ele>
        <time>2015-04-21T09:29:37Z</time>
      </trkpt>
      <trkpt lat="44.03427" lon="5.67394">
        <ele>666.31</ele>
        <time>2015-04-21T09:29:46Z</time>
      </trkpt>
      <trkpt lat="44.03378" lon="5.67437">
        <ele>665.34</ele>
        <time>2015-04-21T09:29:52Z</time>
      </trkpt>
      <trkpt lat="44.03356" lon="5.67478">
        <ele>666.16</ele>
        <time>2015-04-21T09:29:56Z</time>
      </trkpt>
      <trkpt lat="44.03306" lon="5.67613">
        <ele>662.66</ele>
        <time>2015-04-21T09:30:08Z</time>
      </trkpt>
      <trkpt lat="44.03296" lon="5.67634">
        <ele>661.51</ele>
        <time>2015-04-21T09:30:10Z</time>
      </trkpt>
      <trkpt lat="44.03221" lon="5.67713">
        <ele>660.02</ele>
        <time>2015-04-21T09:30:20Z</time>
      </trkpt>
      <trkpt lat="44.03088" lon="5.67833">
        <ele>657.1</ele>
        <time>2015-04-21T09:30:37Z</time>
      </trkpt>
      <trkpt lat="44.02998" lon="5.67936">
        <ele>655.53</ele>
        <time>2015-04-21T09:30:50Z</time>
      </trkpt>
      <trkpt lat="44.02927" lon="5.68055">
        <ele>653.73</ele>
        <time>2015-04-21T09:31:03Z</time>
      </trkpt>
      <trkpt lat="44.02895" lon="5.68119">
        <ele>651.72</ele>
        <time>2015-04-21T09:31:10Z</time>
      </trkpt>
      <trkpt lat="44.02842" lon="5.68143">
        <ele>650.82</ele>
        <time>2015-04-21T09:31:17Z</time>
      </trkpt>
      <trkpt lat="44.02726" lon="5.68111">
        <ele>648.92</ele>
        <time>2015-04-21T09:31:31Z</time>
      </trkpt>
      <trkpt lat="44.02594" lon="5.68077">
        <ele>648.12</ele>
        <time>2015-04-21T09:31:46Z</time>
      </trkpt>
      <trkpt lat="44.02448" lon="5.68038">
        <ele>645.89</ele>
        <time>2015-04-21T09:32:03Z</time>
      </trkpt>
      <trkpt lat="44.02321" lon="5.68007">
        <ele>644.66</ele>
        <time>2015-04-21T09:32:19Z</time>
      </trkpt>
      <trkpt lat="44.02189" lon="5.67988">
        <ele>642.1</ele>
        <time>2015-04-21T09:32:36Z</time>
      </trkpt>
      <trkpt lat="44.02059" lon="5.68006">
        <ele>641.87</ele>
        <time>2015-04-21T09:32:53Z</time>
      </trkpt>
      <trkpt lat="44.01967" lon="5.68064">
        <ele>639.63</ele>
        <time>2015-04-21T09:33:06Z</time>
      </trkpt>
      <trkpt lat="44.019" lon="5.68122">
        <ele>637.11</ele>
        <time>2015-04-21T09:33:15Z</time>
      </trkpt>
      <trkpt lat="44.01799" lon="5.68156">
        <ele>635.35</ele>
        <time>2015-04-21T09:33:26Z</time>
      </trkpt>
      <trkpt lat="44.0173" lon="5.68149">
        <ele>632.19</ele>
        <time>2015-04-21T09:33:33Z</time>
      </trkpt>
      <trkpt lat="44.017" lon="5.68146">
        <ele>629.19</ele>
        <time>2015-04-21T09:33:36Z</time>
      </trkpt>
      <trkpt lat="44.0169" lon="5.68146">
        <ele>628.36</ele>
        <time>2015-04-21T09:33:37Z</time>
      </trkpt>
      <trkpt lat="44.01642" lon="5.68171">
        <ele>626.78</ele>
        <time>2015-04-21T09:33:42Z</time>
      </trkpt>
      <trkpt lat="44.01592" lon="5.68219">
        <ele>625.34</ele>
        <time>2015-04-21T09:33:48Z</time>
      </trkpt>
      <trkpt lat="44.01537" lon="5.68225">
        <ele>625.19</ele>
        <time>2015-04-21T09:33:54Z</time>
      </trkpt>
      <trkpt lat="44.01519" lon="5.68217">
        <ele>625.32</ele>
        <time>2015-04-21T09:33:56Z</time>
      </trkpt>
      <trkpt lat="44.01465" lon="5.68218">
        <ele>626.15</ele>
        <time>2015-04-21T09:34:02Z</time>
      </trkpt>
      <trkpt lat="44.01342" lon="5.68281">
        <ele>624.88</ele>
        <time>2015-04-21T09:34:17Z</time>
      </trkpt>
      <trkpt lat="44.01177" lon="5.68377">
        <ele>623.37</ele>
        <time>2015-04-21T09:34:37Z</time>
      </trkpt>
      <trkpt lat="44.01041" lon="5.68456">
        <ele>623.34</ele>
        <time>2015-04-21T09:34:57Z</time>
      </trkpt>
      <trkpt lat="44.01012" lon="5.68478">
        <ele>623.63</ele>
        <time>2015-04-21T09:35:02Z</time>
      </trkpt>
      <trkpt lat="44.00936" lon="5.68521">
        <ele>624.74</ele>
        <time>2015-04-21T09:35:16Z</time>
      </trkpt>
      <trkpt lat="44.00854" lon="5.68563">
        <ele>626.72</ele>
        <time>2015-04-21T09:35:31Z</time>
      </trkpt>
      <trkpt lat="44.00833" lon="5.68576">
        <ele>627.19</ele>
        <time>2015-04-21T09:35:35Z</time>
      </trkpt>
      <trkpt lat="44.00815" lon="5.68626">
        <ele>628.48</ele>
        <time>2015-04-21T09:35:43Z</time>
      </trkpt>
      <trkpt lat="44.00822" lon="5.68647">
        <ele>628.96</ele>
        <time>2015-04-21T09:35:46Z</time>
      </trkpt>
      <trkpt lat="44.00851" lon="5.68714">
        <ele>629.71</ele>
        <time>2015-04-21T09:35:56Z</time>
      </trkpt>
      <trkpt lat="44.00854" lon="5.68751">
        <ele>630.3</ele>
        <time>2015-04-21T09:36:01Z</time>
      </trkpt>
      <trkpt lat="44.0083" lon="5.6885">
        <ele>632.19</ele>
        <time>2015-04-21T09:36:14Z</time>
      </trkpt>
      <trkpt lat="44.00812" lon="5.68935">
        <ele>633.62</ele>
        <time>2015-04-21T09:36:25Z</time>
      </trkpt>
      <trkpt lat="44.00819" lon="5.68996">
        <ele>634.93</ele>
        <time>2015-04-21T09:36:33Z</time>
      </trkpt>
      <trkpt lat="44.00867" lon="5.6909">
        <ele>636.59</ele>
        <time>2015-04-21T09:36:47Z</time>
      </trkpt>
      <trkpt lat="44.00883" lon="5.69118">
        <ele>636.99</ele>
        <time>2015-04-21T09:36:51Z</time>
      </trkpt>
      <trkpt lat="44.00892" lon="5.69142">
        <ele>637.43</ele>
        <time>2015-04-21T09:36:54Z</time>
      </trkpt>
      <trkpt lat="44.00903" lon="5.69179">
        <ele>638.12</ele>
        <time>2015-04-21T09:36:59Z</time>
      </trkpt>
      <trkpt lat="44.00932" lon="5.69225">
        <ele>639.05</ele>
        <time>2015-04-21T09:37:07Z</time>
      </trkpt>
      <trkpt lat="44.00942" lon="5.69257">
        <ele>639.52</ele>
        <time>2015-04-21T09:37:11Z</time>
      </trkpt>
      <trkpt lat="44.00944" lon="5.69292">
        <ele>640.39</ele>
        <time>2015-04-21T09:37:16Z</time>
      </trkpt>
      <trkpt lat="44.0095" lon="5.69317">
        <ele>640.92</ele>
        <time>2015-04-21T09:37:20Z</time>
      </trkpt>
      <trkpt lat="44.00964" lon="5.69345">
        <ele>641.52</ele>
        <time>2015-04-21T09:37:25Z</time>
      </trkpt>
      <trkpt lat="44.01023" lon="5.69405">
        <ele>643.85</ele>
        <time>2015-04-21T09:37:37Z</time>
      </trkpt>
      <trkpt lat="44.01085" lon="5.69486">
        <ele>645.48</ele>
        <time>2015-04-21T09:37:51Z</time>
      </trkpt>
      <trkpt lat="44.01096" lon="5.69507">
        <ele>645.92</ele>
        <time>2015-04-21T09:37:54Z</time>
      </trkpt>
      <trkpt lat="44.01105" lon="5.69519">
        <ele>646.01</ele>
        <time>2015-04-21T09:37:56Z</time>
      </trkpt>
      <trkpt lat="44.01152" lon="5.69626">
        <ele>646.49</ele>
        <time>2015-04-21T09:38:11Z</time>
      </trkpt>
      <trkpt lat="44.01174" lon="5.69741">
        <ele>648.83</ele>
        <time>2015-04-21T09:38:25Z</time>
      </trkpt>
      <trkpt lat="44.01184" lon="5.69788">
        <ele>649.29</ele>
        <time>2015-04-21T09:38:31Z</time>
      </trkpt>
      <trkpt lat="44.01183" lon="5.69817">
        <ele>649.68</ele>
        <time>2015-04-21T09:38:35Z</time>
      </trkpt>
      <trkpt lat="44.0116" lon="5.69895">
        <ele>652.95</ele>
        <time>2015-04-21T09:38:47Z</time>
      </trkpt>
      <trkpt lat="44.0115" lon="5.69963">
        <ele>654.87</ele>
        <time>2015-04-21T09:38:57Z</time>
      </trkpt>
      <trkpt lat="44.0117" lon="5.70017">
        <ele>654.01</ele>
        <time>2015-04-21T09:39:05Z</time>
      </trkpt>
      <trkpt lat="44.01181" lon="5.70029">
        <ele>653.46</ele>
        <time>2015-04-21T09:39:07Z</time>
      </trkpt>
      <trkpt lat="44.01194" lon="5.70041">
        <ele>652.52</ele>
        <time>2015-04-21T09:39:09Z</time>
      </trkpt>
      <trkpt lat="44.01291" lon="5.70097">
        <ele>649.1</ele>
        <time>2015-04-21T09:39:20Z</time>
      </trkpt>
      <trkpt lat="44.01335" lon="5.70109">
        <ele>646.63</ele>
        <time>2015-04-21T09:39:24Z</time>
      </trkpt>
      <trkpt lat="44.01358" lon="5.70114">
        <ele>645.57</ele>
        <time>2015-04-21T09:39:26Z</time>
      </trkpt>
      <trkpt lat="44.01393" lon="5.70115">
        <ele>643.78</ele>
        <time>2015-04-21T09:39:29Z</time>
      </trkpt>
      <trkpt lat="44.01445" lon="5.70166">
        <ele>639.1</ele>
        <time>2015-04-21T09:39:35Z</time>
      </trkpt>
      <trkpt lat="44.01501" lon="5.7019">
        <ele>636.44</ele>
        <time>2015-04-21T09:39:40Z</time>
      </trkpt>
      <trkpt lat="44.0152" lon="5.70211">
        <ele>634.87</ele>
        <time>2015-04-21T09:39:42Z</time>
      </trkpt>
      <trkpt lat="44.01546" lon="5.70248">
        <ele>634.4</ele>
        <time>2015-04-21T09:39:45Z</time>
      </trkpt>
      <trkpt lat="44.01614" lon="5.70296">
        <ele>630.07</ele>
        <time>2015-04-21T09:39:51Z</time>
      </trkpt>
      <trkpt lat="44.01661" lon="5.70322">
        <ele>627.25</ele>
        <time>2015-04-21T09:39:55Z</time>
      </trkpt>
      <trkpt lat="44.01699" lon="5.70356">
        <ele>626.29</ele>
        <time>2015-04-21T09:39:59Z</time>
      </trkpt>
      <trkpt lat="44.01714" lon="5.70377">
        <ele>625.55</ele>
        <time>2015-04-21T09:40:01Z</time>
      </trkpt>
      <trkpt lat="44.01814" lon="5.70512">
        <ele>622.4</ele>
        <time>2015-04-21T09:40:15Z</time>
      </trkpt>
      <trkpt lat="44.01901" lon="5.70629">
        <ele>619.3</ele>
        <time>2015-04-21T09:40:28Z</time>
      </trkpt>
      <trkpt lat="44.02007" lon="5.70769">
        <ele>616.67</ele>
        <time>2015-04-21T09:40:44Z</time>
      </trkpt>
      <trkpt lat="44.02065" lon="5.70857">
        <ele>616.1</ele>
        <time>2015-04-21T09:40:54Z</time>
      </trkpt>
      <trkpt lat="44.02074" lon="5.70898">
        <ele>615.31</ele>
        <time>2015-04-21T09:40:58Z</time>
      </trkpt>
      <trkpt lat="44.02087" lon="5.71021">
        <ele>614.93</ele>
        <time>2015-04-21T09:41:09Z</time>
      </trkpt>
      <trkpt lat="44.02117" lon="5.71078">
        <ele>614.28</ele>
        <time>2015-04-21T09:41:15Z</time>
      </trkpt>
      <trkpt lat="44.02169" lon="5.71165">
        <ele>612.67</ele>
        <time>2015-04-21T09:41:24Z</time>
      </trkpt>
      <trkpt lat="44.02167" lon="5.71209">
        <ele>612.59</ele>
        <time>2015-04-21T09:41:28Z</time>
      </trkpt>
      <trkpt lat="44.02154" lon="5.71236">
        <ele>612.59</ele>
        <time>2015-04-21T09:41:31Z</time>
      </trkpt>
      <trkpt lat="44.02086" lon="5.71292">
        <ele>611.8</ele>
        <time>2015-04-21T09:41:42Z</time>
      </trkpt>
      <trkpt lat="44.02057" lon="5.71299">
        <ele>611.71</ele>
        <time>2015-04-21T09:41:46Z</time>
      </trkpt>
      <trkpt lat="44.01921" lon="5.71273">
        <ele>612.08</ele>
        <time>2015-04-21T09:42:05Z</time>
      </trkpt>
      <trkpt lat="44.01806" lon="5.71277">
        <ele>609.99</ele>
        <time>2015-04-21T09:42:20Z</time>
      </trkpt>
      <trkpt lat="44.01664" lon="5.71306">
        <ele>607.9</ele>
        <time>2015-04-21T09:42:36Z</time>
      </trkpt>
      <trkpt lat="44.01577" lon="5.71354">
        <ele>604.82</ele>
        <time>2015-04-21T09:42:46Z</time>
      </trkpt>
      <trkpt lat="44.01479" lon="5.71438">
        <ele>601.04</ele>
        <time>2015-04-21T09:42:58Z</time>
      </trkpt>
      <trkpt lat="44.01449" lon="5.71469">
        <ele>598.93</ele>
        <time>2015-04-21T09:43:02Z</time>
      </trkpt>
      <trkpt lat="44.01427" lon="5.71493">
        <ele>598.55</ele>
        <time>2015-04-21T09:43:05Z</time>
      </trkpt>
      <trkpt lat="44.01404" lon="5.71535">
        <ele>598.18</ele>
        <time>2015-04-21T09:43:09Z</time>
      </trkpt>
      <trkpt lat="44.01349" lon="5.71715">
        <ele>594.65</ele>
        <time>2015-04-21T09:43:24Z</time>
      </trkpt>
      <trkpt lat="44.01295" lon="5.7184">
        <ele>591.44</ele>
        <time>2015-04-21T09:43:34Z</time>
      </trkpt>
      <trkpt lat="44.01289" lon="5.71852">
        <ele>591.21</ele>
        <time>2015-04-21T09:43:35Z</time>
      </trkpt>
      <trkpt lat="44.01252" lon="5.71925">
        <ele>589.78</ele>
        <time>2015-04-21T09:43:41Z</time>
      </trkpt>
      <trkpt lat="44.01196" lon="5.72036">
        <ele>586.67</ele>
        <time>2015-04-21T09:43:50Z</time>
      </trkpt>
      <trkpt lat="44.0116" lon="5.72111">
        <ele>584.32</ele>
        <time>2015-04-21T09:43:56Z</time>
      </trkpt>
      <trkpt lat="44.01097" lon="5.72237">
        <ele>581.26</ele>
        <time>2015-04-21T09:44:06Z</time>
      </trkpt>
      <trkpt lat="44.01036" lon="5.72379">
        <ele>578.21</ele>
        <time>2015-04-21T09:44:17Z</time>
      </trkpt>
      <trkpt lat="44.00992" lon="5.72513">
        <ele>575.12</ele>
        <time>2015-04-21T09:44:27Z</time>
      </trkpt>
      <trkpt lat="44.0095" lon="5.72647">
        <ele>572.06</ele>
        <time>2015-04-21T09:44:37Z</time>
      </trkpt>
      <trkpt lat="44.00934" lon="5.72766">
        <ele>568.86</ele>
        <time>2015-04-21T09:44:45Z</time>
      </trkpt>
      <trkpt lat="44.00937" lon="5.72829">
        <ele>568.06</ele>
        <time>2015-04-21T09:44:49Z</time>
      </trkpt>
      <trkpt lat="44.00918" lon="5.72897">
        <ele>564.85</ele>
        <time>2015-04-21T09:44:54Z</time>
      </trkpt>
      <trkpt lat="44.00832" lon="5.73024">
        <ele>565.9</ele>
        <time>2015-04-21T09:45:07Z</time>
      </trkpt>
      <trkpt lat="44.00775" lon="5.73106">
        <ele>568.93</ele>
        <time>2015-04-21T09:45:18Z</time>
      </trkpt>
      <trkpt lat="44.0077" lon="5.73113">
        <ele>569.13</ele>
        <time>2015-04-21T09:45:19Z</time>
      </trkpt>
      <trkpt lat="44.00708" lon="5.73212">
        <ele>571.87</ele>
        <time>2015-04-21T09:45:34Z</time>
      </trkpt>
      <trkpt lat="44.00642" lon="5.733">
        <ele>568.49</ele>
        <time>2015-04-21T09:45:45Z</time>
      </trkpt>
      <trkpt lat="44.00597" lon="5.73355">
        <ele>565.24</ele>
        <time>2015-04-21T09:45:51Z</time>
      </trkpt>
      <trkpt lat="44.00549" lon="5.7341">
        <ele>561.88</ele>
        <time>2015-04-21T09:45:57Z</time>
      </trkpt>
      <trkpt lat="44.00514" lon="5.73444">
        <ele>558.7</ele>
        <time>2015-04-21T09:46:01Z</time>
      </trkpt>
      <trkpt lat="44.00486" lon="5.73468">
        <ele>557.27</ele>
        <time>2015-04-21T09:46:04Z</time>
      </trkpt>
      <trkpt lat="44.00458" lon="5.73491">
        <ele>556.03</ele>
        <time>2015-04-21T09:46:07Z</time>
      </trkpt>
      <trkpt lat="44.0038" lon="5.73553">
        <ele>552.3</ele>
        <time>2015-04-21T09:46:15Z</time>
      </trkpt>
      <trkpt lat="44.00339" lon="5.7358">
        <ele>548.98</ele>
        <time>2015-04-21T09:46:19Z</time>
      </trkpt>
      <trkpt lat="44.00318" lon="5.7359">
        <ele>548.35</ele>
        <time>2015-04-21T09:46:21Z</time>
      </trkpt>
      <trkpt lat="44.00255" lon="5.73618">
        <ele>545.19</ele>
        <time>2015-04-21T09:46:27Z</time>
      </trkpt>
      <trkpt lat="44.00245" lon="5.73622">
        <ele>544.92</ele>
        <time>2015-04-21T09:46:28Z</time>
      </trkpt>
      <trkpt lat="44.00153" lon="5.73661">
        <ele>541.46</ele>
        <time>2015-04-21T09:46:37Z</time>
      </trkpt>
      <trkpt lat="44.00113" lon="5.73677">
        <ele>538.41</ele>
        <time>2015-04-21T09:46:41Z</time>
      </trkpt>
      <trkpt lat="43.99999" lon="5.73726">
        <ele>535.37</ele>
        <time>2015-04-21T09:46:53Z</time>
      </trkpt>
      <trkpt lat="43.99887" lon="5.7377">
        <ele>532.06</ele>
        <time>2015-04-21T09:47:05Z</time>
      </trkpt>
      <trkpt lat="43.99857" lon="5.73782">
        <ele>530.24</ele>
        <time>2015-04-21T09:47:08Z</time>
      </trkpt>
      <trkpt lat="43.9975" lon="5.73816">
        <ele>526.82</ele>
        <time>2015-04-21T09:47:18Z</time>
      </trkpt>
      <trkpt lat="43.99728" lon="5.73816">
        <ele>526.06</ele>
        <time>2015-04-21T09:47:20Z</time>
      </trkpt>
      <trkpt lat="43.99628" lon="5.73812">
        <ele>523</ele>
        <time>2015-04-21T09:47:29Z</time>
      </trkpt>
      <trkpt lat="43.99584" lon="5.73811">
        <ele>521.63</ele>
        <time>2015-04-21T09:47:33Z</time>
      </trkpt>
      <trkpt lat="43.9949" lon="5.73791">
        <ele>518.39</ele>
        <time>2015-04-21T09:47:42Z</time>
      </trkpt>
      <trkpt lat="43.99428" lon="5.73761">
        <ele>515.33</ele>
        <time>2015-04-21T09:47:48Z</time>
      </trkpt>
      <trkpt lat="43.99384" lon="5.73746">
        <ele>512.12</ele>
        <time>2015-04-21T09:47:52Z</time>
      </trkpt>
      <trkpt lat="43.99331" lon="5.73757">
        <ele>509.91</ele>
        <time>2015-04-21T09:47:57Z</time>
      </trkpt>
      <trkpt lat="43.99301" lon="5.73777">
        <ele>508.05</ele>
        <time>2015-04-21T09:48:00Z</time>
      </trkpt>
      <trkpt lat="43.99261" lon="5.73773">
        <ele>506.26</ele>
        <time>2015-04-21T09:48:04Z</time>
      </trkpt>
      <trkpt lat="43.99131" lon="5.73713">
        <ele>504.83</ele>
        <time>2015-04-21T09:48:20Z</time>
      </trkpt>
      <trkpt lat="43.99094" lon="5.73708">
        <ele>504.22</ele>
        <time>2015-04-21T09:48:25Z</time>
      </trkpt>
      <trkpt lat="43.98965" lon="5.73671">
        <ele>501.93</ele>
        <time>2015-04-21T09:48:41Z</time>
      </trkpt>
      <trkpt lat="43.98836" lon="5.73633">
        <ele>499.77</ele>
        <time>2015-04-21T09:48:57Z</time>
      </trkpt>
      <trkpt lat="43.98767" lon="5.7362">
        <ele>499.22</ele>
        <time>2015-04-21T09:49:06Z</time>
      </trkpt>
      <trkpt lat="43.98738" lon="5.73626">
        <ele>499.17</ele>
        <time>2015-04-21T09:49:10Z</time>
      </trkpt>
      <trkpt lat="43.98625" lon="5.73672">
        <ele>497.88</ele>
        <time>2015-04-21T09:49:24Z</time>
      </trkpt>
      <trkpt lat="43.98493" lon="5.73681">
        <ele>494.82</ele>
        <time>2015-04-21T09:49:40Z</time>
      </trkpt>
      <trkpt lat="43.9837" lon="5.7367">
        <ele>494.06</ele>
        <time>2015-04-21T09:49:56Z</time>
      </trkpt>
      <trkpt lat="43.98269" lon="5.73626">
        <ele>494</ele>
        <time>2015-04-21T09:50:12Z</time>
      </trkpt>
      <trkpt lat="43.98157" lon="5.73567">
        <ele>494.31</ele>
        <time>2015-04-21T09:50:29Z</time>
      </trkpt>
      <trkpt lat="43.98051" lon="5.73515">
        <ele>493.78</ele>
        <time>2015-04-21T09:50:45Z</time>
      </trkpt>
      <trkpt lat="43.97983" lon="5.73491">
        <ele>491.56</ele>
        <time>2015-04-21T09:50:54Z</time>
      </trkpt>
      <trkpt lat="43.97873" lon="5.73425">
        <ele>488.65</ele>
        <time>2015-04-21T09:51:09Z</time>
      </trkpt>
      <trkpt lat="43.97866" lon="5.73419">
        <ele>488.38</ele>
        <time>2015-04-21T09:51:10Z</time>
      </trkpt>
      <trkpt lat="43.97751" lon="5.7334">
        <ele>488.19</ele>
        <time>2015-04-21T09:51:27Z</time>
      </trkpt>
      <trkpt lat="43.97646" lon="5.73304">
        <ele>489.09</ele>
        <time>2015-04-21T09:51:42Z</time>
      </trkpt>
      <trkpt lat="43.97547" lon="5.73288">
        <ele>487.94</ele>
        <time>2015-04-21T09:51:55Z</time>
      </trkpt>
      <trkpt lat="43.97482" lon="5.73251">
        <ele>487.56</ele>
        <time>2015-04-21T09:52:04Z</time>
      </trkpt>
      <trkpt lat="43.97436" lon="5.73252">
        <ele>487.8</ele>
        <time>2015-04-21T09:52:10Z</time>
      </trkpt>
      <trkpt lat="43.97326" lon="5.73291">
        <ele>485.33</ele>
        <time>2015-04-21T09:52:24Z</time>
      </trkpt>
      <trkpt lat="43.97222" lon="5.73316">
        <ele>484.42</ele>
        <time>2015-04-21T09:52:37Z</time>
      </trkpt>
      <trkpt lat="43.9713" lon="5.7334">
        <ele>483.71</ele>
        <time>2015-04-21T09:52:49Z</time>
      </trkpt>
      <trkpt lat="43.97061" lon="5.73376">
        <ele>484.94</ele>
        <time>2015-04-21T09:53:00Z</time>
      </trkpt>
      <trkpt lat="43.96998" lon="5.73413">
        <ele>486.87</ele>
        <time>2015-04-21T09:53:11Z</time>
      </trkpt>
      <trkpt lat="43.9693" lon="5.73446">
        <ele>489.1</ele>
        <time>2015-04-21T09:53:22Z</time>
      </trkpt>
      <trkpt lat="43.96918" lon="5.73449">
        <ele>489.36</ele>
        <time>2015-04-21T09:53:24Z</time>
      </trkpt>
      <trkpt lat="43.969" lon="5.73449">
        <ele>489.78</ele>
        <time>2015-04-21T09:53:27Z</time>
      </trkpt>
      <trkpt lat="43.96866" lon="5.73439">
        <ele>490.41</ele>
        <time>2015-04-21T09:53:33Z</time>
      </trkpt>
      <trkpt lat="43.96796" lon="5.73443">
        <ele>492.99</ele>
        <time>2015-04-21T09:53:46Z</time>
      </trkpt>
      <trkpt lat="43.96719" lon="5.73434">
        <ele>496.45</ele>
        <time>2015-04-21T09:54:01Z</time>
      </trkpt>
      <trkpt lat="43.96713" lon="5.73435">
        <ele>496.71</ele>
        <time>2015-04-21T09:54:02Z</time>
      </trkpt>
      <trkpt lat="43.96689" lon="5.73443">
        <ele>497.46</ele>
        <time>2015-04-21T09:54:06Z</time>
      </trkpt>
      <trkpt lat="43.96619" lon="5.73508">
        <ele>497.82</ele>
        <time>2015-04-21T09:54:19Z</time>
      </trkpt>
      <trkpt lat="43.96597" lon="5.73525">
        <ele>498.53</ele>
        <time>2015-04-21T09:54:23Z</time>
      </trkpt>
      <trkpt lat="43.96495" lon="5.73571">
        <ele>498.18</ele>
        <time>2015-04-21T09:54:38Z</time>
      </trkpt>
      <trkpt lat="43.96449" lon="5.73593">
        <ele>497.55</ele>
        <time>2015-04-21T09:54:44Z</time>
      </trkpt>
      <trkpt lat="43.96428" lon="5.73611">
        <ele>496.15</ele>
        <time>2015-04-21T09:54:47Z</time>
      </trkpt>
      <trkpt lat="43.96351" lon="5.73675">
        <ele>492.95</ele>
        <time>2015-04-21T09:54:57Z</time>
      </trkpt>
      <trkpt lat="43.96256" lon="5.73705">
        <ele>488.96</ele>
        <time>2015-04-21T09:55:07Z</time>
      </trkpt>
      <trkpt lat="43.96235" lon="5.73711">
        <ele>488.25</ele>
        <time>2015-04-21T09:55:09Z</time>
      </trkpt>
      <trkpt lat="43.96153" lon="5.73734">
        <ele>485.09</ele>
        <time>2015-04-21T09:55:17Z</time>
      </trkpt>
      <trkpt lat="43.96088" lon="5.73752">
        <ele>481.84</ele>
        <time>2015-04-21T09:55:23Z</time>
      </trkpt>
      <trkpt lat="43.96021" lon="5.73769">
        <ele>478.61</ele>
        <time>2015-04-21T09:55:29Z</time>
      </trkpt>
      <trkpt lat="43.95965" lon="5.73783">
        <ele>475.34</ele>
        <time>2015-04-21T09:55:34Z</time>
      </trkpt>
      <trkpt lat="43.95901" lon="5.7381">
        <ele>472.05</ele>
        <time>2015-04-21T09:55:40Z</time>
      </trkpt>
      <trkpt lat="43.95858" lon="5.7383">
        <ele>468.93</ele>
        <time>2015-04-21T09:55:44Z</time>
      </trkpt>
      <trkpt lat="43.95847" lon="5.73833">
        <ele>468.68</ele>
        <time>2015-04-21T09:55:45Z</time>
      </trkpt>
      <trkpt lat="43.95781" lon="5.73859">
        <ele>465.22</ele>
        <time>2015-04-21T09:55:51Z</time>
      </trkpt>
      <trkpt lat="43.95771" lon="5.73864">
        <ele>464.83</ele>
        <time>2015-04-21T09:55:52Z</time>
      </trkpt>
      <trkpt lat="43.9574" lon="5.73914">
        <ele>462.56</ele>
        <time>2015-04-21T09:55:57Z</time>
      </trkpt>
      <trkpt lat="43.95727" lon="5.73962">
        <ele>461.42</ele>
        <time>2015-04-21T09:56:01Z</time>
      </trkpt>
      <trkpt lat="43.95698" lon="5.74003">
        <ele>461.34</ele>
        <time>2015-04-21T09:56:06Z</time>
      </trkpt>
      <trkpt lat="43.95643" lon="5.7404">
        <ele>462.14</ele>
        <time>2015-04-21T09:56:14Z</time>
      </trkpt>
      <trkpt lat="43.95622" lon="5.7406">
        <ele>462.15</ele>
        <time>2015-04-21T09:56:18Z</time>
      </trkpt>
      <trkpt lat="43.95613" lon="5.74073">
        <ele>462.58</ele>
        <time>2015-04-21T09:56:20Z</time>
      </trkpt>
      <trkpt lat="43.95567" lon="5.74168">
        <ele>464.56</ele>
        <time>2015-04-21T09:56:34Z</time>
      </trkpt>
      <trkpt lat="43.95533" lon="5.74244">
        <ele>467.18</ele>
        <time>2015-04-21T09:56:47Z</time>
      </trkpt>
      <trkpt lat="43.95489" lon="5.74338">
        <ele>469.45</ele>
        <time>2015-04-21T09:57:01Z</time>
      </trkpt>
      <trkpt lat="43.95481" lon="5.7435">
        <ele>470.1</ele>
        <time>2015-04-21T09:57:03Z</time>
      </trkpt>
      <trkpt lat="43.95404" lon="5.74408">
        <ele>472.65</ele>
        <time>2015-04-21T09:57:17Z</time>
      </trkpt>
      <trkpt lat="43.95324" lon="5.74443">
        <ele>475.35</ele>
        <time>2015-04-21T09:57:32Z</time>
      </trkpt>
      <trkpt lat="43.95305" lon="5.74454">
        <ele>476.16</ele>
        <time>2015-04-21T09:57:36Z</time>
      </trkpt>
      <trkpt lat="43.9525" lon="5.74509">
        <ele>478.28</ele>
        <time>2015-04-21T09:57:50Z</time>
      </trkpt>
      <trkpt lat="43.95202" lon="5.74569">
        <ele>480.57</ele>
        <time>2015-04-21T09:58:03Z</time>
      </trkpt>
      <trkpt lat="43.95151" lon="5.74632">
        <ele>482.65</ele>
        <time>2015-04-21T09:58:15Z</time>
      </trkpt>
      <trkpt lat="43.95136" lon="5.74642">
        <ele>483.12</ele>
        <time>2015-04-21T09:58:18Z</time>
      </trkpt>
      <trkpt lat="43.95055" lon="5.74675">
        <ele>485.98</ele>
        <time>2015-04-21T09:58:32Z</time>
      </trkpt>
      <trkpt lat="43.94976" lon="5.74735">
        <ele>488.6</ele>
        <time>2015-04-21T09:58:47Z</time>
      </trkpt>
      <trkpt lat="43.94905" lon="5.74806">
        <ele>491.12</ele>
        <time>2015-04-21T09:59:02Z</time>
      </trkpt>
      <trkpt lat="43.94865" lon="5.74884">
        <ele>493.52</ele>
        <time>2015-04-21T09:59:15Z</time>
      </trkpt>
      <trkpt lat="43.94854" lon="5.74924">
        <ele>494.46</ele>
        <time>2015-04-21T09:59:21Z</time>
      </trkpt>
      <trkpt lat="43.94841" lon="5.75005">
        <ele>496.33</ele>
        <time>2015-04-21T09:59:33Z</time>
      </trkpt>
      <trkpt lat="43.94814" lon="5.75027">
        <ele>497.48</ele>
        <time>2015-04-21T09:59:40Z</time>
      </trkpt>
      <trkpt lat="43.94803" lon="5.75014">
        <ele>498.11</ele>
        <time>2015-04-21T09:59:43Z</time>
      </trkpt>
      <trkpt lat="43.94781" lon="5.74976">
        <ele>499.17</ele>
        <time>2015-04-21T09:59:50Z</time>
      </trkpt>
      <trkpt lat="43.94759" lon="5.74956">
        <ele>500</ele>
        <time>2015-04-21T09:59:55Z</time>
      </trkpt>
      <trkpt lat="43.94738" lon="5.74948">
        <ele>500.37</ele>
        <time>2015-04-21T09:59:59Z</time>
      </trkpt>
      <trkpt lat="43.94663" lon="5.74976">
        <ele>502.7</ele>
        <time>2015-04-21T10:00:13Z</time>
      </trkpt>
      <trkpt lat="43.94653" lon="5.74983">
        <ele>502.88</ele>
        <time>2015-04-21T10:00:15Z</time>
      </trkpt>
      <trkpt lat="43.94634" lon="5.75002">
        <ele>503.78</ele>
        <time>2015-04-21T10:00:19Z</time>
      </trkpt>
      <trkpt lat="43.94622" lon="5.75022">
        <ele>504.62</ele>
        <time>2015-04-21T10:00:22Z</time>
      </trkpt>
      <trkpt lat="43.94605" lon="5.75071">
        <ele>505.63</ele>
        <time>2015-04-21T10:00:29Z</time>
      </trkpt>
      <trkpt lat="43.94606" lon="5.75117">
        <ele>506.45</ele>
        <time>2015-04-21T10:00:35Z</time>
      </trkpt>
      <trkpt lat="43.9461" lon="5.7516">
        <ele>507.41</ele>
        <time>2015-04-21T10:00:41Z</time>
      </trkpt>
      <trkpt lat="43.94588" lon="5.75246">
        <ele>509.4</ele>
        <time>2015-04-21T10:00:54Z</time>
      </trkpt>
      <trkpt lat="43.94567" lon="5.75278">
        <ele>510.36</ele>
        <time>2015-04-21T10:01:00Z</time>
      </trkpt>
      <trkpt lat="43.94508" lon="5.75353">
        <ele>512.52</ele>
        <time>2015-04-21T10:01:15Z</time>
      </trkpt>
      <trkpt lat="43.9444" lon="5.75414">
        <ele>514.14</ele>
        <time>2015-04-21T10:01:29Z</time>
      </trkpt>
      <trkpt lat="43.94385" lon="5.75457">
        <ele>515.82</ele>
        <time>2015-04-21T10:01:40Z</time>
      </trkpt>
      <trkpt lat="43.94335" lon="5.75486">
        <ele>516.89</ele>
        <time>2015-04-21T10:01:49Z</time>
      </trkpt>
      <trkpt lat="43.94322" lon="5.75537">
        <ele>519.05</ele>
        <time>2015-04-21T10:01:56Z</time>
      </trkpt>
      <trkpt lat="43.94329" lon="5.75551">
        <ele>519.37</ele>
        <time>2015-04-21T10:01:58Z</time>
      </trkpt>
      <trkpt lat="43.94351" lon="5.75583">
        <ele>519.93</ele>
        <time>2015-04-21T10:02:03Z</time>
      </trkpt>
      <trkpt lat="43.94424" lon="5.75674">
        <ele>521.61</ele>
        <time>2015-04-21T10:02:18Z</time>
      </trkpt>
      <trkpt lat="43.94494" lon="5.75763">
        <ele>522.66</ele>
        <time>2015-04-21T10:02:32Z</time>
      </trkpt>
      <trkpt lat="43.94568" lon="5.75859">
        <ele>523.53</ele>
        <time>2015-04-21T10:02:46Z</time>
      </trkpt>
      <trkpt lat="43.9465" lon="5.75965">
        <ele>524.1</ele>
        <time>2015-04-21T10:03:02Z</time>
      </trkpt>
      <trkpt lat="43.94736" lon="5.76072">
        <ele>524.35</ele>
        <time>2015-04-21T10:03:18Z</time>
      </trkpt>
      <trkpt lat="43.94808" lon="5.76161">
        <ele>524.68</ele>
        <time>2015-04-21T10:03:32Z</time>
      </trkpt>
      <trkpt lat="43.94851" lon="5.76262">
        <ele>525.04</ele>
        <time>2015-04-21T10:03:44Z</time>
      </trkpt>
      <trkpt lat="43.9485" lon="5.76382">
        <ele>523.94</ele>
        <time>2015-04-21T10:03:55Z</time>
      </trkpt>
      <trkpt lat="43.94842" lon="5.7653">
        <ele>524.59</ele>
        <time>2015-04-21T10:04:09Z</time>
      </trkpt>
      <trkpt lat="43.94841" lon="5.76702">
        <ele>522.97</ele>
        <time>2015-04-21T10:04:25Z</time>
      </trkpt>
      <trkpt lat="43.94844" lon="5.768">
        <ele>522.21</ele>
        <time>2015-04-21T10:04:34Z</time>
      </trkpt>
      <trkpt lat="43.94886" lon="5.76873">
        <ele>521.02</ele>
        <time>2015-04-21T10:04:42Z</time>
      </trkpt>
      <trkpt lat="43.94895" lon="5.76879">
        <ele>520.83</ele>
        <time>2015-04-21T10:04:43Z</time>
      </trkpt>
      <trkpt lat="43.9494" lon="5.76909">
        <ele>519.05</ele>
        <time>2015-04-21T10:04:48Z</time>
      </trkpt>
      <trkpt lat="43.9496" lon="5.76917">
        <ele>518.45</ele>
        <time>2015-04-21T10:04:50Z</time>
      </trkpt>
      <trkpt lat="43.95053" lon="5.76906">
        <ele>516.26</ele>
        <time>2015-04-21T10:04:59Z</time>
      </trkpt>
      <trkpt lat="43.95112" lon="5.76937">
        <ele>514.38</ele>
        <time>2015-04-21T10:05:06Z</time>
      </trkpt>
      <trkpt lat="43.95194" lon="5.77044">
        <ele>512.3</ele>
        <time>2015-04-21T10:05:20Z</time>
      </trkpt>
      <trkpt lat="43.95207" lon="5.77065">
        <ele>512.22</ele>
        <time>2015-04-21T10:05:23Z</time>
      </trkpt>
      <trkpt lat="43.95212" lon="5.77129">
        <ele>509.92</ele>
        <time>2015-04-21T10:05:30Z</time>
      </trkpt>
      <trkpt lat="43.95245" lon="5.77145">
        <ele>509.43</ele>
        <time>2015-04-21T10:05:35Z</time>
      </trkpt>
      <trkpt lat="43.95252" lon="5.77141">
        <ele>509.71</ele>
        <time>2015-04-21T10:05:36Z</time>
      </trkpt>
      <trkpt lat="43.95315" lon="5.77136">
        <ele>510.62</ele>
        <time>2015-04-21T10:05:45Z</time>
      </trkpt>
      <trkpt lat="43.95372" lon="5.77167">
        <ele>510.43</ele>
        <time>2015-04-21T10:05:53Z</time>
      </trkpt>
      <trkpt lat="43.9545" lon="5.77264">
        <ele>509.9</ele>
        <time>2015-04-21T10:06:06Z</time>
      </trkpt>
      <trkpt lat="43.9549" lon="5.77354">
        <ele>512.05</ele>
        <time>2015-04-21T10:06:17Z</time>
      </trkpt>
      <trkpt lat="43.9552" lon="5.77455">
        <ele>513.51</ele>
        <time>2015-04-21T10:06:29Z</time>
      </trkpt>
      <trkpt lat="43.95539" lon="5.77524">
        <ele>513.32</ele>
        <time>2015-04-21T10:06:37Z</time>
      </trkpt>
      <trkpt lat="43.95588" lon="5.7758">
        <ele>514.5</ele>
        <time>2015-04-21T10:06:47Z</time>
      </trkpt>
      <trkpt lat="43.956" lon="5.77612">
        <ele>514.78</ele>
        <time>2015-04-21T10:06:52Z</time>
      </trkpt>
      <trkpt lat="43.95602" lon="5.77629">
        <ele>514.68</ele>
        <time>2015-04-21T10:06:54Z</time>
      </trkpt>
      <trkpt lat="43.95609" lon="5.77654">
        <ele>514.38</ele>
        <time>2015-04-21T10:06:57Z</time>
      </trkpt>
      <trkpt lat="43.95648" lon="5.77736">
        <ele>514.46</ele>
        <time>2015-04-21T10:07:08Z</time>
      </trkpt>
      <trkpt lat="43.95654" lon="5.77759">
        <ele>514.1</ele>
        <time>2015-04-21T10:07:11Z</time>
      </trkpt>
      <trkpt lat="43.95639" lon="5.77803">
        <ele>514.59</ele>
        <time>2015-04-21T10:07:18Z</time>
      </trkpt>
      <trkpt lat="43.95593" lon="5.77794">
        <ele>514.55</ele>
        <time>2015-04-21T10:07:26Z</time>
      </trkpt>
      <trkpt lat="43.9557" lon="5.77781">
        <ele>513.43</ele>
        <time>2015-04-21T10:07:32Z</time>
      </trkpt>
      <trkpt lat="43.95565" lon="5.77788">
        <ele>512.83</ele>
        <time>2015-04-21T10:07:33Z</time>
      </trkpt>
      <trkpt lat="43.9551" lon="5.77894">
        <ele>511.79</ele>
        <time>2015-04-21T10:07:46Z</time>
      </trkpt>
      <trkpt lat="43.95488" lon="5.77967">
        <ele>512.3</ele>
        <time>2015-04-21T10:07:55Z</time>
      </trkpt>
      <trkpt lat="43.95484" lon="5.77981">
        <ele>512.41</ele>
        <time>2015-04-21T10:07:57Z</time>
      </trkpt>
      <trkpt lat="43.95483" lon="5.78005">
        <ele>512.52</ele>
        <time>2015-04-21T10:08:01Z</time>
      </trkpt>
      <trkpt lat="43.95473" lon="5.78057">
        <ele>513.9</ele>
        <time>2015-04-21T10:08:13Z</time>
      </trkpt>
      <trkpt lat="43.95464" lon="5.78116">
        <ele>514.61</ele>
        <time>2015-04-21T10:08:22Z</time>
      </trkpt>
      <trkpt lat="43.95461" lon="5.78144">
        <ele>515.11</ele>
        <time>2015-04-21T10:08:26Z</time>
      </trkpt>
      <trkpt lat="43.95462" lon="5.78173">
        <ele>515.96</ele>
        <time>2015-04-21T10:08:30Z</time>
      </trkpt>
      <trkpt lat="43.95467" lon="5.7824">
        <ele>518.3</ele>
        <time>2015-04-21T10:08:40Z</time>
      </trkpt>
      <trkpt lat="43.95451" lon="5.78288">
        <ele>521.65</ele>
        <time>2015-04-21T10:08:52Z</time>
      </trkpt>
      <trkpt lat="43.95418" lon="5.78324">
        <ele>524.83</ele>
        <time>2015-04-21T10:09:06Z</time>
      </trkpt>
      <trkpt lat="43.95369" lon="5.78358">
        <ele>528.01</ele>
        <time>2015-04-21T10:09:19Z</time>
      </trkpt>
      <trkpt lat="43.95328" lon="5.78394">
        <ele>531.08</ele>
        <time>2015-04-21T10:09:31Z</time>
      </trkpt>
      <trkpt lat="43.95307" lon="5.7844">
        <ele>534.28</ele>
        <time>2015-04-21T10:09:43Z</time>
      </trkpt>
      <trkpt lat="43.9532" lon="5.78486">
        <ele>536.66</ele>
        <time>2015-04-21T10:09:53Z</time>
      </trkpt>
      <trkpt lat="43.95347" lon="5.78528">
        <ele>539.71</ele>
        <time>2015-04-21T10:10:05Z</time>
      </trkpt>
      <trkpt lat="43.95385" lon="5.78553">
        <ele>542.9</ele>
        <time>2015-04-21T10:10:19Z</time>
      </trkpt>
      <trkpt lat="43.95424" lon="5.78564">
        <ele>546.02</ele>
        <time>2015-04-21T10:10:31Z</time>
      </trkpt>
      <trkpt lat="43.95434" lon="5.78603">
        <ele>549.25</ele>
        <time>2015-04-21T10:10:42Z</time>
      </trkpt>
      <trkpt lat="43.95412" lon="5.78665">
        <ele>552.39</ele>
        <time>2015-04-21T10:10:55Z</time>
      </trkpt>
      <trkpt lat="43.95409" lon="5.78675">
        <ele>553.01</ele>
        <time>2015-04-21T10:10:57Z</time>
      </trkpt>
      <trkpt lat="43.95405" lon="5.78685">
        <ele>553.58</ele>
        <time>2015-04-21T10:10:59Z</time>
      </trkpt>
      <trkpt lat="43.95384" lon="5.78777">
        <ele>554.37</ele>
        <time>2015-04-21T10:11:12Z</time>
      </trkpt>
      <trkpt lat="43.95382" lon="5.78783">
        <ele>554.21</ele>
        <time>2015-04-21T10:11:13Z</time>
      </trkpt>
      <trkpt lat="43.95367" lon="5.78808">
        <ele>554.17</ele>
        <time>2015-04-21T10:11:17Z</time>
      </trkpt>
      <trkpt lat="43.95315" lon="5.78846">
        <ele>554.76</ele>
        <time>2015-04-21T10:11:27Z</time>
      </trkpt>
      <trkpt lat="43.95286" lon="5.78876">
        <ele>555.85</ele>
        <time>2015-04-21T10:11:34Z</time>
      </trkpt>
      <trkpt lat="43.9524" lon="5.78964">
        <ele>555.17</ele>
        <time>2015-04-21T10:11:46Z</time>
      </trkpt>
      <trkpt lat="43.95225" lon="5.78987">
        <ele>554.87</ele>
        <time>2015-04-21T10:11:49Z</time>
      </trkpt>
      <trkpt lat="43.95141" lon="5.79044">
        <ele>552.74</ele>
        <time>2015-04-21T10:12:00Z</time>
      </trkpt>
      <trkpt lat="43.9504" lon="5.7908">
        <ele>550.17</ele>
        <time>2015-04-21T10:12:12Z</time>
      </trkpt>
      <trkpt lat="43.94986" lon="5.79094">
        <ele>549.83</ele>
        <time>2015-04-21T10:12:19Z</time>
      </trkpt>
      <trkpt lat="43.94899" lon="5.79091">
        <ele>547.55</ele>
        <time>2015-04-21T10:12:31Z</time>
      </trkpt>
      <trkpt lat="43.94825" lon="5.79101">
        <ele>544.12</ele>
        <time>2015-04-21T10:12:40Z</time>
      </trkpt>
      <trkpt lat="43.94748" lon="5.79129">
        <ele>541</ele>
        <time>2015-04-21T10:12:48Z</time>
      </trkpt>
      <trkpt lat="43.94644" lon="5.79154">
        <ele>537.38</ele>
        <time>2015-04-21T10:12:58Z</time>
      </trkpt>
      <trkpt lat="43.94578" lon="5.79155">
        <ele>533.88</ele>
        <time>2015-04-21T10:13:04Z</time>
      </trkpt>
      <trkpt lat="43.94556" lon="5.7916">
        <ele>532.41</ele>
        <time>2015-04-21T10:13:06Z</time>
      </trkpt>
      <trkpt lat="43.94516" lon="5.79188">
        <ele>529.58</ele>
        <time>2015-04-21T10:13:10Z</time>
      </trkpt>
      <trkpt lat="43.94439" lon="5.79265">
        <ele>525.55</ele>
        <time>2015-04-21T10:13:18Z</time>
      </trkpt>
      <trkpt lat="43.94392" lon="5.79311">
        <ele>522.08</ele>
        <time>2015-04-21T10:13:23Z</time>
      </trkpt>
      <trkpt lat="43.94335" lon="5.79391">
        <ele>518.84</ele>
        <time>2015-04-21T10:13:30Z</time>
      </trkpt>
      <trkpt lat="43.94293" lon="5.79483">
        <ele>515.61</ele>
        <time>2015-04-21T10:13:37Z</time>
      </trkpt>
      <trkpt lat="43.94286" lon="5.79495">
        <ele>515.23</ele>
        <time>2015-04-21T10:13:38Z</time>
      </trkpt>
      <trkpt lat="43.94203" lon="5.79584">
        <ele>511.57</ele>
        <time>2015-04-21T10:13:48Z</time>
      </trkpt>
      <trkpt lat="43.94125" lon="5.79656">
        <ele>508.49</ele>
        <time>2015-04-21T10:13:57Z</time>
      </trkpt>
      <trkpt lat="43.94061" lon="5.79704">
        <ele>505.12</ele>
        <time>2015-04-21T10:14:04Z</time>
      </trkpt>
      <trkpt lat="43.94042" lon="5.79718">
        <ele>504.49</ele>
        <time>2015-04-21T10:14:06Z</time>
      </trkpt>
      <trkpt lat="43.93986" lon="5.79759">
        <ele>501.25</ele>
        <time>2015-04-21T10:14:12Z</time>
      </trkpt>
      <trkpt lat="43.93912" lon="5.79809">
        <ele>497.89</ele>
        <time>2015-04-21T10:14:20Z</time>
      </trkpt>
      <trkpt lat="43.93843" lon="5.79898">
        <ele>495.04</ele>
        <time>2015-04-21T10:14:29Z</time>
      </trkpt>
      <trkpt lat="43.938" lon="5.79981">
        <ele>491.83</ele>
        <time>2015-04-21T10:14:36Z</time>
      </trkpt>
      <trkpt lat="43.93784" lon="5.8002">
        <ele>490.55</ele>
        <time>2015-04-21T10:14:39Z</time>
      </trkpt>
      <trkpt lat="43.93751" lon="5.80111">
        <ele>488.43</ele>
        <time>2015-04-21T10:14:46Z</time>
      </trkpt>
      <trkpt lat="43.93673" lon="5.80219">
        <ele>487.16</ele>
        <time>2015-04-21T10:14:58Z</time>
      </trkpt>
      <trkpt lat="43.93581" lon="5.80292">
        <ele>486.41</ele>
        <time>2015-04-21T10:15:11Z</time>
      </trkpt>
      <trkpt lat="43.93495" lon="5.80389">
        <ele>485.58</ele>
        <time>2015-04-21T10:15:25Z</time>
      </trkpt>
      <trkpt lat="43.93442" lon="5.80506">
        <ele>484.78</ele>
        <time>2015-04-21T10:15:38Z</time>
      </trkpt>
      <trkpt lat="43.93392" lon="5.80658">
        <ele>486.19</ele>
        <time>2015-04-21T10:15:55Z</time>
      </trkpt>
      <trkpt lat="43.93329" lon="5.80777">
        <ele>487.78</ele>
        <time>2015-04-21T10:16:12Z</time>
      </trkpt>
      <trkpt lat="43.93268" lon="5.80891">
        <ele>488.35</ele>
        <time>2015-04-21T10:16:28Z</time>
      </trkpt>
      <trkpt lat="43.93218" lon="5.80997">
        <ele>489.81</ele>
        <time>2015-04-21T10:16:44Z</time>
      </trkpt>
      <trkpt lat="43.93181" lon="5.81082">
        <ele>492.62</ele>
        <time>2015-04-21T10:16:57Z</time>
      </trkpt>
      <trkpt lat="43.9314" lon="5.81184">
        <ele>492.53</ele>
        <time>2015-04-21T10:17:10Z</time>
      </trkpt>
      <trkpt lat="43.93102" lon="5.81282">
        <ele>489.21</ele>
        <time>2015-04-21T10:17:19Z</time>
      </trkpt>
      <trkpt lat="43.93068" lon="5.81366">
        <ele>486.15</ele>
        <time>2015-04-21T10:17:26Z</time>
      </trkpt>
      <trkpt lat="43.93046" lon="5.81426">
        <ele>484.75</ele>
        <time>2015-04-21T10:17:31Z</time>
      </trkpt>
      <trkpt lat="43.93042" lon="5.81551">
        <ele>485.18</ele>
        <time>2015-04-21T10:17:42Z</time>
      </trkpt>
      <trkpt lat="43.9304" lon="5.81663">
        <ele>487.58</ele>
        <time>2015-04-21T10:17:56Z</time>
      </trkpt>
      <trkpt lat="43.93068" lon="5.81754">
        <ele>490.67</ele>
        <time>2015-04-21T10:18:09Z</time>
      </trkpt>
      <trkpt lat="43.93093" lon="5.81823">
        <ele>492.11</ele>
        <time>2015-04-21T10:18:19Z</time>
      </trkpt>
      <trkpt lat="43.93079" lon="5.81853">
        <ele>492.74</ele>
        <time>2015-04-21T10:18:25Z</time>
      </trkpt>
      <trkpt lat="43.9307" lon="5.81847">
        <ele>492.9</ele>
        <time>2015-04-21T10:18:27Z</time>
      </trkpt>
      <trkpt lat="43.9303" lon="5.81808">
        <ele>494.85</ele>
        <time>2015-04-21T10:18:36Z</time>
      </trkpt>
      <trkpt lat="43.93015" lon="5.81797">
        <ele>495.29</ele>
        <time>2015-04-21T10:18:39Z</time>
      </trkpt>
      <trkpt lat="43.92934" lon="5.81773">
        <ele>498.15</ele>
        <time>2015-04-21T10:18:55Z</time>
      </trkpt>
      <trkpt lat="43.92862" lon="5.81749">
        <ele>500.54</ele>
        <time>2015-04-21T10:19:10Z</time>
      </trkpt>
      <trkpt lat="43.92794" lon="5.8173">
        <ele>503.56</ele>
        <time>2015-04-21T10:19:24Z</time>
      </trkpt>
      <trkpt lat="43.9273" lon="5.81733">
        <ele>505.67</ele>
        <time>2015-04-21T10:19:37Z</time>
      </trkpt>
      <trkpt lat="43.92715" lon="5.81736">
        <ele>506.4</ele>
        <time>2015-04-21T10:19:40Z</time>
      </trkpt>
      <trkpt lat="43.92628" lon="5.81735">
        <ele>509.84</ele>
        <time>2015-04-21T10:19:57Z</time>
      </trkpt>
      <trkpt lat="43.92548" lon="5.81737">
        <ele>512.82</ele>
        <time>2015-04-21T10:20:13Z</time>
      </trkpt>
      <trkpt lat="43.92488" lon="5.81734">
        <ele>515.88</ele>
        <time>2015-04-21T10:20:26Z</time>
      </trkpt>
      <trkpt lat="43.9242" lon="5.81731">
        <ele>519.12</ele>
        <time>2015-04-21T10:20:40Z</time>
      </trkpt>
      <trkpt lat="43.92382" lon="5.81729">
        <ele>520.7</ele>
        <time>2015-04-21T10:20:48Z</time>
      </trkpt>
      <trkpt lat="43.92311" lon="5.81766">
        <ele>520.25</ele>
        <time>2015-04-21T10:21:01Z</time>
      </trkpt>
      <trkpt lat="43.92256" lon="5.81854">
        <ele>517.2</ele>
        <time>2015-04-21T10:21:11Z</time>
      </trkpt>
      <trkpt lat="43.92223" lon="5.81909">
        <ele>514.11</ele>
        <time>2015-04-21T10:21:16Z</time>
      </trkpt>
      <trkpt lat="43.92194" lon="5.81953">
        <ele>511.64</ele>
        <time>2015-04-21T10:21:20Z</time>
      </trkpt>
      <trkpt lat="43.92152" lon="5.81971">
        <ele>511.1</ele>
        <time>2015-04-21T10:21:25Z</time>
      </trkpt>
      <trkpt lat="43.92097" lon="5.81945">
        <ele>513.5</ele>
        <time>2015-04-21T10:21:34Z</time>
      </trkpt>
      <trkpt lat="43.9207" lon="5.81959">
        <ele>516</ele>
        <time>2015-04-21T10:21:40Z</time>
      </trkpt>
      <trkpt lat="43.92054" lon="5.82012">
        <ele>518.39</ele>
        <time>2015-04-21T10:21:48Z</time>
      </trkpt>
      <trkpt lat="43.92053" lon="5.82064">
        <ele>520.23</ele>
        <time>2015-04-21T10:21:55Z</time>
      </trkpt>
      <trkpt lat="43.92079" lon="5.82107">
        <ele>522.91</ele>
        <time>2015-04-21T10:22:03Z</time>
      </trkpt>
      <trkpt lat="43.92125" lon="5.82136">
        <ele>525.11</ele>
        <time>2015-04-21T10:22:15Z</time>
      </trkpt>
      <trkpt lat="43.92134" lon="5.82149">
        <ele>525.75</ele>
        <time>2015-04-21T10:22:18Z</time>
      </trkpt>
      <trkpt lat="43.92143" lon="5.82174">
        <ele>527.05</ele>
        <time>2015-04-21T10:22:23Z</time>
      </trkpt>
      <trkpt lat="43.92141" lon="5.82204">
        <ele>528.46</ele>
        <time>2015-04-21T10:22:28Z</time>
      </trkpt>
      <trkpt lat="43.92133" lon="5.82235">
        <ele>530.22</ele>
        <time>2015-04-21T10:22:34Z</time>
      </trkpt>
      <trkpt lat="43.92132" lon="5.82258">
        <ele>531.03</ele>
        <time>2015-04-21T10:22:38Z</time>
      </trkpt>
      <trkpt lat="43.92134" lon="5.82271">
        <ele>531.27</ele>
        <time>2015-04-21T10:22:40Z</time>
      </trkpt>
      <trkpt lat="43.9214" lon="5.82315">
        <ele>532.78</ele>
        <time>2015-04-21T10:22:47Z</time>
      </trkpt>
      <trkpt lat="43.92172" lon="5.82377">
        <ele>535.05</ele>
        <time>2015-04-21T10:22:58Z</time>
      </trkpt>
      <trkpt lat="43.92181" lon="5.82404">
        <ele>535.52</ele>
        <time>2015-04-21T10:23:02Z</time>
      </trkpt>
      <trkpt lat="43.92184" lon="5.82418">
        <ele>535.87</ele>
        <time>2015-04-21T10:23:04Z</time>
      </trkpt>
      <trkpt lat="43.92198" lon="5.82449">
        <ele>536.66</ele>
        <time>2015-04-21T10:23:09Z</time>
      </trkpt>
      <trkpt lat="43.92225" lon="5.82487">
        <ele>537.32</ele>
        <time>2015-04-21T10:23:16Z</time>
      </trkpt>
      <trkpt lat="43.9223" lon="5.82535">
        <ele>538.46</ele>
        <time>2015-04-21T10:23:23Z</time>
      </trkpt>
      <trkpt lat="43.92208" lon="5.8263">
        <ele>540.34</ele>
        <time>2015-04-21T10:23:37Z</time>
      </trkpt>
      <trkpt lat="43.92204" lon="5.82659">
        <ele>540.26</ele>
        <time>2015-04-21T10:23:42Z</time>
      </trkpt>
      <trkpt lat="43.922" lon="5.82711">
        <ele>539.31</ele>
        <time>2015-04-21T10:23:54Z</time>
      </trkpt>
      <trkpt lat="43.92194" lon="5.82765">
        <ele>538.62</ele>
        <time>2015-04-21T10:24:02Z</time>
      </trkpt>
      <trkpt lat="43.92167" lon="5.82803">
        <ele>537.77</ele>
        <time>2015-04-21T10:24:08Z</time>
      </trkpt>
      <trkpt lat="43.9214" lon="5.8282">
        <ele>537.69</ele>
        <time>2015-04-21T10:24:12Z</time>
      </trkpt>
      <trkpt lat="43.92124" lon="5.82856">
        <ele>537.29</ele>
        <time>2015-04-21T10:24:17Z</time>
      </trkpt>
      <trkpt lat="43.92122" lon="5.829">
        <ele>536.87</ele>
        <time>2015-04-21T10:24:22Z</time>
      </trkpt>
      <trkpt lat="43.92107" lon="5.82934">
        <ele>536.71</ele>
        <time>2015-04-21T10:24:27Z</time>
      </trkpt>
      <trkpt lat="43.92059" lon="5.83032">
        <ele>533.92</ele>
        <time>2015-04-21T10:24:39Z</time>
      </trkpt>
      <trkpt lat="43.92014" lon="5.83104">
        <ele>533.42</ele>
        <time>2015-04-21T10:24:48Z</time>
      </trkpt>
      <trkpt lat="43.91989" lon="5.83147">
        <ele>532.29</ele>
        <time>2015-04-21T10:24:53Z</time>
      </trkpt>
      <trkpt lat="43.9197" lon="5.83256">
        <ele>528.96</ele>
        <time>2015-04-21T10:25:02Z</time>
      </trkpt>
      <trkpt lat="43.91944" lon="5.83302">
        <ele>526.82</ele>
        <time>2015-04-21T10:25:07Z</time>
      </trkpt>
      <trkpt lat="43.91905" lon="5.83347">
        <ele>524.65</ele>
        <time>2015-04-21T10:25:13Z</time>
      </trkpt>
      <trkpt lat="43.91894" lon="5.83424">
        <ele>522.38</ele>
        <time>2015-04-21T10:25:19Z</time>
      </trkpt>
      <trkpt lat="43.91894" lon="5.83479">
        <ele>521.11</ele>
        <time>2015-04-21T10:25:23Z</time>
      </trkpt>
      <trkpt lat="43.91898" lon="5.8362">
        <ele>517.93</ele>
        <time>2015-04-21T10:25:34Z</time>
      </trkpt>
      <trkpt lat="43.91893" lon="5.83655">
        <ele>517.33</ele>
        <time>2015-04-21T10:25:37Z</time>
      </trkpt>
      <trkpt lat="43.91872" lon="5.83689">
        <ele>516.44</ele>
        <time>2015-04-21T10:25:41Z</time>
      </trkpt>
      <trkpt lat="43.91841" lon="5.8373">
        <ele>515.82</ele>
        <time>2015-04-21T10:25:46Z</time>
      </trkpt>
      <trkpt lat="43.91825" lon="5.83802">
        <ele>514.33</ele>
        <time>2015-04-21T10:25:52Z</time>
      </trkpt>
      <trkpt lat="43.91796" lon="5.8385">
        <ele>512.69</ele>
        <time>2015-04-21T10:25:57Z</time>
      </trkpt>
      <trkpt lat="43.9173" lon="5.83856">
        <ele>509.33</ele>
        <time>2015-04-21T10:26:04Z</time>
      </trkpt>
      <trkpt lat="43.91691" lon="5.83863">
        <ele>506.49</ele>
        <time>2015-04-21T10:26:08Z</time>
      </trkpt>
      <trkpt lat="43.91672" lon="5.83877">
        <ele>505.43</ele>
        <time>2015-04-21T10:26:10Z</time>
      </trkpt>
      <trkpt lat="43.91652" lon="5.83887">
        <ele>504.67</ele>
        <time>2015-04-21T10:26:12Z</time>
      </trkpt>
      <trkpt lat="43.9163" lon="5.83889">
        <ele>504.49</ele>
        <time>2015-04-21T10:26:14Z</time>
      </trkpt>
      <trkpt lat="43.91611" lon="5.8389">
        <ele>503.79</ele>
        <time>2015-04-21T10:26:16Z</time>
      </trkpt>
      <trkpt lat="43.91578" lon="5.83927">
        <ele>502.53</ele>
        <time>2015-04-21T10:26:21Z</time>
      </trkpt>
      <trkpt lat="43.9154" lon="5.84054">
        <ele>499.53</ele>
        <time>2015-04-21T10:26:32Z</time>
      </trkpt>
      <trkpt lat="43.91499" lon="5.84073">
        <ele>499.34</ele>
        <time>2015-04-21T10:26:38Z</time>
      </trkpt>
      <trkpt lat="43.91438" lon="5.84074">
        <ele>499.83</ele>
        <time>2015-04-21T10:26:47Z</time>
      </trkpt>
      <trkpt lat="43.9143" lon="5.84089">
        <ele>499.87</ele>
        <time>2015-04-21T10:26:49Z</time>
      </trkpt>
      <trkpt lat="43.91393" lon="5.84201">
        <ele>500.75</ele>
        <time>2015-04-21T10:27:02Z</time>
      </trkpt>
      <trkpt lat="43.91328" lon="5.8436">
        <ele>498.44</ele>
        <time>2015-04-21T10:27:18Z</time>
      </trkpt>
      <trkpt lat="43.9132" lon="5.84399">
        <ele>498.57</ele>
        <time>2015-04-21T10:27:22Z</time>
      </trkpt>
      <trkpt lat="43.91323" lon="5.84477">
        <ele>501.06</ele>
        <time>2015-04-21T10:27:31Z</time>
      </trkpt>
      <trkpt lat="43.91316" lon="5.84515">
        <ele>500.98</ele>
        <time>2015-04-21T10:27:36Z</time>
      </trkpt>
      <trkpt lat="43.91316" lon="5.84639">
        <ele>499.9</ele>
        <time>2015-04-21T10:27:49Z</time>
      </trkpt>
      <trkpt lat="43.91323" lon="5.84716">
        <ele>499.81</ele>
        <time>2015-04-21T10:27:57Z</time>
      </trkpt>
      <trkpt lat="43.9136" lon="5.84756">
        <ele>499.8</ele>
        <time>2015-04-21T10:28:04Z</time>
      </trkpt>
      <trkpt lat="43.91401" lon="5.84768">
        <ele>499.44</ele>
        <time>2015-04-21T10:28:10Z</time>
      </trkpt>
      <trkpt lat="43.91428" lon="5.8478">
        <ele>499.71</ele>
        <time>2015-04-21T10:28:14Z</time>
      </trkpt>
      <trkpt lat="43.9144" lon="5.84822">
        <ele>499.85</ele>
        <time>2015-04-21T10:28:20Z</time>
      </trkpt>
      <trkpt lat="43.91411" lon="5.84919">
        <ele>500.05</ele>
        <time>2015-04-21T10:28:32Z</time>
      </trkpt>
      <trkpt lat="43.91402" lon="5.84985">
        <ele>501.71</ele>
        <time>2015-04-21T10:28:40Z</time>
      </trkpt>
      <trkpt lat="43.91384" lon="5.85023">
        <ele>501.66</ele>
        <time>2015-04-21T10:28:45Z</time>
      </trkpt>
      <trkpt lat="43.91374" lon="5.85034">
        <ele>501.75</ele>
        <time>2015-04-21T10:28:47Z</time>
      </trkpt>
      <trkpt lat="43.91358" lon="5.85048">
        <ele>501.57</ele>
        <time>2015-04-21T10:28:50Z</time>
      </trkpt>
      <trkpt lat="43.91338" lon="5.85059">
        <ele>501.54</ele>
        <time>2015-04-21T10:28:53Z</time>
      </trkpt>
      <trkpt lat="43.9131" lon="5.85063">
        <ele>501.23</ele>
        <time>2015-04-21T10:28:57Z</time>
      </trkpt>
      <trkpt lat="43.91227" lon="5.85053">
        <ele>501.32</ele>
        <time>2015-04-21T10:29:09Z</time>
      </trkpt>
      <trkpt lat="43.91213" lon="5.85054">
        <ele>501.36</ele>
        <time>2015-04-21T10:29:11Z</time>
      </trkpt>
      <trkpt lat="43.91152" lon="5.8507">
        <ele>502.08</ele>
        <time>2015-04-21T10:29:20Z</time>
      </trkpt>
      <trkpt lat="43.91058" lon="5.8513">
        <ele>500.09</ele>
        <time>2015-04-21T10:29:34Z</time>
      </trkpt>
      <trkpt lat="43.91032" lon="5.85154">
        <ele>499.68</ele>
        <time>2015-04-21T10:29:38Z</time>
      </trkpt>
      <trkpt lat="43.91013" lon="5.85186">
        <ele>499.64</ele>
        <time>2015-04-21T10:29:42Z</time>
      </trkpt>
      <trkpt lat="43.90988" lon="5.85209">
        <ele>499.18</ele>
        <time>2015-04-21T10:29:46Z</time>
      </trkpt>
      <trkpt lat="43.90901" lon="5.85255">
        <ele>496.54</ele>
        <time>2015-04-21T10:29:56Z</time>
      </trkpt>
      <trkpt lat="43.90839" lon="5.85328">
        <ele>495.06</ele>
        <time>2015-04-21T10:30:05Z</time>
      </trkpt>
      <trkpt lat="43.9079" lon="5.85352">
        <ele>494.59</ele>
        <time>2015-04-21T10:30:11Z</time>
      </trkpt>
      <trkpt lat="43.90764" lon="5.85347">
        <ele>494.08</ele>
        <time>2015-04-21T10:30:14Z</time>
      </trkpt>
      <trkpt lat="43.90727" lon="5.85376">
        <ele>492.42</ele>
        <time>2015-04-21T10:30:19Z</time>
      </trkpt>
      <trkpt lat="43.90722" lon="5.854">
        <ele>491.42</ele>
        <time>2015-04-21T10:30:21Z</time>
      </trkpt>
      <trkpt lat="43.90721" lon="5.85501">
        <ele>487.6</ele>
        <time>2015-04-21T10:30:28Z</time>
      </trkpt>
      <trkpt lat="43.90725" lon="5.85533">
        <ele>485.83</ele>
        <time>2015-04-21T10:30:30Z</time>
      </trkpt>
      <trkpt lat="43.90689" lon="5.85599">
        <ele>481.46</ele>
        <time>2015-04-21T10:30:36Z</time>
      </trkpt>
      <trkpt lat="43.90645" lon="5.85654">
        <ele>476.97</ele>
        <time>2015-04-21T10:30:43Z</time>
      </trkpt>
      <trkpt lat="43.90645" lon="5.85666">
        <ele>476.58</ele>
        <time>2015-04-21T10:30:44Z</time>
      </trkpt>
      <trkpt lat="43.90654" lon="5.85726">
        <ele>474.75</ele>
        <time>2015-04-21T10:30:49Z</time>
      </trkpt>
      <trkpt lat="43.90631" lon="5.85773">
        <ele>472.68</ele>
        <time>2015-04-21T10:30:55Z</time>
      </trkpt>
      <trkpt lat="43.90606" lon="5.85814">
        <ele>471.94</ele>
        <time>2015-04-21T10:31:02Z</time>
      </trkpt>
      <trkpt lat="43.90609" lon="5.85824">
        <ele>471.71</ele>
        <time>2015-04-21T10:31:03Z</time>
      </trkpt>
      <trkpt lat="43.90619" lon="5.85881">
        <ele>471.92</ele>
        <time>2015-04-21T10:31:08Z</time>
      </trkpt>
      <trkpt lat="43.90632" lon="5.85917">
        <ele>471.5</ele>
        <time>2015-04-21T10:31:11Z</time>
      </trkpt>
      <trkpt lat="43.90642" lon="5.85969">
        <ele>470.23</ele>
        <time>2015-04-21T10:31:15Z</time>
      </trkpt>
      <trkpt lat="43.90657" lon="5.86102">
        <ele>466.71</ele>
        <time>2015-04-21T10:31:24Z</time>
      </trkpt>
      <trkpt lat="43.90658" lon="5.86117">
        <ele>466.16</ele>
        <time>2015-04-21T10:31:25Z</time>
      </trkpt>
      <trkpt lat="43.9064" lon="5.86203">
        <ele>462.45</ele>
        <time>2015-04-21T10:31:31Z</time>
      </trkpt>
      <trkpt lat="43.90611" lon="5.86297">
        <ele>460.43</ele>
        <time>2015-04-21T10:31:38Z</time>
      </trkpt>
      <trkpt lat="43.90573" lon="5.86344">
        <ele>458.99</ele>
        <time>2015-04-21T10:31:43Z</time>
      </trkpt>
      <trkpt lat="43.90518" lon="5.8638">
        <ele>456.51</ele>
        <time>2015-04-21T10:31:49Z</time>
      </trkpt>
      <trkpt lat="43.90473" lon="5.86407">
        <ele>456.31</ele>
        <time>2015-04-21T10:31:54Z</time>
      </trkpt>
      <trkpt lat="43.90365" lon="5.86451">
        <ele>453.61</ele>
        <time>2015-04-21T10:32:06Z</time>
      </trkpt>
      <trkpt lat="43.90295" lon="5.86505">
        <ele>450.98</ele>
        <time>2015-04-21T10:32:15Z</time>
      </trkpt>
      <trkpt lat="43.90259" lon="5.86509">
        <ele>449.66</ele>
        <time>2015-04-21T10:32:19Z</time>
      </trkpt>
      <trkpt lat="43.90176" lon="5.86492">
        <ele>446.2</ele>
        <time>2015-04-21T10:32:28Z</time>
      </trkpt>
      <trkpt lat="43.90062" lon="5.86458">
        <ele>443.1</ele>
        <time>2015-04-21T10:32:41Z</time>
      </trkpt>
      <trkpt lat="43.89995" lon="5.86395">
        <ele>443.94</ele>
        <time>2015-04-21T10:32:53Z</time>
      </trkpt>
      <trkpt lat="43.89914" lon="5.8635">
        <ele>443.29</ele>
        <time>2015-04-21T10:33:07Z</time>
      </trkpt>
      <trkpt lat="43.8983" lon="5.86302">
        <ele>441.8</ele>
        <time>2015-04-21T10:33:19Z</time>
      </trkpt>
      <trkpt lat="43.89801" lon="5.86271">
        <ele>441.16</ele>
        <time>2015-04-21T10:33:24Z</time>
      </trkpt>
      <trkpt lat="43.89763" lon="5.86212">
        <ele>441.62</ele>
        <time>2015-04-21T10:33:32Z</time>
      </trkpt>
      <trkpt lat="43.89719" lon="5.86147">
        <ele>438.08</ele>
        <time>2015-04-21T10:33:40Z</time>
      </trkpt>
      <trkpt lat="43.89688" lon="5.86091">
        <ele>436.38</ele>
        <time>2015-04-21T10:33:46Z</time>
      </trkpt>
      <trkpt lat="43.89651" lon="5.86042">
        <ele>434.22</ele>
        <time>2015-04-21T10:33:52Z</time>
      </trkpt>
      <trkpt lat="43.89609" lon="5.86023">
        <ele>432.93</ele>
        <time>2015-04-21T10:33:57Z</time>
      </trkpt>
      <trkpt lat="43.89569" lon="5.8603">
        <ele>433.47</ele>
        <time>2015-04-21T10:34:02Z</time>
      </trkpt>
      <trkpt lat="43.89507" lon="5.86055">
        <ele>436.78</ele>
        <time>2015-04-21T10:34:13Z</time>
      </trkpt>
      <trkpt lat="43.8948" lon="5.86086">
        <ele>435.66</ele>
        <time>2015-04-21T10:34:19Z</time>
      </trkpt>
      <trkpt lat="43.89464" lon="5.86111">
        <ele>434.71</ele>
        <time>2015-04-21T10:34:24Z</time>
      </trkpt>
      <trkpt lat="43.89475" lon="5.8613">
        <ele>431.63</ele>
        <time>2015-04-21T10:34:29Z</time>
      </trkpt>
      <trkpt lat="43.8948" lon="5.86146">
        <ele>431.17</ele>
        <time>2015-04-21T10:34:31Z</time>
      </trkpt>
      <trkpt lat="43.89485" lon="5.86165">
        <ele>430.35</ele>
        <time>2015-04-21T10:34:33Z</time>
      </trkpt>
      <trkpt lat="43.89496" lon="5.86185">
        <ele>429.31</ele>
        <time>2015-04-21T10:34:35Z</time>
      </trkpt>
      <trkpt lat="43.89526" lon="5.86232">
        <ele>425.01</ele>
        <time>2015-04-21T10:34:40Z</time>
      </trkpt>
      <trkpt lat="43.89533" lon="5.86286">
        <ele>420.07</ele>
        <time>2015-04-21T10:34:45Z</time>
      </trkpt>
      <trkpt lat="43.89524" lon="5.86309">
        <ele>418.79</ele>
        <time>2015-04-21T10:34:47Z</time>
      </trkpt>
      <trkpt lat="43.89497" lon="5.86367">
        <ele>415.06</ele>
        <time>2015-04-21T10:34:52Z</time>
      </trkpt>
      <trkpt lat="43.89476" lon="5.86419">
        <ele>410.73</ele>
        <time>2015-04-21T10:34:57Z</time>
      </trkpt>
      <trkpt lat="43.89492" lon="5.86436">
        <ele>408.17</ele>
        <time>2015-04-21T10:35:02Z</time>
      </trkpt>
      <trkpt lat="43.89498" lon="5.86431">
        <ele>407.58</ele>
        <time>2015-04-21T10:35:03Z</time>
      </trkpt>
      <trkpt lat="43.89523" lon="5.86405">
        <ele>405.47</ele>
        <time>2015-04-21T10:35:07Z</time>
      </trkpt>
      <trkpt lat="43.89564" lon="5.86404">
        <ele>401.8</ele>
        <time>2015-04-21T10:35:13Z</time>
      </trkpt>
      <trkpt lat="43.89582" lon="5.86438">
        <ele>399.96</ele>
        <time>2015-04-21T10:35:17Z</time>
      </trkpt>
      <trkpt lat="43.89583" lon="5.86448">
        <ele>399.81</ele>
        <time>2015-04-21T10:35:18Z</time>
      </trkpt>
      <trkpt lat="43.89581" lon="5.86474">
        <ele>399.87</ele>
        <time>2015-04-21T10:35:21Z</time>
      </trkpt>
      <trkpt lat="43.89596" lon="5.86508">
        <ele>400.3</ele>
        <time>2015-04-21T10:35:26Z</time>
      </trkpt>
      <trkpt lat="43.89665" lon="5.86582">
        <ele>399.55</ele>
        <time>2015-04-21T10:35:39Z</time>
      </trkpt>
      <trkpt lat="43.89733" lon="5.86668">
        <ele>399.76</ele>
        <time>2015-04-21T10:35:54Z</time>
      </trkpt>
      <trkpt lat="43.89761" lon="5.86695">
        <ele>399.8</ele>
        <time>2015-04-21T10:36:01Z</time>
      </trkpt>
      <trkpt lat="43.89777" lon="5.86696">
        <ele>399.86</ele>
        <time>2015-04-21T10:36:06Z</time>
      </trkpt>
      <trkpt lat="43.8979" lon="5.86667">
        <ele>402.89</ele>
        <time>2015-04-21T10:36:20Z</time>
      </trkpt>
      <trkpt lat="43.89805" lon="5.86639">
        <ele>405.93</ele>
        <time>2015-04-21T10:36:33Z</time>
      </trkpt>
      <trkpt lat="43.89818" lon="5.86615">
        <ele>408.93</ele>
        <time>2015-04-21T10:36:47Z</time>
      </trkpt>
      <trkpt lat="43.8983" lon="5.86593">
        <ele>411.8</ele>
        <time>2015-04-21T10:37:00Z</time>
      </trkpt>
      <trkpt lat="43.89844" lon="5.86566">
        <ele>414.8</ele>
        <time>2015-04-21T10:37:15Z</time>
      </trkpt>
      <trkpt lat="43.89849" lon="5.8654">
        <ele>417.9</ele>
        <time>2015-04-21T10:37:29Z</time>
      </trkpt>
      <trkpt lat="43.89834" lon="5.86521">
        <ele>417.76</ele>
        <time>2015-04-21T10:37:40Z</time>
      </trkpt>
      <trkpt lat="43.89815" lon="5.86501">
        <ele>416.02</ele>
        <time>2015-04-21T10:37:51Z</time>
      </trkpt>
      <trkpt lat="43.89813" lon="5.86488">
        <ele>414.98</ele>
        <time>2015-04-21T10:38:00Z</time>
      </trkpt>
      <trkpt lat="43.89815" lon="5.86487">
        <ele>414.9</ele>
        <time>2015-04-21T10:38:13Z</time>
      </trkpt>
      <trkpt lat="43.89816" lon="5.86485">
        <ele>414.74</ele>
        <time>2015-04-21T10:38:35Z</time>
      </trkpt>
      <trkpt lat="43.89812" lon="5.86487">
        <ele>414.86</ele>
        <time>2015-04-21T10:39:04Z</time>
      </trkpt>
      <trkpt lat="43.89812" lon="5.8649">
        <ele>414.82</ele>
        <time>2015-04-21T10:39:12Z</time>
      </trkpt>
    </trkseg>
  </trk>
</gpx>